<?xml version="1.0" encoding="UTF-8" standalone="no" ?>
<gpx xmlns="http://www.topografix.com/GPX/1/1" xmlns:xsi="http://www.w3.org/2001/XMLSchema-instance" xsi:schemaLocation="http://www.topografix.com/GPX/1/1 http://www.topografix.com/GPX/1/1/gpx.xsd" version="1.1" creator="VisuGPX - https://www.visugpx.com">
  <metadata>
    <name>Au hasard des chemins</name>
    <desc><![CDATA[la carte rangée, on avance sur quelques chemins qu\'on ne connait pas ]]></desc>
  </metadata>
  <trk>
    <name><![CDATA[Untitled]]></name>
    <trkseg>
      <trkpt lat="48.70826" lon="1.74394">
        <ele>176.39999389648</ele>
        <time>2012-03-13T10:36:57.000Z</time>
      </trkpt>
      <trkpt lat="48.70833" lon="1.74387">
        <ele>176.39999389648</ele>
        <time>2012-03-13T10:37:03.000Z</time>
      </trkpt>
      <trkpt lat="48.70837" lon="1.74389">
        <ele>176.19999694824</ele>
        <time>2012-03-13T10:37:05.000Z</time>
      </trkpt>
      <trkpt lat="48.70841" lon="1.74384">
        <ele>176.39999389648</ele>
        <time>2012-03-13T10:37:10.000Z</time>
      </trkpt>
      <trkpt lat="48.70847" lon="1.74376">
        <ele>176.39999389648</ele>
        <time>2012-03-13T10:37:17.000Z</time>
      </trkpt>
      <trkpt lat="48.70854" lon="1.74365">
        <ele>176.39999389648</ele>
        <time>2012-03-13T10:37:26.000Z</time>
      </trkpt>
      <trkpt lat="48.70857" lon="1.74362">
        <ele>176.39999389648</ele>
        <time>2012-03-13T10:37:29.000Z</time>
      </trkpt>
      <trkpt lat="48.70858" lon="1.74361">
        <ele>176.39999389648</ele>
        <time>2012-03-13T10:37:31.000Z</time>
      </trkpt>
      <trkpt lat="48.70859" lon="1.74361">
        <ele>176.39999389648</ele>
        <time>2012-03-13T10:37:36.000Z</time>
      </trkpt>
      <trkpt lat="48.70859" lon="1.74361">
        <ele>176.39999389648</ele>
        <time>2012-03-13T10:37:37.000Z</time>
      </trkpt>
      <trkpt lat="48.70879" lon="1.74309">
        <ele>177.60000610352</ele>
        <time>2012-03-13T10:38:34.000Z</time>
      </trkpt>
      <trkpt lat="48.70881" lon="1.74306">
        <ele>177.80000305176</ele>
        <time>2012-03-13T10:38:35.000Z</time>
      </trkpt>
      <trkpt lat="48.70884" lon="1.74298">
        <ele>178.19999694824</ele>
        <time>2012-03-13T10:38:40.000Z</time>
      </trkpt>
      <trkpt lat="48.70889" lon="1.74288">
        <ele>178.80000305176</ele>
        <time>2012-03-13T10:38:46.000Z</time>
      </trkpt>
      <trkpt lat="48.70893" lon="1.74279">
        <ele>179.19999694824</ele>
        <time>2012-03-13T10:38:51.000Z</time>
      </trkpt>
      <trkpt lat="48.70899" lon="1.74266">
        <ele>180</ele>
        <time>2012-03-13T10:38:58.000Z</time>
      </trkpt>
      <trkpt lat="48.70906" lon="1.74256">
        <ele>180.60000610352</ele>
        <time>2012-03-13T10:39:05.000Z</time>
      </trkpt>
      <trkpt lat="48.70907" lon="1.74251">
        <ele>180.80000305176</ele>
        <time>2012-03-13T10:39:08.000Z</time>
      </trkpt>
      <trkpt lat="48.70908" lon="1.74247">
        <ele>181</ele>
        <time>2012-03-13T10:39:10.000Z</time>
      </trkpt>
      <trkpt lat="48.70907" lon="1.7424">
        <ele>181.19999694824</ele>
        <time>2012-03-13T10:39:13.000Z</time>
      </trkpt>
      <trkpt lat="48.70909" lon="1.74235">
        <ele>181.19999694824</ele>
        <time>2012-03-13T10:39:18.000Z</time>
      </trkpt>
      <trkpt lat="48.70908" lon="1.74226">
        <ele>181.60000610352</ele>
        <time>2012-03-13T10:39:27.000Z</time>
      </trkpt>
      <trkpt lat="48.70912" lon="1.74231">
        <ele>181.39999389648</ele>
        <time>2012-03-13T10:39:37.000Z</time>
      </trkpt>
      <trkpt lat="48.70908" lon="1.74229">
        <ele>181.39999389648</ele>
        <time>2012-03-13T10:39:46.000Z</time>
      </trkpt>
      <trkpt lat="48.70916" lon="1.74229">
        <ele>181.39999389648</ele>
        <time>2012-03-13T10:40:48.000Z</time>
      </trkpt>
      <trkpt lat="48.70916" lon="1.74225">
        <ele>181.60000610352</ele>
        <time>2012-03-13T10:40:49.000Z</time>
      </trkpt>
      <trkpt lat="48.70919" lon="1.74214">
        <ele>181.80000305176</ele>
        <time>2012-03-13T10:40:55.000Z</time>
      </trkpt>
      <trkpt lat="48.70919" lon="1.74208">
        <ele>182</ele>
        <time>2012-03-13T10:40:58.000Z</time>
      </trkpt>
      <trkpt lat="48.70918" lon="1.74205">
        <ele>182</ele>
        <time>2012-03-13T10:41:00.000Z</time>
      </trkpt>
      <trkpt lat="48.70916" lon="1.74194">
        <ele>182.39999389648</ele>
        <time>2012-03-13T10:41:07.000Z</time>
      </trkpt>
      <trkpt lat="48.70916" lon="1.74193">
        <ele>182.39999389648</ele>
        <time>2012-03-13T10:41:08.000Z</time>
      </trkpt>
      <trkpt lat="48.70918" lon="1.7418">
        <ele>182.60000610352</ele>
        <time>2012-03-13T10:41:16.000Z</time>
      </trkpt>
      <trkpt lat="48.70921" lon="1.74171">
        <ele>182.80000305176</ele>
        <time>2012-03-13T10:41:22.000Z</time>
      </trkpt>
      <trkpt lat="48.70921" lon="1.74167">
        <ele>182.80000305176</ele>
        <time>2012-03-13T10:41:24.000Z</time>
      </trkpt>
      <trkpt lat="48.70924" lon="1.74155">
        <ele>182.80000305176</ele>
        <time>2012-03-13T10:41:31.000Z</time>
      </trkpt>
      <trkpt lat="48.70925" lon="1.7415">
        <ele>182.80000305176</ele>
        <time>2012-03-13T10:41:34.000Z</time>
      </trkpt>
      <trkpt lat="48.70926" lon="1.74144">
        <ele>182.80000305176</ele>
        <time>2012-03-13T10:41:39.000Z</time>
      </trkpt>
      <trkpt lat="48.70928" lon="1.74134">
        <ele>182.80000305176</ele>
        <time>2012-03-13T10:41:44.000Z</time>
      </trkpt>
      <trkpt lat="48.70929" lon="1.74123">
        <ele>182.80000305176</ele>
        <time>2012-03-13T10:41:49.000Z</time>
      </trkpt>
      <trkpt lat="48.70931" lon="1.74115">
        <ele>182.60000610352</ele>
        <time>2012-03-13T10:41:55.000Z</time>
      </trkpt>
      <trkpt lat="48.70932" lon="1.7411">
        <ele>182.60000610352</ele>
        <time>2012-03-13T10:41:59.000Z</time>
      </trkpt>
      <trkpt lat="48.70935" lon="1.74099">
        <ele>182.60000610352</ele>
        <time>2012-03-13T10:42:06.000Z</time>
      </trkpt>
      <trkpt lat="48.70937" lon="1.74097">
        <ele>182.60000610352</ele>
        <time>2012-03-13T10:42:08.000Z</time>
      </trkpt>
      <trkpt lat="48.70943" lon="1.74092">
        <ele>182.60000610352</ele>
        <time>2012-03-13T10:42:15.000Z</time>
      </trkpt>
      <trkpt lat="48.70947" lon="1.74077">
        <ele>182.60000610352</ele>
        <time>2012-03-13T10:42:24.000Z</time>
      </trkpt>
      <trkpt lat="48.70947" lon="1.74076">
        <ele>182.60000610352</ele>
        <time>2012-03-13T10:42:25.000Z</time>
      </trkpt>
      <trkpt lat="48.70949" lon="1.74066">
        <ele>182.60000610352</ele>
        <time>2012-03-13T10:42:32.000Z</time>
      </trkpt>
      <trkpt lat="48.70949" lon="1.7405">
        <ele>182.60000610352</ele>
        <time>2012-03-13T10:42:37.000Z</time>
      </trkpt>
      <trkpt lat="48.70953" lon="1.74031">
        <ele>182.60000610352</ele>
        <time>2012-03-13T10:42:47.000Z</time>
      </trkpt>
      <trkpt lat="48.70956" lon="1.74016">
        <ele>182.60000610352</ele>
        <time>2012-03-13T10:42:55.000Z</time>
      </trkpt>
      <trkpt lat="48.70961" lon="1.74004">
        <ele>182.39999389648</ele>
        <time>2012-03-13T10:43:02.000Z</time>
      </trkpt>
      <trkpt lat="48.70963" lon="1.73985">
        <ele>182.80000305176</ele>
        <time>2012-03-13T10:43:11.000Z</time>
      </trkpt>
      <trkpt lat="48.70965" lon="1.73971">
        <ele>183</ele>
        <time>2012-03-13T10:43:18.000Z</time>
      </trkpt>
      <trkpt lat="48.70969" lon="1.73955">
        <ele>183.39999389648</ele>
        <time>2012-03-13T10:43:27.000Z</time>
      </trkpt>
      <trkpt lat="48.70972" lon="1.7394">
        <ele>183.80000305176</ele>
        <time>2012-03-13T10:43:34.000Z</time>
      </trkpt>
      <trkpt lat="48.70975" lon="1.73928">
        <ele>184.19999694824</ele>
        <time>2012-03-13T10:43:41.000Z</time>
      </trkpt>
      <trkpt lat="48.70979" lon="1.73907">
        <ele>184.19999694824</ele>
        <time>2012-03-13T10:43:51.000Z</time>
      </trkpt>
      <trkpt lat="48.70983" lon="1.73889">
        <ele>183.80000305176</ele>
        <time>2012-03-13T10:44:00.000Z</time>
      </trkpt>
      <trkpt lat="48.70985" lon="1.73879">
        <ele>183.60000610352</ele>
        <time>2012-03-13T10:44:06.000Z</time>
      </trkpt>
      <trkpt lat="48.70988" lon="1.73869">
        <ele>183.39999389648</ele>
        <time>2012-03-13T10:44:13.000Z</time>
      </trkpt>
      <trkpt lat="48.70988" lon="1.73869">
        <ele>183.39999389648</ele>
        <time>2012-03-13T10:44:14.000Z</time>
      </trkpt>
      <trkpt lat="48.70989" lon="1.73864">
        <ele>183.39999389648</ele>
        <time>2012-03-13T10:44:21.000Z</time>
      </trkpt>
      <trkpt lat="48.70993" lon="1.73845">
        <ele>183</ele>
        <time>2012-03-13T10:44:29.000Z</time>
      </trkpt>
      <trkpt lat="48.70996" lon="1.73833">
        <ele>182.80000305176</ele>
        <time>2012-03-13T10:44:35.000Z</time>
      </trkpt>
      <trkpt lat="48.70997" lon="1.73824">
        <ele>182.60000610352</ele>
        <time>2012-03-13T10:44:39.000Z</time>
      </trkpt>
      <trkpt lat="48.71001" lon="1.73801">
        <ele>182.19999694824</ele>
        <time>2012-03-13T10:44:49.000Z</time>
      </trkpt>
      <trkpt lat="48.71007" lon="1.73788">
        <ele>182</ele>
        <time>2012-03-13T10:44:57.000Z</time>
      </trkpt>
      <trkpt lat="48.71014" lon="1.73784">
        <ele>182</ele>
        <time>2012-03-13T10:45:04.000Z</time>
      </trkpt>
      <trkpt lat="48.71022" lon="1.7378">
        <ele>182</ele>
        <time>2012-03-13T10:45:10.000Z</time>
      </trkpt>
      <trkpt lat="48.71025" lon="1.73779">
        <ele>182</ele>
        <time>2012-03-13T10:45:13.000Z</time>
      </trkpt>
      <trkpt lat="48.71034" lon="1.7377">
        <ele>182</ele>
        <time>2012-03-13T10:45:21.000Z</time>
      </trkpt>
      <trkpt lat="48.71041" lon="1.73764">
        <ele>182</ele>
        <time>2012-03-13T10:45:27.000Z</time>
      </trkpt>
      <trkpt lat="48.7105" lon="1.73753">
        <ele>182.19999694824</ele>
        <time>2012-03-13T10:45:35.000Z</time>
      </trkpt>
      <trkpt lat="48.71058" lon="1.73745">
        <ele>182.19999694824</ele>
        <time>2012-03-13T10:45:42.000Z</time>
      </trkpt>
      <trkpt lat="48.71068" lon="1.73739">
        <ele>182.19999694824</ele>
        <time>2012-03-13T10:45:50.000Z</time>
      </trkpt>
      <trkpt lat="48.71075" lon="1.73733">
        <ele>182</ele>
        <time>2012-03-13T10:45:57.000Z</time>
      </trkpt>
      <trkpt lat="48.71086" lon="1.73723">
        <ele>181.80000305176</ele>
        <time>2012-03-13T10:46:07.000Z</time>
      </trkpt>
      <trkpt lat="48.71094" lon="1.73714">
        <ele>181.60000610352</ele>
        <time>2012-03-13T10:46:14.000Z</time>
      </trkpt>
      <trkpt lat="48.71103" lon="1.73704">
        <ele>181.39999389648</ele>
        <time>2012-03-13T10:46:22.000Z</time>
      </trkpt>
      <trkpt lat="48.71111" lon="1.73696">
        <ele>181.39999389648</ele>
        <time>2012-03-13T10:46:29.000Z</time>
      </trkpt>
      <trkpt lat="48.71119" lon="1.73689">
        <ele>181.39999389648</ele>
        <time>2012-03-13T10:46:36.000Z</time>
      </trkpt>
      <trkpt lat="48.71125" lon="1.73682">
        <ele>181.39999389648</ele>
        <time>2012-03-13T10:46:42.000Z</time>
      </trkpt>
      <trkpt lat="48.71133" lon="1.73672">
        <ele>181.60000610352</ele>
        <time>2012-03-13T10:46:50.000Z</time>
      </trkpt>
      <trkpt lat="48.71141" lon="1.73662">
        <ele>181.60000610352</ele>
        <time>2012-03-13T10:46:58.000Z</time>
      </trkpt>
      <trkpt lat="48.7115" lon="1.73656">
        <ele>181.80000305176</ele>
        <time>2012-03-13T10:47:05.000Z</time>
      </trkpt>
      <trkpt lat="48.71151" lon="1.73655">
        <ele>181.80000305176</ele>
        <time>2012-03-13T10:47:06.000Z</time>
      </trkpt>
      <trkpt lat="48.71155" lon="1.7365">
        <ele>182</ele>
        <time>2012-03-13T10:47:10.000Z</time>
      </trkpt>
      <trkpt lat="48.71166" lon="1.73641">
        <ele>182</ele>
        <time>2012-03-13T10:47:19.000Z</time>
      </trkpt>
      <trkpt lat="48.71174" lon="1.73633">
        <ele>182</ele>
        <time>2012-03-13T10:47:26.000Z</time>
      </trkpt>
      <trkpt lat="48.71182" lon="1.73627">
        <ele>182</ele>
        <time>2012-03-13T10:47:32.000Z</time>
      </trkpt>
      <trkpt lat="48.7119" lon="1.73614">
        <ele>182</ele>
        <time>2012-03-13T10:47:40.000Z</time>
      </trkpt>
      <trkpt lat="48.71192" lon="1.73609">
        <ele>182</ele>
        <time>2012-03-13T10:47:44.000Z</time>
      </trkpt>
      <trkpt lat="48.71199" lon="1.73597">
        <ele>182</ele>
        <time>2012-03-13T10:47:51.000Z</time>
      </trkpt>
      <trkpt lat="48.71208" lon="1.73605">
        <ele>182.60000610352</ele>
        <time>2012-03-13T10:47:58.000Z</time>
      </trkpt>
      <trkpt lat="48.7121" lon="1.73608">
        <ele>182.80000305176</ele>
        <time>2012-03-13T10:48:00.000Z</time>
      </trkpt>
      <trkpt lat="48.71213" lon="1.73611">
        <ele>182.80000305176</ele>
        <time>2012-03-13T10:48:02.000Z</time>
      </trkpt>
      <trkpt lat="48.71226" lon="1.73614">
        <ele>183.39999389648</ele>
        <time>2012-03-13T10:48:10.000Z</time>
      </trkpt>
      <trkpt lat="48.7123" lon="1.73615">
        <ele>183.60000610352</ele>
        <time>2012-03-13T10:48:13.000Z</time>
      </trkpt>
      <trkpt lat="48.71238" lon="1.73615">
        <ele>183.80000305176</ele>
        <time>2012-03-13T10:48:19.000Z</time>
      </trkpt>
      <trkpt lat="48.7125" lon="1.73618">
        <ele>184.19999694824</ele>
        <time>2012-03-13T10:48:27.000Z</time>
      </trkpt>
      <trkpt lat="48.71254" lon="1.73618">
        <ele>183.60000610352</ele>
        <time>2012-03-13T10:48:32.000Z</time>
      </trkpt>
      <trkpt lat="48.71265" lon="1.73616">
        <ele>181.80000305176</ele>
        <time>2012-03-13T10:48:40.000Z</time>
      </trkpt>
      <trkpt lat="48.71268" lon="1.73614">
        <ele>181.19999694824</ele>
        <time>2012-03-13T10:48:43.000Z</time>
      </trkpt>
      <trkpt lat="48.71274" lon="1.73613">
        <ele>180.19999694824</ele>
        <time>2012-03-13T10:48:47.000Z</time>
      </trkpt>
      <trkpt lat="48.71283" lon="1.73604">
        <ele>179</ele>
        <time>2012-03-13T10:48:55.000Z</time>
      </trkpt>
      <trkpt lat="48.71287" lon="1.73597">
        <ele>178.39999389648</ele>
        <time>2012-03-13T10:49:01.000Z</time>
      </trkpt>
      <trkpt lat="48.71293" lon="1.7358">
        <ele>177.80000305176</ele>
        <time>2012-03-13T10:49:09.000Z</time>
      </trkpt>
      <trkpt lat="48.71298" lon="1.73566">
        <ele>177.39999389648</ele>
        <time>2012-03-13T10:49:16.000Z</time>
      </trkpt>
      <trkpt lat="48.71302" lon="1.73556">
        <ele>177</ele>
        <time>2012-03-13T10:49:23.000Z</time>
      </trkpt>
      <trkpt lat="48.71303" lon="1.73554">
        <ele>177.19999694824</ele>
        <time>2012-03-13T10:49:25.000Z</time>
      </trkpt>
      <trkpt lat="48.71306" lon="1.73543">
        <ele>177.19999694824</ele>
        <time>2012-03-13T10:49:33.000Z</time>
      </trkpt>
      <trkpt lat="48.71311" lon="1.73536">
        <ele>176.80000305176</ele>
        <time>2012-03-13T10:49:38.000Z</time>
      </trkpt>
      <trkpt lat="48.71319" lon="1.73533">
        <ele>176</ele>
        <time>2012-03-13T10:49:46.000Z</time>
      </trkpt>
      <trkpt lat="48.71325" lon="1.73529">
        <ele>175.80000305176</ele>
        <time>2012-03-13T10:49:53.000Z</time>
      </trkpt>
      <trkpt lat="48.71325" lon="1.73529">
        <ele>175.80000305176</ele>
        <time>2012-03-13T10:49:54.000Z</time>
      </trkpt>
      <trkpt lat="48.71331" lon="1.73525">
        <ele>175.39999389648</ele>
        <time>2012-03-13T10:50:04.000Z</time>
      </trkpt>
      <trkpt lat="48.71333" lon="1.73525">
        <ele>175.19999694824</ele>
        <time>2012-03-13T10:50:05.000Z</time>
      </trkpt>
      <trkpt lat="48.71337" lon="1.73523">
        <ele>174.80000305176</ele>
        <time>2012-03-13T10:50:09.000Z</time>
      </trkpt>
      <trkpt lat="48.71344" lon="1.73526">
        <ele>173.80000305176</ele>
        <time>2012-03-13T10:50:14.000Z</time>
      </trkpt>
      <trkpt lat="48.71351" lon="1.73538">
        <ele>172.19999694824</ele>
        <time>2012-03-13T10:50:21.000Z</time>
      </trkpt>
      <trkpt lat="48.71359" lon="1.73545">
        <ele>170.80000305176</ele>
        <time>2012-03-13T10:50:29.000Z</time>
      </trkpt>
      <trkpt lat="48.71361" lon="1.73548">
        <ele>170.19999694824</ele>
        <time>2012-03-13T10:50:34.000Z</time>
      </trkpt>
      <trkpt lat="48.71377" lon="1.73571">
        <ele>167</ele>
        <time>2012-03-13T10:51:02.000Z</time>
      </trkpt>
      <trkpt lat="48.71381" lon="1.73577">
        <ele>166.19999694824</ele>
        <time>2012-03-13T10:51:07.000Z</time>
      </trkpt>
      <trkpt lat="48.7139" lon="1.73578">
        <ele>165.19999694824</ele>
        <time>2012-03-13T10:51:14.000Z</time>
      </trkpt>
      <trkpt lat="48.71398" lon="1.73582">
        <ele>164</ele>
        <time>2012-03-13T10:51:20.000Z</time>
      </trkpt>
      <trkpt lat="48.71406" lon="1.73583">
        <ele>163.19999694824</ele>
        <time>2012-03-13T10:51:27.000Z</time>
      </trkpt>
      <trkpt lat="48.71409" lon="1.73582">
        <ele>162.80000305176</ele>
        <time>2012-03-13T10:51:30.000Z</time>
      </trkpt>
      <trkpt lat="48.71413" lon="1.73577">
        <ele>162.80000305176</ele>
        <time>2012-03-13T10:51:36.000Z</time>
      </trkpt>
      <trkpt lat="48.71418" lon="1.73575">
        <ele>162.19999694824</ele>
        <time>2012-03-13T10:51:43.000Z</time>
      </trkpt>
      <trkpt lat="48.71425" lon="1.7357">
        <ele>161.80000305176</ele>
        <time>2012-03-13T10:51:49.000Z</time>
      </trkpt>
      <trkpt lat="48.71429" lon="1.7357">
        <ele>161.39999389648</ele>
        <time>2012-03-13T10:51:53.000Z</time>
      </trkpt>
      <trkpt lat="48.71433" lon="1.73571">
        <ele>161</ele>
        <time>2012-03-13T10:51:56.000Z</time>
      </trkpt>
      <trkpt lat="48.71437" lon="1.7357">
        <ele>160.60000610352</ele>
        <time>2012-03-13T10:52:00.000Z</time>
      </trkpt>
      <trkpt lat="48.71441" lon="1.73568">
        <ele>160.39999389648</ele>
        <time>2012-03-13T10:52:05.000Z</time>
      </trkpt>
      <trkpt lat="48.71447" lon="1.73567">
        <ele>159.80000305176</ele>
        <time>2012-03-13T10:52:12.000Z</time>
      </trkpt>
      <trkpt lat="48.71454" lon="1.73563">
        <ele>159</ele>
        <time>2012-03-13T10:52:19.000Z</time>
      </trkpt>
      <trkpt lat="48.71456" lon="1.73562">
        <ele>158.80000305176</ele>
        <time>2012-03-13T10:52:21.000Z</time>
      </trkpt>
      <trkpt lat="48.7146" lon="1.73558">
        <ele>158.39999389648</ele>
        <time>2012-03-13T10:52:25.000Z</time>
      </trkpt>
      <trkpt lat="48.71464" lon="1.73556">
        <ele>158</ele>
        <time>2012-03-13T10:52:29.000Z</time>
      </trkpt>
      <trkpt lat="48.71471" lon="1.73553">
        <ele>157.19999694824</ele>
        <time>2012-03-13T10:52:34.000Z</time>
      </trkpt>
      <trkpt lat="48.71477" lon="1.73552">
        <ele>156.39999389648</ele>
        <time>2012-03-13T10:52:38.000Z</time>
      </trkpt>
      <trkpt lat="48.71478" lon="1.73552">
        <ele>156.39999389648</ele>
        <time>2012-03-13T10:52:39.000Z</time>
      </trkpt>
      <trkpt lat="48.71487" lon="1.73554">
        <ele>155.39999389648</ele>
        <time>2012-03-13T10:52:46.000Z</time>
      </trkpt>
      <trkpt lat="48.71491" lon="1.73555">
        <ele>155</ele>
        <time>2012-03-13T10:52:49.000Z</time>
      </trkpt>
      <trkpt lat="48.71495" lon="1.73554">
        <ele>154.39999389648</ele>
        <time>2012-03-13T10:52:53.000Z</time>
      </trkpt>
      <trkpt lat="48.71505" lon="1.73551">
        <ele>153.39999389648</ele>
        <time>2012-03-13T10:53:00.000Z</time>
      </trkpt>
      <trkpt lat="48.71507" lon="1.73551">
        <ele>153</ele>
        <time>2012-03-13T10:53:02.000Z</time>
      </trkpt>
      <trkpt lat="48.71514" lon="1.73548">
        <ele>152.19999694824</ele>
        <time>2012-03-13T10:53:08.000Z</time>
      </trkpt>
      <trkpt lat="48.71522" lon="1.73546">
        <ele>151.19999694824</ele>
        <time>2012-03-13T10:53:15.000Z</time>
      </trkpt>
      <trkpt lat="48.71524" lon="1.73545">
        <ele>151</ele>
        <time>2012-03-13T10:53:17.000Z</time>
      </trkpt>
      <trkpt lat="48.71532" lon="1.73543">
        <ele>150.19999694824</ele>
        <time>2012-03-13T10:53:24.000Z</time>
      </trkpt>
      <trkpt lat="48.71533" lon="1.73542">
        <ele>150</ele>
        <time>2012-03-13T10:53:25.000Z</time>
      </trkpt>
      <trkpt lat="48.71542" lon="1.73539">
        <ele>149</ele>
        <time>2012-03-13T10:53:33.000Z</time>
      </trkpt>
      <trkpt lat="48.71552" lon="1.73538">
        <ele>147.80000305176</ele>
        <time>2012-03-13T10:53:41.000Z</time>
      </trkpt>
      <trkpt lat="48.71558" lon="1.73539">
        <ele>147.19999694824</ele>
        <time>2012-03-13T10:53:45.000Z</time>
      </trkpt>
      <trkpt lat="48.71561" lon="1.73539">
        <ele>146.80000305176</ele>
        <time>2012-03-13T10:53:49.000Z</time>
      </trkpt>
      <trkpt lat="48.7157" lon="1.73537">
        <ele>146</ele>
        <time>2012-03-13T10:53:56.000Z</time>
      </trkpt>
      <trkpt lat="48.71576" lon="1.73534">
        <ele>145.19999694824</ele>
        <time>2012-03-13T10:54:02.000Z</time>
      </trkpt>
      <trkpt lat="48.7158" lon="1.73534">
        <ele>144.80000305176</ele>
        <time>2012-03-13T10:54:05.000Z</time>
      </trkpt>
      <trkpt lat="48.71581" lon="1.73535">
        <ele>144.60000610352</ele>
        <time>2012-03-13T10:54:09.000Z</time>
      </trkpt>
      <trkpt lat="48.71589" lon="1.73532">
        <ele>144.19999694824</ele>
        <time>2012-03-13T10:54:21.000Z</time>
      </trkpt>
      <trkpt lat="48.71599" lon="1.7353">
        <ele>143.60000610352</ele>
        <time>2012-03-13T10:54:28.000Z</time>
      </trkpt>
      <trkpt lat="48.71609" lon="1.73529">
        <ele>143</ele>
        <time>2012-03-13T10:54:36.000Z</time>
      </trkpt>
      <trkpt lat="48.71617" lon="1.73529">
        <ele>142.60000610352</ele>
        <time>2012-03-13T10:54:43.000Z</time>
      </trkpt>
      <trkpt lat="48.71624" lon="1.73526">
        <ele>142.19999694824</ele>
        <time>2012-03-13T10:54:50.000Z</time>
      </trkpt>
      <trkpt lat="48.71625" lon="1.73525">
        <ele>142.19999694824</ele>
        <time>2012-03-13T10:54:51.000Z</time>
      </trkpt>
      <trkpt lat="48.71634" lon="1.73518">
        <ele>141.60000610352</ele>
        <time>2012-03-13T10:54:59.000Z</time>
      </trkpt>
      <trkpt lat="48.71641" lon="1.73516">
        <ele>141.19999694824</ele>
        <time>2012-03-13T10:55:05.000Z</time>
      </trkpt>
      <trkpt lat="48.71648" lon="1.73515">
        <ele>141</ele>
        <time>2012-03-13T10:55:10.000Z</time>
      </trkpt>
      <trkpt lat="48.71654" lon="1.73514">
        <ele>140.60000610352</ele>
        <time>2012-03-13T10:55:15.000Z</time>
      </trkpt>
      <trkpt lat="48.71661" lon="1.73512">
        <ele>140.19999694824</ele>
        <time>2012-03-13T10:55:21.000Z</time>
      </trkpt>
      <trkpt lat="48.71663" lon="1.73512">
        <ele>140.19999694824</ele>
        <time>2012-03-13T10:55:25.000Z</time>
      </trkpt>
      <trkpt lat="48.7168" lon="1.73511">
        <ele>139.60000610352</ele>
        <time>2012-03-13T10:55:51.000Z</time>
      </trkpt>
      <trkpt lat="48.71687" lon="1.73509">
        <ele>139.39999389648</ele>
        <time>2012-03-13T10:55:57.000Z</time>
      </trkpt>
      <trkpt lat="48.71693" lon="1.73508">
        <ele>139.19999694824</ele>
        <time>2012-03-13T10:56:03.000Z</time>
      </trkpt>
      <trkpt lat="48.71701" lon="1.73506">
        <ele>138.80000305176</ele>
        <time>2012-03-13T10:56:09.000Z</time>
      </trkpt>
      <trkpt lat="48.71709" lon="1.73505">
        <ele>138.60000610352</ele>
        <time>2012-03-13T10:56:17.000Z</time>
      </trkpt>
      <trkpt lat="48.71711" lon="1.73505">
        <ele>138.60000610352</ele>
        <time>2012-03-13T10:56:19.000Z</time>
      </trkpt>
      <trkpt lat="48.71712" lon="1.73504">
        <ele>138.39999389648</ele>
        <time>2012-03-13T10:56:23.000Z</time>
      </trkpt>
      <trkpt lat="48.71722" lon="1.73501">
        <ele>138</ele>
        <time>2012-03-13T10:56:42.000Z</time>
      </trkpt>
      <trkpt lat="48.71727" lon="1.73501">
        <ele>137.80000305176</ele>
        <time>2012-03-13T10:56:44.000Z</time>
      </trkpt>
      <trkpt lat="48.71739" lon="1.73499">
        <ele>137.39999389648</ele>
        <time>2012-03-13T10:56:53.000Z</time>
      </trkpt>
      <trkpt lat="48.71749" lon="1.73501">
        <ele>137</ele>
        <time>2012-03-13T10:57:01.000Z</time>
      </trkpt>
      <trkpt lat="48.71758" lon="1.73497">
        <ele>136.80000305176</ele>
        <time>2012-03-13T10:57:08.000Z</time>
      </trkpt>
      <trkpt lat="48.7176" lon="1.73497">
        <ele>136.60000610352</ele>
        <time>2012-03-13T10:57:10.000Z</time>
      </trkpt>
      <trkpt lat="48.71769" lon="1.73492">
        <ele>136.19999694824</ele>
        <time>2012-03-13T10:57:17.000Z</time>
      </trkpt>
      <trkpt lat="48.7178" lon="1.73489">
        <ele>135.80000305176</ele>
        <time>2012-03-13T10:57:25.000Z</time>
      </trkpt>
      <trkpt lat="48.71783" lon="1.73488">
        <ele>135.80000305176</ele>
        <time>2012-03-13T10:57:28.000Z</time>
      </trkpt>
      <trkpt lat="48.71788" lon="1.73484">
        <ele>135.39999389648</ele>
        <time>2012-03-13T10:57:33.000Z</time>
      </trkpt>
      <trkpt lat="48.71796" lon="1.73482">
        <ele>135.19999694824</ele>
        <time>2012-03-13T10:57:39.000Z</time>
      </trkpt>
      <trkpt lat="48.71801" lon="1.7348">
        <ele>134.80000305176</ele>
        <time>2012-03-13T10:57:43.000Z</time>
      </trkpt>
      <trkpt lat="48.71816" lon="1.73477">
        <ele>134.19999694824</ele>
        <time>2012-03-13T10:57:53.000Z</time>
      </trkpt>
      <trkpt lat="48.71824" lon="1.73472">
        <ele>133.80000305176</ele>
        <time>2012-03-13T10:58:01.000Z</time>
      </trkpt>
      <trkpt lat="48.71837" lon="1.7347">
        <ele>133.19999694824</ele>
        <time>2012-03-13T10:58:10.000Z</time>
      </trkpt>
      <trkpt lat="48.71849" lon="1.73465">
        <ele>132.80000305176</ele>
        <time>2012-03-13T10:58:19.000Z</time>
      </trkpt>
      <trkpt lat="48.71859" lon="1.73463">
        <ele>132.39999389648</ele>
        <time>2012-03-13T10:58:26.000Z</time>
      </trkpt>
      <trkpt lat="48.7187" lon="1.7346">
        <ele>132.19999694824</ele>
        <time>2012-03-13T10:58:33.000Z</time>
      </trkpt>
      <trkpt lat="48.71877" lon="1.73462">
        <ele>132</ele>
        <time>2012-03-13T10:58:38.000Z</time>
      </trkpt>
      <trkpt lat="48.71881" lon="1.73463">
        <ele>132</ele>
        <time>2012-03-13T10:58:42.000Z</time>
      </trkpt>
      <trkpt lat="48.7189" lon="1.73459">
        <ele>131.60000610352</ele>
        <time>2012-03-13T10:58:49.000Z</time>
      </trkpt>
      <trkpt lat="48.71897" lon="1.73457">
        <ele>131.39999389648</ele>
        <time>2012-03-13T10:58:54.000Z</time>
      </trkpt>
      <trkpt lat="48.71904" lon="1.73454">
        <ele>131.19999694824</ele>
        <time>2012-03-13T10:59:00.000Z</time>
      </trkpt>
      <trkpt lat="48.71914" lon="1.73453">
        <ele>131</ele>
        <time>2012-03-13T10:59:07.000Z</time>
      </trkpt>
      <trkpt lat="48.71924" lon="1.73453">
        <ele>130.80000305176</ele>
        <time>2012-03-13T10:59:15.000Z</time>
      </trkpt>
      <trkpt lat="48.71934" lon="1.73449">
        <ele>130.80000305176</ele>
        <time>2012-03-13T10:59:22.000Z</time>
      </trkpt>
      <trkpt lat="48.71944" lon="1.73447">
        <ele>130.80000305176</ele>
        <time>2012-03-13T10:59:30.000Z</time>
      </trkpt>
      <trkpt lat="48.71946" lon="1.73447">
        <ele>130.80000305176</ele>
        <time>2012-03-13T10:59:31.000Z</time>
      </trkpt>
      <trkpt lat="48.71952" lon="1.73443">
        <ele>130.60000610352</ele>
        <time>2012-03-13T10:59:36.000Z</time>
      </trkpt>
      <trkpt lat="48.7196" lon="1.73441">
        <ele>130.60000610352</ele>
        <time>2012-03-13T10:59:43.000Z</time>
      </trkpt>
      <trkpt lat="48.71965" lon="1.73441">
        <ele>130.60000610352</ele>
        <time>2012-03-13T10:59:47.000Z</time>
      </trkpt>
      <trkpt lat="48.71973" lon="1.73438">
        <ele>130.60000610352</ele>
        <time>2012-03-13T10:59:53.000Z</time>
      </trkpt>
      <trkpt lat="48.71975" lon="1.73438">
        <ele>130.60000610352</ele>
        <time>2012-03-13T10:59:54.000Z</time>
      </trkpt>
      <trkpt lat="48.71985" lon="1.73433">
        <ele>130.39999389648</ele>
        <time>2012-03-13T11:00:01.000Z</time>
      </trkpt>
      <trkpt lat="48.72001" lon="1.7343">
        <ele>130.39999389648</ele>
        <time>2012-03-13T11:00:11.000Z</time>
      </trkpt>
      <trkpt lat="48.72007" lon="1.73427">
        <ele>130.19999694824</ele>
        <time>2012-03-13T11:00:16.000Z</time>
      </trkpt>
      <trkpt lat="48.72008" lon="1.73426">
        <ele>130.19999694824</ele>
        <time>2012-03-13T11:00:17.000Z</time>
      </trkpt>
      <trkpt lat="48.72016" lon="1.73425">
        <ele>130.19999694824</ele>
        <time>2012-03-13T11:00:24.000Z</time>
      </trkpt>
      <trkpt lat="48.72017" lon="1.73425">
        <ele>130.19999694824</ele>
        <time>2012-03-13T11:00:25.000Z</time>
      </trkpt>
      <trkpt lat="48.72023" lon="1.73424">
        <ele>130</ele>
        <time>2012-03-13T11:00:29.000Z</time>
      </trkpt>
      <trkpt lat="48.72032" lon="1.73422">
        <ele>130</ele>
        <time>2012-03-13T11:00:36.000Z</time>
      </trkpt>
      <trkpt lat="48.72037" lon="1.7342">
        <ele>130</ele>
        <time>2012-03-13T11:00:41.000Z</time>
      </trkpt>
      <trkpt lat="48.72047" lon="1.73418">
        <ele>130</ele>
        <time>2012-03-13T11:00:47.000Z</time>
      </trkpt>
      <trkpt lat="48.72048" lon="1.73417">
        <ele>130</ele>
        <time>2012-03-13T11:00:48.000Z</time>
      </trkpt>
      <trkpt lat="48.72058" lon="1.73419">
        <ele>130</ele>
        <time>2012-03-13T11:00:54.000Z</time>
      </trkpt>
      <trkpt lat="48.72063" lon="1.73416">
        <ele>130</ele>
        <time>2012-03-13T11:01:00.000Z</time>
      </trkpt>
      <trkpt lat="48.72072" lon="1.73414">
        <ele>130</ele>
        <time>2012-03-13T11:01:06.000Z</time>
      </trkpt>
      <trkpt lat="48.72076" lon="1.73412">
        <ele>129.80000305176</ele>
        <time>2012-03-13T11:01:10.000Z</time>
      </trkpt>
      <trkpt lat="48.72086" lon="1.7341">
        <ele>129.80000305176</ele>
        <time>2012-03-13T11:01:18.000Z</time>
      </trkpt>
      <trkpt lat="48.72091" lon="1.73407">
        <ele>129.39999389648</ele>
        <time>2012-03-13T11:01:22.000Z</time>
      </trkpt>
      <trkpt lat="48.72102" lon="1.73404">
        <ele>129</ele>
        <time>2012-03-13T11:01:30.000Z</time>
      </trkpt>
      <trkpt lat="48.72112" lon="1.73402">
        <ele>128.60000610352</ele>
        <time>2012-03-13T11:01:37.000Z</time>
      </trkpt>
      <trkpt lat="48.72118" lon="1.73402">
        <ele>128.39999389648</ele>
        <time>2012-03-13T11:01:43.000Z</time>
      </trkpt>
      <trkpt lat="48.72118" lon="1.73402">
        <ele>128.39999389648</ele>
        <time>2012-03-13T11:01:46.000Z</time>
      </trkpt>
      <trkpt lat="48.72122" lon="1.73403">
        <ele>128.19999694824</ele>
        <time>2012-03-13T11:01:50.000Z</time>
      </trkpt>
      <trkpt lat="48.72132" lon="1.73404">
        <ele>128</ele>
        <time>2012-03-13T11:01:56.000Z</time>
      </trkpt>
      <trkpt lat="48.7214" lon="1.73402">
        <ele>127.59999847412</ele>
        <time>2012-03-13T11:02:01.000Z</time>
      </trkpt>
      <trkpt lat="48.72142" lon="1.73403">
        <ele>127.59999847412</ele>
        <time>2012-03-13T11:02:05.000Z</time>
      </trkpt>
      <trkpt lat="48.72162" lon="1.73397">
        <ele>126.80000305176</ele>
        <time>2012-03-13T11:02:29.000Z</time>
      </trkpt>
      <trkpt lat="48.72166" lon="1.73393">
        <ele>126.40000152588</ele>
        <time>2012-03-13T11:02:32.000Z</time>
      </trkpt>
      <trkpt lat="48.72174" lon="1.73398">
        <ele>126.59999847412</ele>
        <time>2012-03-13T11:02:41.000Z</time>
      </trkpt>
      <trkpt lat="48.72181" lon="1.734">
        <ele>126.80000305176</ele>
        <time>2012-03-13T11:02:47.000Z</time>
      </trkpt>
      <trkpt lat="48.72189" lon="1.73396">
        <ele>127</ele>
        <time>2012-03-13T11:02:52.000Z</time>
      </trkpt>
      <trkpt lat="48.72196" lon="1.73393">
        <ele>127</ele>
        <time>2012-03-13T11:02:57.000Z</time>
      </trkpt>
      <trkpt lat="48.72202" lon="1.73385">
        <ele>127</ele>
        <time>2012-03-13T11:03:04.000Z</time>
      </trkpt>
      <trkpt lat="48.72203" lon="1.73383">
        <ele>127</ele>
        <time>2012-03-13T11:03:05.000Z</time>
      </trkpt>
      <trkpt lat="48.72209" lon="1.73381">
        <ele>127</ele>
        <time>2012-03-13T11:03:10.000Z</time>
      </trkpt>
      <trkpt lat="48.72219" lon="1.73381">
        <ele>127.40000152588</ele>
        <time>2012-03-13T11:03:17.000Z</time>
      </trkpt>
      <trkpt lat="48.72227" lon="1.73383">
        <ele>127.59999847412</ele>
        <time>2012-03-13T11:03:22.000Z</time>
      </trkpt>
      <trkpt lat="48.72232" lon="1.73388">
        <ele>127.59999847412</ele>
        <time>2012-03-13T11:03:28.000Z</time>
      </trkpt>
      <trkpt lat="48.72238" lon="1.73383">
        <ele>127.80000305176</ele>
        <time>2012-03-13T11:03:33.000Z</time>
      </trkpt>
      <trkpt lat="48.72242" lon="1.73383">
        <ele>127.80000305176</ele>
        <time>2012-03-13T11:03:36.000Z</time>
      </trkpt>
      <trkpt lat="48.72247" lon="1.73386">
        <ele>128</ele>
        <time>2012-03-13T11:03:40.000Z</time>
      </trkpt>
      <trkpt lat="48.72252" lon="1.73388">
        <ele>128</ele>
        <time>2012-03-13T11:03:45.000Z</time>
      </trkpt>
      <trkpt lat="48.72254" lon="1.73389">
        <ele>128</ele>
        <time>2012-03-13T11:03:48.000Z</time>
      </trkpt>
      <trkpt lat="48.72259" lon="1.7339">
        <ele>128</ele>
        <time>2012-03-13T11:03:53.000Z</time>
      </trkpt>
      <trkpt lat="48.72267" lon="1.73394">
        <ele>128</ele>
        <time>2012-03-13T11:04:00.000Z</time>
      </trkpt>
      <trkpt lat="48.72271" lon="1.73396">
        <ele>128</ele>
        <time>2012-03-13T11:04:04.000Z</time>
      </trkpt>
      <trkpt lat="48.72274" lon="1.73396">
        <ele>128</ele>
        <time>2012-03-13T11:04:09.000Z</time>
      </trkpt>
      <trkpt lat="48.72281" lon="1.73395">
        <ele>128</ele>
        <time>2012-03-13T11:04:21.000Z</time>
      </trkpt>
      <trkpt lat="48.72287" lon="1.73398">
        <ele>127.80000305176</ele>
        <time>2012-03-13T11:04:25.000Z</time>
      </trkpt>
      <trkpt lat="48.72293" lon="1.73396">
        <ele>127.80000305176</ele>
        <time>2012-03-13T11:04:29.000Z</time>
      </trkpt>
      <trkpt lat="48.72299" lon="1.73401">
        <ele>127.80000305176</ele>
        <time>2012-03-13T11:04:35.000Z</time>
      </trkpt>
      <trkpt lat="48.72309" lon="1.73403">
        <ele>127.80000305176</ele>
        <time>2012-03-13T11:04:42.000Z</time>
      </trkpt>
      <trkpt lat="48.72313" lon="1.734">
        <ele>127.80000305176</ele>
        <time>2012-03-13T11:04:47.000Z</time>
      </trkpt>
      <trkpt lat="48.72318" lon="1.73409">
        <ele>128</ele>
        <time>2012-03-13T11:04:53.000Z</time>
      </trkpt>
      <trkpt lat="48.72326" lon="1.73409">
        <ele>128</ele>
        <time>2012-03-13T11:04:59.000Z</time>
      </trkpt>
      <trkpt lat="48.72333" lon="1.73408">
        <ele>127.80000305176</ele>
        <time>2012-03-13T11:05:05.000Z</time>
      </trkpt>
      <trkpt lat="48.7234" lon="1.73407">
        <ele>127.80000305176</ele>
        <time>2012-03-13T11:05:11.000Z</time>
      </trkpt>
      <trkpt lat="48.72348" lon="1.73407">
        <ele>127.59999847412</ele>
        <time>2012-03-13T11:05:17.000Z</time>
      </trkpt>
      <trkpt lat="48.72359" lon="1.73409">
        <ele>127.19999694824</ele>
        <time>2012-03-13T11:05:24.000Z</time>
      </trkpt>
      <trkpt lat="48.72367" lon="1.73416">
        <ele>127.19999694824</ele>
        <time>2012-03-13T11:05:31.000Z</time>
      </trkpt>
      <trkpt lat="48.72368" lon="1.73416">
        <ele>127.19999694824</ele>
        <time>2012-03-13T11:05:32.000Z</time>
      </trkpt>
      <trkpt lat="48.72375" lon="1.7342">
        <ele>127</ele>
        <time>2012-03-13T11:05:38.000Z</time>
      </trkpt>
      <trkpt lat="48.72379" lon="1.73419">
        <ele>127</ele>
        <time>2012-03-13T11:05:42.000Z</time>
      </trkpt>
      <trkpt lat="48.72381" lon="1.73418">
        <ele>126.80000305176</ele>
        <time>2012-03-13T11:05:44.000Z</time>
      </trkpt>
      <trkpt lat="48.72389" lon="1.7342">
        <ele>126.59999847412</ele>
        <time>2012-03-13T11:05:50.000Z</time>
      </trkpt>
      <trkpt lat="48.724" lon="1.73421">
        <ele>126.40000152588</ele>
        <time>2012-03-13T11:05:58.000Z</time>
      </trkpt>
      <trkpt lat="48.72409" lon="1.73424">
        <ele>126.19999694824</ele>
        <time>2012-03-13T11:06:05.000Z</time>
      </trkpt>
      <trkpt lat="48.72415" lon="1.73427">
        <ele>126</ele>
        <time>2012-03-13T11:06:10.000Z</time>
      </trkpt>
      <trkpt lat="48.72422" lon="1.73431">
        <ele>126.19999694824</ele>
        <time>2012-03-13T11:06:16.000Z</time>
      </trkpt>
      <trkpt lat="48.7243" lon="1.73435">
        <ele>126.40000152588</ele>
        <time>2012-03-13T11:06:22.000Z</time>
      </trkpt>
      <trkpt lat="48.7244" lon="1.73437">
        <ele>126.80000305176</ele>
        <time>2012-03-13T11:06:29.000Z</time>
      </trkpt>
      <trkpt lat="48.7245" lon="1.73439">
        <ele>127.19999694824</ele>
        <time>2012-03-13T11:06:37.000Z</time>
      </trkpt>
      <trkpt lat="48.7246" lon="1.7344">
        <ele>127.59999847412</ele>
        <time>2012-03-13T11:06:45.000Z</time>
      </trkpt>
      <trkpt lat="48.72473" lon="1.73442">
        <ele>128</ele>
        <time>2012-03-13T11:06:54.000Z</time>
      </trkpt>
      <trkpt lat="48.72482" lon="1.73443">
        <ele>128.39999389648</ele>
        <time>2012-03-13T11:07:01.000Z</time>
      </trkpt>
      <trkpt lat="48.72488" lon="1.73442">
        <ele>128.60000610352</ele>
        <time>2012-03-13T11:07:06.000Z</time>
      </trkpt>
      <trkpt lat="48.72498" lon="1.73443">
        <ele>129</ele>
        <time>2012-03-13T11:07:13.000Z</time>
      </trkpt>
      <trkpt lat="48.72502" lon="1.73447">
        <ele>129</ele>
        <time>2012-03-13T11:07:17.000Z</time>
      </trkpt>
      <trkpt lat="48.72509" lon="1.73448">
        <ele>129</ele>
        <time>2012-03-13T11:07:23.000Z</time>
      </trkpt>
      <trkpt lat="48.72519" lon="1.73447">
        <ele>128.80000305176</ele>
        <time>2012-03-13T11:07:31.000Z</time>
      </trkpt>
      <trkpt lat="48.72526" lon="1.73451">
        <ele>128.80000305176</ele>
        <time>2012-03-13T11:07:39.000Z</time>
      </trkpt>
      <trkpt lat="48.72532" lon="1.73453">
        <ele>128.60000610352</ele>
        <time>2012-03-13T11:07:44.000Z</time>
      </trkpt>
      <trkpt lat="48.72541" lon="1.73457">
        <ele>128.60000610352</ele>
        <time>2012-03-13T11:07:51.000Z</time>
      </trkpt>
      <trkpt lat="48.72545" lon="1.73461">
        <ele>128.39999389648</ele>
        <time>2012-03-13T11:07:55.000Z</time>
      </trkpt>
      <trkpt lat="48.7255" lon="1.7347">
        <ele>128.19999694824</ele>
        <time>2012-03-13T11:08:01.000Z</time>
      </trkpt>
      <trkpt lat="48.72552" lon="1.73472">
        <ele>128.19999694824</ele>
        <time>2012-03-13T11:08:03.000Z</time>
      </trkpt>
      <trkpt lat="48.72559" lon="1.7348">
        <ele>128</ele>
        <time>2012-03-13T11:08:10.000Z</time>
      </trkpt>
      <trkpt lat="48.72561" lon="1.73482">
        <ele>127.80000305176</ele>
        <time>2012-03-13T11:08:12.000Z</time>
      </trkpt>
      <trkpt lat="48.72567" lon="1.73489">
        <ele>127.59999847412</ele>
        <time>2012-03-13T11:08:17.000Z</time>
      </trkpt>
      <trkpt lat="48.72577" lon="1.73498">
        <ele>127.19999694824</ele>
        <time>2012-03-13T11:08:26.000Z</time>
      </trkpt>
      <trkpt lat="48.72584" lon="1.73507">
        <ele>127.19999694824</ele>
        <time>2012-03-13T11:08:34.000Z</time>
      </trkpt>
      <trkpt lat="48.72592" lon="1.73519">
        <ele>127.40000152588</ele>
        <time>2012-03-13T11:08:43.000Z</time>
      </trkpt>
      <trkpt lat="48.72599" lon="1.73526">
        <ele>127.40000152588</ele>
        <time>2012-03-13T11:08:50.000Z</time>
      </trkpt>
      <trkpt lat="48.72603" lon="1.73531">
        <ele>127.59999847412</ele>
        <time>2012-03-13T11:08:54.000Z</time>
      </trkpt>
      <trkpt lat="48.72612" lon="1.73537">
        <ele>127.59999847412</ele>
        <time>2012-03-13T11:09:01.000Z</time>
      </trkpt>
      <trkpt lat="48.72621" lon="1.73544">
        <ele>127.80000305176</ele>
        <time>2012-03-13T11:09:07.000Z</time>
      </trkpt>
      <trkpt lat="48.72629" lon="1.73555">
        <ele>127.80000305176</ele>
        <time>2012-03-13T11:09:15.000Z</time>
      </trkpt>
      <trkpt lat="48.72635" lon="1.73563">
        <ele>128</ele>
        <time>2012-03-13T11:09:21.000Z</time>
      </trkpt>
      <trkpt lat="48.72644" lon="1.73569">
        <ele>128</ele>
        <time>2012-03-13T11:09:28.000Z</time>
      </trkpt>
      <trkpt lat="48.72655" lon="1.73576">
        <ele>128</ele>
        <time>2012-03-13T11:09:37.000Z</time>
      </trkpt>
      <trkpt lat="48.72663" lon="1.73585">
        <ele>128</ele>
        <time>2012-03-13T11:09:45.000Z</time>
      </trkpt>
      <trkpt lat="48.72673" lon="1.73594">
        <ele>128.19999694824</ele>
        <time>2012-03-13T11:09:54.000Z</time>
      </trkpt>
      <trkpt lat="48.72675" lon="1.73596">
        <ele>128.39999389648</ele>
        <time>2012-03-13T11:09:56.000Z</time>
      </trkpt>
      <trkpt lat="48.72679" lon="1.73602">
        <ele>128.39999389648</ele>
        <time>2012-03-13T11:10:02.000Z</time>
      </trkpt>
      <trkpt lat="48.72685" lon="1.73609">
        <ele>128.60000610352</ele>
        <time>2012-03-13T11:10:09.000Z</time>
      </trkpt>
      <trkpt lat="48.72686" lon="1.7361">
        <ele>128.80000305176</ele>
        <time>2012-03-13T11:10:10.000Z</time>
      </trkpt>
      <trkpt lat="48.72696" lon="1.73617">
        <ele>129</ele>
        <time>2012-03-13T11:10:18.000Z</time>
      </trkpt>
      <trkpt lat="48.72698" lon="1.73621">
        <ele>129</ele>
        <time>2012-03-13T11:10:22.000Z</time>
      </trkpt>
      <trkpt lat="48.72706" lon="1.73628">
        <ele>129.39999389648</ele>
        <time>2012-03-13T11:10:29.000Z</time>
      </trkpt>
      <trkpt lat="48.7271" lon="1.73636">
        <ele>129.60000610352</ele>
        <time>2012-03-13T11:10:35.000Z</time>
      </trkpt>
      <trkpt lat="48.72713" lon="1.73639">
        <ele>129.80000305176</ele>
        <time>2012-03-13T11:10:38.000Z</time>
      </trkpt>
      <trkpt lat="48.72717" lon="1.73643">
        <ele>129.80000305176</ele>
        <time>2012-03-13T11:10:42.000Z</time>
      </trkpt>
      <trkpt lat="48.7272" lon="1.73644">
        <ele>130</ele>
        <time>2012-03-13T11:10:45.000Z</time>
      </trkpt>
      <trkpt lat="48.72725" lon="1.7365">
        <ele>130.19999694824</ele>
        <time>2012-03-13T11:10:50.000Z</time>
      </trkpt>
      <trkpt lat="48.72733" lon="1.73657">
        <ele>130.39999389648</ele>
        <time>2012-03-13T11:10:57.000Z</time>
      </trkpt>
      <trkpt lat="48.7274" lon="1.73662">
        <ele>130.80000305176</ele>
        <time>2012-03-13T11:11:03.000Z</time>
      </trkpt>
      <trkpt lat="48.72744" lon="1.73666">
        <ele>130.80000305176</ele>
        <time>2012-03-13T11:11:07.000Z</time>
      </trkpt>
      <trkpt lat="48.72749" lon="1.7367">
        <ele>131</ele>
        <time>2012-03-13T11:11:12.000Z</time>
      </trkpt>
      <trkpt lat="48.72758" lon="1.73682">
        <ele>131.19999694824</ele>
        <time>2012-03-13T11:11:22.000Z</time>
      </trkpt>
      <trkpt lat="48.72763" lon="1.73687">
        <ele>131.19999694824</ele>
        <time>2012-03-13T11:11:27.000Z</time>
      </trkpt>
      <trkpt lat="48.7277" lon="1.73695">
        <ele>131.19999694824</ele>
        <time>2012-03-13T11:11:35.000Z</time>
      </trkpt>
      <trkpt lat="48.7278" lon="1.73705">
        <ele>131.39999389648</ele>
        <time>2012-03-13T11:11:44.000Z</time>
      </trkpt>
      <trkpt lat="48.7279" lon="1.73714">
        <ele>131.60000610352</ele>
        <time>2012-03-13T11:11:53.000Z</time>
      </trkpt>
      <trkpt lat="48.72793" lon="1.73718">
        <ele>131.80000305176</ele>
        <time>2012-03-13T11:11:56.000Z</time>
      </trkpt>
      <trkpt lat="48.72804" lon="1.73732">
        <ele>132.19999694824</ele>
        <time>2012-03-13T11:12:09.000Z</time>
      </trkpt>
      <trkpt lat="48.72813" lon="1.73742">
        <ele>132.60000610352</ele>
        <time>2012-03-13T11:12:18.000Z</time>
      </trkpt>
      <trkpt lat="48.72821" lon="1.73752">
        <ele>133</ele>
        <time>2012-03-13T11:12:27.000Z</time>
      </trkpt>
      <trkpt lat="48.72829" lon="1.73761">
        <ele>133.19999694824</ele>
        <time>2012-03-13T11:12:35.000Z</time>
      </trkpt>
      <trkpt lat="48.7284" lon="1.73772">
        <ele>133.60000610352</ele>
        <time>2012-03-13T11:12:46.000Z</time>
      </trkpt>
      <trkpt lat="48.72848" lon="1.73781">
        <ele>133.80000305176</ele>
        <time>2012-03-13T11:12:54.000Z</time>
      </trkpt>
      <trkpt lat="48.72853" lon="1.73787">
        <ele>134</ele>
        <time>2012-03-13T11:12:59.000Z</time>
      </trkpt>
      <trkpt lat="48.7286" lon="1.73794">
        <ele>134.19999694824</ele>
        <time>2012-03-13T11:13:05.000Z</time>
      </trkpt>
      <trkpt lat="48.72861" lon="1.73796">
        <ele>134.19999694824</ele>
        <time>2012-03-13T11:13:06.000Z</time>
      </trkpt>
      <trkpt lat="48.72868" lon="1.73803">
        <ele>134.39999389648</ele>
        <time>2012-03-13T11:13:12.000Z</time>
      </trkpt>
      <trkpt lat="48.72878" lon="1.73808">
        <ele>134.60000610352</ele>
        <time>2012-03-13T11:13:20.000Z</time>
      </trkpt>
      <trkpt lat="48.72885" lon="1.73818">
        <ele>134.80000305176</ele>
        <time>2012-03-13T11:13:28.000Z</time>
      </trkpt>
      <trkpt lat="48.72896" lon="1.73829">
        <ele>135</ele>
        <time>2012-03-13T11:13:39.000Z</time>
      </trkpt>
      <trkpt lat="48.72903" lon="1.73837">
        <ele>135</ele>
        <time>2012-03-13T11:13:46.000Z</time>
      </trkpt>
      <trkpt lat="48.7291" lon="1.73843">
        <ele>135.19999694824</ele>
        <time>2012-03-13T11:13:52.000Z</time>
      </trkpt>
      <trkpt lat="48.72911" lon="1.73844">
        <ele>135.19999694824</ele>
        <time>2012-03-13T11:13:53.000Z</time>
      </trkpt>
      <trkpt lat="48.72917" lon="1.7385">
        <ele>135.39999389648</ele>
        <time>2012-03-13T11:13:59.000Z</time>
      </trkpt>
      <trkpt lat="48.72919" lon="1.73852">
        <ele>135.39999389648</ele>
        <time>2012-03-13T11:14:01.000Z</time>
      </trkpt>
      <trkpt lat="48.72925" lon="1.7386">
        <ele>135.80000305176</ele>
        <time>2012-03-13T11:14:08.000Z</time>
      </trkpt>
      <trkpt lat="48.72926" lon="1.73861">
        <ele>135.80000305176</ele>
        <time>2012-03-13T11:14:09.000Z</time>
      </trkpt>
      <trkpt lat="48.72934" lon="1.7387">
        <ele>136</ele>
        <time>2012-03-13T11:14:17.000Z</time>
      </trkpt>
      <trkpt lat="48.72941" lon="1.73877">
        <ele>136.39999389648</ele>
        <time>2012-03-13T11:14:23.000Z</time>
      </trkpt>
      <trkpt lat="48.72945" lon="1.73882">
        <ele>136.39999389648</ele>
        <time>2012-03-13T11:14:29.000Z</time>
      </trkpt>
      <trkpt lat="48.72951" lon="1.73887">
        <ele>136.60000610352</ele>
        <time>2012-03-13T11:14:41.000Z</time>
      </trkpt>
      <trkpt lat="48.72957" lon="1.73895">
        <ele>137</ele>
        <time>2012-03-13T11:14:47.000Z</time>
      </trkpt>
      <trkpt lat="48.72958" lon="1.73896">
        <ele>137</ele>
        <time>2012-03-13T11:14:48.000Z</time>
      </trkpt>
      <trkpt lat="48.72968" lon="1.739">
        <ele>137.19999694824</ele>
        <time>2012-03-13T11:14:55.000Z</time>
      </trkpt>
      <trkpt lat="48.72975" lon="1.73906">
        <ele>137.39999389648</ele>
        <time>2012-03-13T11:15:01.000Z</time>
      </trkpt>
      <trkpt lat="48.72979" lon="1.73911">
        <ele>137.60000610352</ele>
        <time>2012-03-13T11:15:05.000Z</time>
      </trkpt>
      <trkpt lat="48.7299" lon="1.73925">
        <ele>137.80000305176</ele>
        <time>2012-03-13T11:15:15.000Z</time>
      </trkpt>
      <trkpt lat="48.72997" lon="1.73938">
        <ele>138</ele>
        <time>2012-03-13T11:15:23.000Z</time>
      </trkpt>
      <trkpt lat="48.72998" lon="1.73945">
        <ele>138</ele>
        <time>2012-03-13T11:15:27.000Z</time>
      </trkpt>
      <trkpt lat="48.72999" lon="1.73957">
        <ele>138</ele>
        <time>2012-03-13T11:15:34.000Z</time>
      </trkpt>
      <trkpt lat="48.72998" lon="1.73964">
        <ele>138</ele>
        <time>2012-03-13T11:15:38.000Z</time>
      </trkpt>
      <trkpt lat="48.72998" lon="1.73966">
        <ele>138</ele>
        <time>2012-03-13T11:15:39.000Z</time>
      </trkpt>
      <trkpt lat="48.72998" lon="1.7398">
        <ele>138</ele>
        <time>2012-03-13T11:15:46.000Z</time>
      </trkpt>
      <trkpt lat="48.72996" lon="1.73996">
        <ele>138</ele>
        <time>2012-03-13T11:15:54.000Z</time>
      </trkpt>
      <trkpt lat="48.72994" lon="1.74013">
        <ele>138.19999694824</ele>
        <time>2012-03-13T11:16:02.000Z</time>
      </trkpt>
      <trkpt lat="48.72995" lon="1.74028">
        <ele>138.39999389648</ele>
        <time>2012-03-13T11:16:09.000Z</time>
      </trkpt>
      <trkpt lat="48.72997" lon="1.74039">
        <ele>138.39999389648</ele>
        <time>2012-03-13T11:16:14.000Z</time>
      </trkpt>
      <trkpt lat="48.72997" lon="1.74048">
        <ele>138.60000610352</ele>
        <time>2012-03-13T11:16:18.000Z</time>
      </trkpt>
      <trkpt lat="48.72999" lon="1.74062">
        <ele>138.80000305176</ele>
        <time>2012-03-13T11:16:24.000Z</time>
      </trkpt>
      <trkpt lat="48.72999" lon="1.74064">
        <ele>138.80000305176</ele>
        <time>2012-03-13T11:16:25.000Z</time>
      </trkpt>
      <trkpt lat="48.73" lon="1.74069">
        <ele>138.80000305176</ele>
        <time>2012-03-13T11:16:28.000Z</time>
      </trkpt>
      <trkpt lat="48.73004" lon="1.74074">
        <ele>138.80000305176</ele>
        <time>2012-03-13T11:16:32.000Z</time>
      </trkpt>
      <trkpt lat="48.73004" lon="1.74091">
        <ele>139.19999694824</ele>
        <time>2012-03-13T11:16:40.000Z</time>
      </trkpt>
      <trkpt lat="48.73005" lon="1.74097">
        <ele>139.19999694824</ele>
        <time>2012-03-13T11:16:43.000Z</time>
      </trkpt>
      <trkpt lat="48.73004" lon="1.74107">
        <ele>139.60000610352</ele>
        <time>2012-03-13T11:16:48.000Z</time>
      </trkpt>
      <trkpt lat="48.73006" lon="1.74115">
        <ele>139.60000610352</ele>
        <time>2012-03-13T11:16:52.000Z</time>
      </trkpt>
      <trkpt lat="48.73006" lon="1.74131">
        <ele>140</ele>
        <time>2012-03-13T11:16:59.000Z</time>
      </trkpt>
      <trkpt lat="48.73007" lon="1.74143">
        <ele>140.39999389648</ele>
        <time>2012-03-13T11:17:04.000Z</time>
      </trkpt>
      <trkpt lat="48.73006" lon="1.74155">
        <ele>140.60000610352</ele>
        <time>2012-03-13T11:17:11.000Z</time>
      </trkpt>
      <trkpt lat="48.7301" lon="1.74168">
        <ele>141</ele>
        <time>2012-03-13T11:17:18.000Z</time>
      </trkpt>
      <trkpt lat="48.73011" lon="1.74175">
        <ele>141</ele>
        <time>2012-03-13T11:17:22.000Z</time>
      </trkpt>
      <trkpt lat="48.73014" lon="1.7419">
        <ele>141.19999694824</ele>
        <time>2012-03-13T11:17:30.000Z</time>
      </trkpt>
      <trkpt lat="48.73014" lon="1.74201">
        <ele>141.19999694824</ele>
        <time>2012-03-13T11:17:35.000Z</time>
      </trkpt>
      <trkpt lat="48.73015" lon="1.74216">
        <ele>141.39999389648</ele>
        <time>2012-03-13T11:17:43.000Z</time>
      </trkpt>
      <trkpt lat="48.73016" lon="1.74226">
        <ele>141.60000610352</ele>
        <time>2012-03-13T11:17:48.000Z</time>
      </trkpt>
      <trkpt lat="48.73018" lon="1.74238">
        <ele>141.60000610352</ele>
        <time>2012-03-13T11:17:54.000Z</time>
      </trkpt>
      <trkpt lat="48.73019" lon="1.74243">
        <ele>141.60000610352</ele>
        <time>2012-03-13T11:17:57.000Z</time>
      </trkpt>
      <trkpt lat="48.73021" lon="1.74252">
        <ele>141.80000305176</ele>
        <time>2012-03-13T11:18:02.000Z</time>
      </trkpt>
      <trkpt lat="48.73023" lon="1.7426">
        <ele>141.60000610352</ele>
        <time>2012-03-13T11:18:06.000Z</time>
      </trkpt>
      <trkpt lat="48.73021" lon="1.74271">
        <ele>141.60000610352</ele>
        <time>2012-03-13T11:18:12.000Z</time>
      </trkpt>
      <trkpt lat="48.73022" lon="1.74281">
        <ele>141.60000610352</ele>
        <time>2012-03-13T11:18:18.000Z</time>
      </trkpt>
      <trkpt lat="48.73024" lon="1.74287">
        <ele>141.60000610352</ele>
        <time>2012-03-13T11:18:21.000Z</time>
      </trkpt>
      <trkpt lat="48.73027" lon="1.7429">
        <ele>141.60000610352</ele>
        <time>2012-03-13T11:18:28.000Z</time>
      </trkpt>
      <trkpt lat="48.73028" lon="1.74292">
        <ele>141.39999389648</ele>
        <time>2012-03-13T11:18:35.000Z</time>
      </trkpt>
      <trkpt lat="48.73028" lon="1.74299">
        <ele>141.39999389648</ele>
        <time>2012-03-13T11:18:39.000Z</time>
      </trkpt>
      <trkpt lat="48.73029" lon="1.74301">
        <ele>141.39999389648</ele>
        <time>2012-03-13T11:18:40.000Z</time>
      </trkpt>
      <trkpt lat="48.73031" lon="1.74313">
        <ele>141.39999389648</ele>
        <time>2012-03-13T11:18:46.000Z</time>
      </trkpt>
      <trkpt lat="48.73031" lon="1.74315">
        <ele>141.39999389648</ele>
        <time>2012-03-13T11:18:47.000Z</time>
      </trkpt>
      <trkpt lat="48.73035" lon="1.74331">
        <ele>141.19999694824</ele>
        <time>2012-03-13T11:18:54.000Z</time>
      </trkpt>
      <trkpt lat="48.73036" lon="1.74346">
        <ele>141</ele>
        <time>2012-03-13T11:19:01.000Z</time>
      </trkpt>
      <trkpt lat="48.73038" lon="1.74358">
        <ele>141</ele>
        <time>2012-03-13T11:19:07.000Z</time>
      </trkpt>
      <trkpt lat="48.73036" lon="1.74376">
        <ele>140.80000305176</ele>
        <time>2012-03-13T11:19:16.000Z</time>
      </trkpt>
      <trkpt lat="48.73037" lon="1.74387">
        <ele>140.80000305176</ele>
        <time>2012-03-13T11:19:21.000Z</time>
      </trkpt>
      <trkpt lat="48.73039" lon="1.74401">
        <ele>140.60000610352</ele>
        <time>2012-03-13T11:19:28.000Z</time>
      </trkpt>
      <trkpt lat="48.7304" lon="1.74414">
        <ele>140.60000610352</ele>
        <time>2012-03-13T11:19:35.000Z</time>
      </trkpt>
      <trkpt lat="48.73041" lon="1.74424">
        <ele>140.60000610352</ele>
        <time>2012-03-13T11:19:40.000Z</time>
      </trkpt>
      <trkpt lat="48.7304" lon="1.74434">
        <ele>140.60000610352</ele>
        <time>2012-03-13T11:19:45.000Z</time>
      </trkpt>
      <trkpt lat="48.73042" lon="1.74446">
        <ele>140.60000610352</ele>
        <time>2012-03-13T11:19:52.000Z</time>
      </trkpt>
      <trkpt lat="48.73042" lon="1.74451">
        <ele>140.60000610352</ele>
        <time>2012-03-13T11:19:54.000Z</time>
      </trkpt>
      <trkpt lat="48.73044" lon="1.74463">
        <ele>140.80000305176</ele>
        <time>2012-03-13T11:20:01.000Z</time>
      </trkpt>
      <trkpt lat="48.73052" lon="1.74458">
        <ele>140.60000610352</ele>
        <time>2012-03-13T11:20:07.000Z</time>
      </trkpt>
      <trkpt lat="48.73059" lon="1.74453">
        <ele>140.39999389648</ele>
        <time>2012-03-13T11:20:12.000Z</time>
      </trkpt>
      <trkpt lat="48.73062" lon="1.74451">
        <ele>140.39999389648</ele>
        <time>2012-03-13T11:20:14.000Z</time>
      </trkpt>
      <trkpt lat="48.73083" lon="1.74439">
        <ele>140</ele>
        <time>2012-03-13T11:20:21.000Z</time>
      </trkpt>
      <trkpt lat="48.73103" lon="1.74428">
        <ele>140.60000610352</ele>
        <time>2012-03-13T11:20:27.000Z</time>
      </trkpt>
      <trkpt lat="48.73119" lon="1.74419">
        <ele>141.19999694824</ele>
        <time>2012-03-13T11:20:33.000Z</time>
      </trkpt>
      <trkpt lat="48.73132" lon="1.74412">
        <ele>141.80000305176</ele>
        <time>2012-03-13T11:20:38.000Z</time>
      </trkpt>
      <trkpt lat="48.73144" lon="1.74404">
        <ele>142.19999694824</ele>
        <time>2012-03-13T11:20:42.000Z</time>
      </trkpt>
      <trkpt lat="48.73157" lon="1.74398">
        <ele>142.60000610352</ele>
        <time>2012-03-13T11:20:46.000Z</time>
      </trkpt>
      <trkpt lat="48.73171" lon="1.7439">
        <ele>143</ele>
        <time>2012-03-13T11:20:51.000Z</time>
      </trkpt>
      <trkpt lat="48.73183" lon="1.74376">
        <ele>142.80000305176</ele>
        <time>2012-03-13T11:20:56.000Z</time>
      </trkpt>
      <trkpt lat="48.73194" lon="1.74373">
        <ele>142.60000610352</ele>
        <time>2012-03-13T11:21:00.000Z</time>
      </trkpt>
      <trkpt lat="48.73211" lon="1.74364">
        <ele>142.19999694824</ele>
        <time>2012-03-13T11:21:06.000Z</time>
      </trkpt>
      <trkpt lat="48.73228" lon="1.74353">
        <ele>141.60000610352</ele>
        <time>2012-03-13T11:21:12.000Z</time>
      </trkpt>
      <trkpt lat="48.73253" lon="1.74337">
        <ele>141</ele>
        <time>2012-03-13T11:21:21.000Z</time>
      </trkpt>
      <trkpt lat="48.73268" lon="1.74326">
        <ele>141</ele>
        <time>2012-03-13T11:21:28.000Z</time>
      </trkpt>
      <trkpt lat="48.7328" lon="1.74305">
        <ele>140.80000305176</ele>
        <time>2012-03-13T11:21:34.000Z</time>
      </trkpt>
      <trkpt lat="48.73288" lon="1.74278">
        <ele>140.60000610352</ele>
        <time>2012-03-13T11:21:40.000Z</time>
      </trkpt>
      <trkpt lat="48.73299" lon="1.7425">
        <ele>140.39999389648</ele>
        <time>2012-03-13T11:21:46.000Z</time>
      </trkpt>
      <trkpt lat="48.73309" lon="1.74254">
        <ele>140.39999389648</ele>
        <time>2012-03-13T11:21:50.000Z</time>
      </trkpt>
      <trkpt lat="48.73332" lon="1.74279">
        <ele>140.39999389648</ele>
        <time>2012-03-13T11:21:58.000Z</time>
      </trkpt>
      <trkpt lat="48.73353" lon="1.74302">
        <ele>140.39999389648</ele>
        <time>2012-03-13T11:22:06.000Z</time>
      </trkpt>
      <trkpt lat="48.73372" lon="1.74321">
        <ele>140.39999389648</ele>
        <time>2012-03-13T11:22:13.000Z</time>
      </trkpt>
      <trkpt lat="48.7339" lon="1.74345">
        <ele>140.39999389648</ele>
        <time>2012-03-13T11:22:20.000Z</time>
      </trkpt>
      <trkpt lat="48.73412" lon="1.74368">
        <ele>140.39999389648</ele>
        <time>2012-03-13T11:22:28.000Z</time>
      </trkpt>
      <trkpt lat="48.73436" lon="1.74389">
        <ele>140.19999694824</ele>
        <time>2012-03-13T11:22:36.000Z</time>
      </trkpt>
      <trkpt lat="48.73454" lon="1.7441">
        <ele>140</ele>
        <time>2012-03-13T11:22:43.000Z</time>
      </trkpt>
      <trkpt lat="48.73473" lon="1.74431">
        <ele>140</ele>
        <time>2012-03-13T11:22:50.000Z</time>
      </trkpt>
      <trkpt lat="48.73498" lon="1.74457">
        <ele>140.39999389648</ele>
        <time>2012-03-13T11:22:59.000Z</time>
      </trkpt>
      <trkpt lat="48.7352" lon="1.74481">
        <ele>142</ele>
        <time>2012-03-13T11:23:07.000Z</time>
      </trkpt>
      <trkpt lat="48.73548" lon="1.7451">
        <ele>143.39999389648</ele>
        <time>2012-03-13T11:23:17.000Z</time>
      </trkpt>
      <trkpt lat="48.73565" lon="1.74523">
        <ele>144</ele>
        <time>2012-03-13T11:23:23.000Z</time>
      </trkpt>
      <trkpt lat="48.7358" lon="1.74542">
        <ele>144.80000305176</ele>
        <time>2012-03-13T11:23:29.000Z</time>
      </trkpt>
      <trkpt lat="48.73599" lon="1.74562">
        <ele>146.39999389648</ele>
        <time>2012-03-13T11:23:36.000Z</time>
      </trkpt>
      <trkpt lat="48.73622" lon="1.74587">
        <ele>148.39999389648</ele>
        <time>2012-03-13T11:23:45.000Z</time>
      </trkpt>
      <trkpt lat="48.73646" lon="1.74611">
        <ele>149.80000305176</ele>
        <time>2012-03-13T11:23:54.000Z</time>
      </trkpt>
      <trkpt lat="48.73671" lon="1.74637">
        <ele>151.19999694824</ele>
        <time>2012-03-13T11:24:03.000Z</time>
      </trkpt>
      <trkpt lat="48.7369" lon="1.74656">
        <ele>152</ele>
        <time>2012-03-13T11:24:10.000Z</time>
      </trkpt>
      <trkpt lat="48.73707" lon="1.74675">
        <ele>153</ele>
        <time>2012-03-13T11:24:17.000Z</time>
      </trkpt>
      <trkpt lat="48.73723" lon="1.74691">
        <ele>154</ele>
        <time>2012-03-13T11:24:23.000Z</time>
      </trkpt>
      <trkpt lat="48.73745" lon="1.74714">
        <ele>155.39999389648</ele>
        <time>2012-03-13T11:24:31.000Z</time>
      </trkpt>
      <trkpt lat="48.73773" lon="1.74744">
        <ele>157.60000610352</ele>
        <time>2012-03-13T11:24:41.000Z</time>
      </trkpt>
      <trkpt lat="48.73793" lon="1.74765">
        <ele>159.60000610352</ele>
        <time>2012-03-13T11:24:48.000Z</time>
      </trkpt>
      <trkpt lat="48.73818" lon="1.74791">
        <ele>161.39999389648</ele>
        <time>2012-03-13T11:24:56.000Z</time>
      </trkpt>
      <trkpt lat="48.73839" lon="1.74811">
        <ele>162.80000305176</ele>
        <time>2012-03-13T11:25:03.000Z</time>
      </trkpt>
      <trkpt lat="48.73858" lon="1.74832">
        <ele>165.39999389648</ele>
        <time>2012-03-13T11:25:10.000Z</time>
      </trkpt>
      <trkpt lat="48.73878" lon="1.74852">
        <ele>168.80000305176</ele>
        <time>2012-03-13T11:25:17.000Z</time>
      </trkpt>
      <trkpt lat="48.73898" lon="1.74873">
        <ele>171.60000610352</ele>
        <time>2012-03-13T11:25:24.000Z</time>
      </trkpt>
      <trkpt lat="48.73916" lon="1.74892">
        <ele>173</ele>
        <time>2012-03-13T11:25:30.000Z</time>
      </trkpt>
      <trkpt lat="48.73929" lon="1.74911">
        <ele>174.80000305176</ele>
        <time>2012-03-13T11:25:36.000Z</time>
      </trkpt>
      <trkpt lat="48.73941" lon="1.74922">
        <ele>176.80000305176</ele>
        <time>2012-03-13T11:25:40.000Z</time>
      </trkpt>
      <trkpt lat="48.73954" lon="1.74936">
        <ele>179.39999389648</ele>
        <time>2012-03-13T11:25:45.000Z</time>
      </trkpt>
      <trkpt lat="48.73963" lon="1.74949">
        <ele>181</ele>
        <time>2012-03-13T11:25:49.000Z</time>
      </trkpt>
      <trkpt lat="48.73977" lon="1.74961">
        <ele>183.19999694824</ele>
        <time>2012-03-13T11:25:54.000Z</time>
      </trkpt>
      <trkpt lat="48.73985" lon="1.74965">
        <ele>184</ele>
        <time>2012-03-13T11:25:57.000Z</time>
      </trkpt>
      <trkpt lat="48.73993" lon="1.74968">
        <ele>185</ele>
        <time>2012-03-13T11:26:02.000Z</time>
      </trkpt>
      <trkpt lat="48.74002" lon="1.74975">
        <ele>185.80000305176</ele>
        <time>2012-03-13T11:26:08.000Z</time>
      </trkpt>
      <trkpt lat="48.74006" lon="1.74979">
        <ele>185.80000305176</ele>
        <time>2012-03-13T11:26:11.000Z</time>
      </trkpt>
      <trkpt lat="48.74013" lon="1.74986">
        <ele>185.80000305176</ele>
        <time>2012-03-13T11:26:16.000Z</time>
      </trkpt>
      <trkpt lat="48.74018" lon="1.74998">
        <ele>186</ele>
        <time>2012-03-13T11:26:23.000Z</time>
      </trkpt>
      <trkpt lat="48.7402" lon="1.75003">
        <ele>186</ele>
        <time>2012-03-13T11:26:26.000Z</time>
      </trkpt>
      <trkpt lat="48.74028" lon="1.75007">
        <ele>186</ele>
        <time>2012-03-13T11:26:32.000Z</time>
      </trkpt>
      <trkpt lat="48.74031" lon="1.75008">
        <ele>186.19999694824</ele>
        <time>2012-03-13T11:26:34.000Z</time>
      </trkpt>
      <trkpt lat="48.74039" lon="1.75017">
        <ele>186.19999694824</ele>
        <time>2012-03-13T11:26:41.000Z</time>
      </trkpt>
      <trkpt lat="48.74045" lon="1.75025">
        <ele>186.39999389648</ele>
        <time>2012-03-13T11:26:48.000Z</time>
      </trkpt>
      <trkpt lat="48.7405" lon="1.75036">
        <ele>186.39999389648</ele>
        <time>2012-03-13T11:26:55.000Z</time>
      </trkpt>
      <trkpt lat="48.74054" lon="1.75044">
        <ele>186.60000610352</ele>
        <time>2012-03-13T11:27:01.000Z</time>
      </trkpt>
      <trkpt lat="48.74057" lon="1.75047">
        <ele>186.60000610352</ele>
        <time>2012-03-13T11:27:03.000Z</time>
      </trkpt>
      <trkpt lat="48.74063" lon="1.75054">
        <ele>186.60000610352</ele>
        <time>2012-03-13T11:27:09.000Z</time>
      </trkpt>
      <trkpt lat="48.74072" lon="1.75065">
        <ele>186.80000305176</ele>
        <time>2012-03-13T11:27:17.000Z</time>
      </trkpt>
      <trkpt lat="48.74079" lon="1.75074">
        <ele>186.80000305176</ele>
        <time>2012-03-13T11:27:23.000Z</time>
      </trkpt>
      <trkpt lat="48.74088" lon="1.75086">
        <ele>186.80000305176</ele>
        <time>2012-03-13T11:27:31.000Z</time>
      </trkpt>
      <trkpt lat="48.74095" lon="1.75092">
        <ele>186.39999389648</ele>
        <time>2012-03-13T11:27:36.000Z</time>
      </trkpt>
      <trkpt lat="48.74103" lon="1.75103">
        <ele>185.80000305176</ele>
        <time>2012-03-13T11:27:43.000Z</time>
      </trkpt>
      <trkpt lat="48.74112" lon="1.75112">
        <ele>185.19999694824</ele>
        <time>2012-03-13T11:27:50.000Z</time>
      </trkpt>
      <trkpt lat="48.74113" lon="1.75118">
        <ele>185</ele>
        <time>2012-03-13T11:27:53.000Z</time>
      </trkpt>
      <trkpt lat="48.74121" lon="1.75127">
        <ele>184.39999389648</ele>
        <time>2012-03-13T11:28:01.000Z</time>
      </trkpt>
      <trkpt lat="48.74128" lon="1.7513">
        <ele>184</ele>
        <time>2012-03-13T11:28:06.000Z</time>
      </trkpt>
      <trkpt lat="48.74136" lon="1.75131">
        <ele>183.60000610352</ele>
        <time>2012-03-13T11:28:12.000Z</time>
      </trkpt>
      <trkpt lat="48.74153" lon="1.75128">
        <ele>183</ele>
        <time>2012-03-13T11:28:23.000Z</time>
      </trkpt>
      <trkpt lat="48.74174" lon="1.75125">
        <ele>182.19999694824</ele>
        <time>2012-03-13T11:28:36.000Z</time>
      </trkpt>
      <trkpt lat="48.74186" lon="1.75124">
        <ele>181.80000305176</ele>
        <time>2012-03-13T11:28:46.000Z</time>
      </trkpt>
      <trkpt lat="48.74186" lon="1.75124">
        <ele>181.80000305176</ele>
        <time>2012-03-13T11:28:47.000Z</time>
      </trkpt>
      <trkpt lat="48.74189" lon="1.75123">
        <ele>181.60000610352</ele>
        <time>2012-03-13T11:28:51.000Z</time>
      </trkpt>
      <trkpt lat="48.74191" lon="1.75123">
        <ele>181.60000610352</ele>
        <time>2012-03-13T11:28:52.000Z</time>
      </trkpt>
      <trkpt lat="48.742" lon="1.75124">
        <ele>181.19999694824</ele>
        <time>2012-03-13T11:29:00.000Z</time>
      </trkpt>
      <trkpt lat="48.74207" lon="1.75124">
        <ele>180.80000305176</ele>
        <time>2012-03-13T11:29:06.000Z</time>
      </trkpt>
      <trkpt lat="48.74216" lon="1.75123">
        <ele>180.39999389648</ele>
        <time>2012-03-13T11:29:12.000Z</time>
      </trkpt>
      <trkpt lat="48.74222" lon="1.75126">
        <ele>180.19999694824</ele>
        <time>2012-03-13T11:29:17.000Z</time>
      </trkpt>
      <trkpt lat="48.74236" lon="1.75123">
        <ele>179.60000610352</ele>
        <time>2012-03-13T11:29:26.000Z</time>
      </trkpt>
      <trkpt lat="48.74244" lon="1.75122">
        <ele>179.39999389648</ele>
        <time>2012-03-13T11:29:31.000Z</time>
      </trkpt>
      <trkpt lat="48.74256" lon="1.75121">
        <ele>179</ele>
        <time>2012-03-13T11:29:39.000Z</time>
      </trkpt>
      <trkpt lat="48.74267" lon="1.7512">
        <ele>179</ele>
        <time>2012-03-13T11:29:47.000Z</time>
      </trkpt>
      <trkpt lat="48.74268" lon="1.7512">
        <ele>178.80000305176</ele>
        <time>2012-03-13T11:29:48.000Z</time>
      </trkpt>
      <trkpt lat="48.7427" lon="1.75119">
        <ele>178.80000305176</ele>
        <time>2012-03-13T11:29:50.000Z</time>
      </trkpt>
      <trkpt lat="48.74273" lon="1.75116">
        <ele>178.80000305176</ele>
        <time>2012-03-13T11:29:53.000Z</time>
      </trkpt>
      <trkpt lat="48.74289" lon="1.75114">
        <ele>178.60000610352</ele>
        <time>2012-03-13T11:30:03.000Z</time>
      </trkpt>
      <trkpt lat="48.74297" lon="1.75114">
        <ele>178.60000610352</ele>
        <time>2012-03-13T11:30:09.000Z</time>
      </trkpt>
      <trkpt lat="48.74305" lon="1.75113">
        <ele>178.39999389648</ele>
        <time>2012-03-13T11:30:15.000Z</time>
      </trkpt>
      <trkpt lat="48.74317" lon="1.75111">
        <ele>178.19999694824</ele>
        <time>2012-03-13T11:30:23.000Z</time>
      </trkpt>
      <trkpt lat="48.74326" lon="1.75111">
        <ele>178.19999694824</ele>
        <time>2012-03-13T11:30:29.000Z</time>
      </trkpt>
      <trkpt lat="48.74338" lon="1.75109">
        <ele>178</ele>
        <time>2012-03-13T11:30:36.000Z</time>
      </trkpt>
      <trkpt lat="48.7434" lon="1.75109">
        <ele>178</ele>
        <time>2012-03-13T11:30:37.000Z</time>
      </trkpt>
      <trkpt lat="48.74344" lon="1.75112">
        <ele>178</ele>
        <time>2012-03-13T11:30:43.000Z</time>
      </trkpt>
      <trkpt lat="48.74351" lon="1.75111">
        <ele>178</ele>
        <time>2012-03-13T11:30:48.000Z</time>
      </trkpt>
      <trkpt lat="48.74363" lon="1.75109">
        <ele>178.19999694824</ele>
        <time>2012-03-13T11:30:58.000Z</time>
      </trkpt>
      <trkpt lat="48.74377" lon="1.75107">
        <ele>178.39999389648</ele>
        <time>2012-03-13T11:31:08.000Z</time>
      </trkpt>
      <trkpt lat="48.74387" lon="1.75107">
        <ele>178.39999389648</ele>
        <time>2012-03-13T11:31:15.000Z</time>
      </trkpt>
      <trkpt lat="48.74394" lon="1.7511">
        <ele>178.39999389648</ele>
        <time>2012-03-13T11:31:20.000Z</time>
      </trkpt>
      <trkpt lat="48.74403" lon="1.75108">
        <ele>178.39999389648</ele>
        <time>2012-03-13T11:31:26.000Z</time>
      </trkpt>
      <trkpt lat="48.74413" lon="1.75103">
        <ele>178.80000305176</ele>
        <time>2012-03-13T11:31:34.000Z</time>
      </trkpt>
      <trkpt lat="48.74427" lon="1.75101">
        <ele>178.80000305176</ele>
        <time>2012-03-13T11:31:42.000Z</time>
      </trkpt>
      <trkpt lat="48.74442" lon="1.75101">
        <ele>178.80000305176</ele>
        <time>2012-03-13T11:31:52.000Z</time>
      </trkpt>
      <trkpt lat="48.74445" lon="1.75103">
        <ele>178.60000610352</ele>
        <time>2012-03-13T11:31:57.000Z</time>
      </trkpt>
      <trkpt lat="48.74449" lon="1.75105">
        <ele>178.39999389648</ele>
        <time>2012-03-13T11:32:01.000Z</time>
      </trkpt>
      <trkpt lat="48.74458" lon="1.75113">
        <ele>178</ele>
        <time>2012-03-13T11:32:06.000Z</time>
      </trkpt>
      <trkpt lat="48.74466" lon="1.75119">
        <ele>177.60000610352</ele>
        <time>2012-03-13T11:32:12.000Z</time>
      </trkpt>
      <trkpt lat="48.74473" lon="1.75124">
        <ele>177.19999694824</ele>
        <time>2012-03-13T11:32:18.000Z</time>
      </trkpt>
      <trkpt lat="48.74478" lon="1.75125">
        <ele>177.19999694824</ele>
        <time>2012-03-13T11:32:20.000Z</time>
      </trkpt>
      <trkpt lat="48.74488" lon="1.75133">
        <ele>176.60000610352</ele>
        <time>2012-03-13T11:32:28.000Z</time>
      </trkpt>
      <trkpt lat="48.74494" lon="1.75143">
        <ele>176.19999694824</ele>
        <time>2012-03-13T11:32:34.000Z</time>
      </trkpt>
      <trkpt lat="48.74497" lon="1.75153">
        <ele>175.60000610352</ele>
        <time>2012-03-13T11:32:40.000Z</time>
      </trkpt>
      <trkpt lat="48.74501" lon="1.75157">
        <ele>175.39999389648</ele>
        <time>2012-03-13T11:32:44.000Z</time>
      </trkpt>
      <trkpt lat="48.74502" lon="1.7516">
        <ele>175.19999694824</ele>
        <time>2012-03-13T11:32:46.000Z</time>
      </trkpt>
      <trkpt lat="48.74507" lon="1.75166">
        <ele>174.39999389648</ele>
        <time>2012-03-13T11:32:51.000Z</time>
      </trkpt>
      <trkpt lat="48.74517" lon="1.75178">
        <ele>172.80000305176</ele>
        <time>2012-03-13T11:33:01.000Z</time>
      </trkpt>
      <trkpt lat="48.74524" lon="1.75185">
        <ele>171.60000610352</ele>
        <time>2012-03-13T11:33:08.000Z</time>
      </trkpt>
      <trkpt lat="48.74529" lon="1.7519">
        <ele>170.80000305176</ele>
        <time>2012-03-13T11:33:14.000Z</time>
      </trkpt>
      <trkpt lat="48.74539" lon="1.75199">
        <ele>169.19999694824</ele>
        <time>2012-03-13T11:33:22.000Z</time>
      </trkpt>
      <trkpt lat="48.74548" lon="1.75209">
        <ele>167.80000305176</ele>
        <time>2012-03-13T11:33:29.000Z</time>
      </trkpt>
      <trkpt lat="48.74558" lon="1.75219">
        <ele>166.39999389648</ele>
        <time>2012-03-13T11:33:37.000Z</time>
      </trkpt>
      <trkpt lat="48.74566" lon="1.75229">
        <ele>165</ele>
        <time>2012-03-13T11:33:45.000Z</time>
      </trkpt>
      <trkpt lat="48.7457" lon="1.75233">
        <ele>164.39999389648</ele>
        <time>2012-03-13T11:33:49.000Z</time>
      </trkpt>
      <trkpt lat="48.74575" lon="1.75233">
        <ele>163.80000305176</ele>
        <time>2012-03-13T11:33:53.000Z</time>
      </trkpt>
      <trkpt lat="48.74578" lon="1.75235">
        <ele>163.39999389648</ele>
        <time>2012-03-13T11:33:58.000Z</time>
      </trkpt>
      <trkpt lat="48.74583" lon="1.75238">
        <ele>162.80000305176</ele>
        <time>2012-03-13T11:34:03.000Z</time>
      </trkpt>
      <trkpt lat="48.7459" lon="1.75244">
        <ele>161.80000305176</ele>
        <time>2012-03-13T11:34:09.000Z</time>
      </trkpt>
      <trkpt lat="48.74599" lon="1.75253">
        <ele>161</ele>
        <time>2012-03-13T11:34:18.000Z</time>
      </trkpt>
      <trkpt lat="48.74606" lon="1.75262">
        <ele>160.19999694824</ele>
        <time>2012-03-13T11:34:25.000Z</time>
      </trkpt>
      <trkpt lat="48.74614" lon="1.75272">
        <ele>159.39999389648</ele>
        <time>2012-03-13T11:34:32.000Z</time>
      </trkpt>
      <trkpt lat="48.7462" lon="1.75279">
        <ele>158.80000305176</ele>
        <time>2012-03-13T11:34:38.000Z</time>
      </trkpt>
      <trkpt lat="48.74625" lon="1.75283">
        <ele>158.19999694824</ele>
        <time>2012-03-13T11:34:43.000Z</time>
      </trkpt>
      <trkpt lat="48.74632" lon="1.75288">
        <ele>157.80000305176</ele>
        <time>2012-03-13T11:34:48.000Z</time>
      </trkpt>
      <trkpt lat="48.74642" lon="1.75295">
        <ele>157</ele>
        <time>2012-03-13T11:34:55.000Z</time>
      </trkpt>
      <trkpt lat="48.74652" lon="1.75303">
        <ele>156.39999389648</ele>
        <time>2012-03-13T11:35:02.000Z</time>
      </trkpt>
      <trkpt lat="48.74664" lon="1.75312">
        <ele>155.60000610352</ele>
        <time>2012-03-13T11:35:10.000Z</time>
      </trkpt>
      <trkpt lat="48.74675" lon="1.75321">
        <ele>155</ele>
        <time>2012-03-13T11:35:17.000Z</time>
      </trkpt>
      <trkpt lat="48.74687" lon="1.75329">
        <ele>154.39999389648</ele>
        <time>2012-03-13T11:35:25.000Z</time>
      </trkpt>
      <trkpt lat="48.74691" lon="1.75333">
        <ele>154.19999694824</ele>
        <time>2012-03-13T11:35:30.000Z</time>
      </trkpt>
      <trkpt lat="48.747" lon="1.75339">
        <ele>153.80000305176</ele>
        <time>2012-03-13T11:35:37.000Z</time>
      </trkpt>
      <trkpt lat="48.74709" lon="1.75353">
        <ele>153.39999389648</ele>
        <time>2012-03-13T11:35:47.000Z</time>
      </trkpt>
      <trkpt lat="48.7472" lon="1.75363">
        <ele>153.19999694824</ele>
        <time>2012-03-13T11:35:56.000Z</time>
      </trkpt>
      <trkpt lat="48.74727" lon="1.75373">
        <ele>153</ele>
        <time>2012-03-13T11:36:04.000Z</time>
      </trkpt>
      <trkpt lat="48.74734" lon="1.75382">
        <ele>153</ele>
        <time>2012-03-13T11:36:12.000Z</time>
      </trkpt>
      <trkpt lat="48.74742" lon="1.75391">
        <ele>152.80000305176</ele>
        <time>2012-03-13T11:36:20.000Z</time>
      </trkpt>
      <trkpt lat="48.74752" lon="1.75403">
        <ele>152.80000305176</ele>
        <time>2012-03-13T11:36:29.000Z</time>
      </trkpt>
      <trkpt lat="48.7476" lon="1.75408">
        <ele>153.19999694824</ele>
        <time>2012-03-13T11:36:35.000Z</time>
      </trkpt>
      <trkpt lat="48.74764" lon="1.75414">
        <ele>153.19999694824</ele>
        <time>2012-03-13T11:36:39.000Z</time>
      </trkpt>
      <trkpt lat="48.74774" lon="1.75424">
        <ele>153.60000610352</ele>
        <time>2012-03-13T11:36:48.000Z</time>
      </trkpt>
      <trkpt lat="48.74785" lon="1.75433">
        <ele>153.80000305176</ele>
        <time>2012-03-13T11:36:56.000Z</time>
      </trkpt>
      <trkpt lat="48.74794" lon="1.75443">
        <ele>154</ele>
        <time>2012-03-13T11:37:04.000Z</time>
      </trkpt>
      <trkpt lat="48.74802" lon="1.75457">
        <ele>154.39999389648</ele>
        <time>2012-03-13T11:37:13.000Z</time>
      </trkpt>
      <trkpt lat="48.74804" lon="1.75459">
        <ele>154.60000610352</ele>
        <time>2012-03-13T11:37:15.000Z</time>
      </trkpt>
      <trkpt lat="48.74806" lon="1.75469">
        <ele>154.80000305176</ele>
        <time>2012-03-13T11:37:20.000Z</time>
      </trkpt>
      <trkpt lat="48.74812" lon="1.75485">
        <ele>155.39999389648</ele>
        <time>2012-03-13T11:37:29.000Z</time>
      </trkpt>
      <trkpt lat="48.74814" lon="1.75491">
        <ele>155.60000610352</ele>
        <time>2012-03-13T11:37:32.000Z</time>
      </trkpt>
      <trkpt lat="48.74816" lon="1.75495">
        <ele>155.60000610352</ele>
        <time>2012-03-13T11:37:35.000Z</time>
      </trkpt>
      <trkpt lat="48.74819" lon="1.75505">
        <ele>156.39999389648</ele>
        <time>2012-03-13T11:37:42.000Z</time>
      </trkpt>
      <trkpt lat="48.74819" lon="1.75505">
        <ele>156.39999389648</ele>
        <time>2012-03-13T11:37:43.000Z</time>
      </trkpt>
      <trkpt lat="48.74825" lon="1.75507">
        <ele>157.19999694824</ele>
        <time>2012-03-13T11:37:50.000Z</time>
      </trkpt>
      <trkpt lat="48.74827" lon="1.75517">
        <ele>158.39999389648</ele>
        <time>2012-03-13T11:37:54.000Z</time>
      </trkpt>
      <trkpt lat="48.74829" lon="1.7552">
        <ele>159</ele>
        <time>2012-03-13T11:37:56.000Z</time>
      </trkpt>
      <trkpt lat="48.74834" lon="1.75529">
        <ele>160.60000610352</ele>
        <time>2012-03-13T11:38:01.000Z</time>
      </trkpt>
      <trkpt lat="48.74836" lon="1.75533">
        <ele>161.60000610352</ele>
        <time>2012-03-13T11:38:04.000Z</time>
      </trkpt>
      <trkpt lat="48.74843" lon="1.75537">
        <ele>163.60000610352</ele>
        <time>2012-03-13T11:38:10.000Z</time>
      </trkpt>
      <trkpt lat="48.74853" lon="1.75536">
        <ele>166</ele>
        <time>2012-03-13T11:38:17.000Z</time>
      </trkpt>
      <trkpt lat="48.74868" lon="1.75534">
        <ele>169</ele>
        <time>2012-03-13T11:38:25.000Z</time>
      </trkpt>
      <trkpt lat="48.74877" lon="1.75539">
        <ele>171.60000610352</ele>
        <time>2012-03-13T11:38:32.000Z</time>
      </trkpt>
      <trkpt lat="48.74886" lon="1.75545">
        <ele>174.19999694824</ele>
        <time>2012-03-13T11:38:40.000Z</time>
      </trkpt>
      <trkpt lat="48.74888" lon="1.75559">
        <ele>176</ele>
        <time>2012-03-13T11:38:48.000Z</time>
      </trkpt>
      <trkpt lat="48.74888" lon="1.75569">
        <ele>176.80000305176</ele>
        <time>2012-03-13T11:38:53.000Z</time>
      </trkpt>
      <trkpt lat="48.7489" lon="1.75578">
        <ele>178</ele>
        <time>2012-03-13T11:38:58.000Z</time>
      </trkpt>
      <trkpt lat="48.74887" lon="1.75594">
        <ele>178</ele>
        <time>2012-03-13T11:39:07.000Z</time>
      </trkpt>
      <trkpt lat="48.74892" lon="1.75603">
        <ele>179.19999694824</ele>
        <time>2012-03-13T11:39:14.000Z</time>
      </trkpt>
      <trkpt lat="48.74899" lon="1.756">
        <ele>180.60000610352</ele>
        <time>2012-03-13T11:39:22.000Z</time>
      </trkpt>
      <trkpt lat="48.74903" lon="1.75593">
        <ele>181.39999389648</ele>
        <time>2012-03-13T11:39:27.000Z</time>
      </trkpt>
      <trkpt lat="48.74913" lon="1.75587">
        <ele>183.39999389648</ele>
        <time>2012-03-13T11:39:36.000Z</time>
      </trkpt>
      <trkpt lat="48.74918" lon="1.75584">
        <ele>184.19999694824</ele>
        <time>2012-03-13T11:39:42.000Z</time>
      </trkpt>
      <trkpt lat="48.74923" lon="1.75587">
        <ele>184.60000610352</ele>
        <time>2012-03-13T11:39:48.000Z</time>
      </trkpt>
      <trkpt lat="48.74925" lon="1.75589">
        <ele>184.80000305176</ele>
        <time>2012-03-13T11:39:53.000Z</time>
      </trkpt>
      <trkpt lat="48.74946" lon="1.75606">
        <ele>186.60000610352</ele>
        <time>2012-03-13T11:40:31.000Z</time>
      </trkpt>
      <trkpt lat="48.74951" lon="1.75618">
        <ele>187.19999694824</ele>
        <time>2012-03-13T11:40:38.000Z</time>
      </trkpt>
      <trkpt lat="48.74957" lon="1.75629">
        <ele>187.60000610352</ele>
        <time>2012-03-13T11:40:46.000Z</time>
      </trkpt>
      <trkpt lat="48.74963" lon="1.75633">
        <ele>188.19999694824</ele>
        <time>2012-03-13T11:40:50.000Z</time>
      </trkpt>
      <trkpt lat="48.74968" lon="1.75641">
        <ele>188.60000610352</ele>
        <time>2012-03-13T11:40:57.000Z</time>
      </trkpt>
      <trkpt lat="48.74974" lon="1.75651">
        <ele>189.19999694824</ele>
        <time>2012-03-13T11:41:05.000Z</time>
      </trkpt>
      <trkpt lat="48.7498" lon="1.7566">
        <ele>189.80000305176</ele>
        <time>2012-03-13T11:41:11.000Z</time>
      </trkpt>
      <trkpt lat="48.74984" lon="1.75668">
        <ele>190</ele>
        <time>2012-03-13T11:41:16.000Z</time>
      </trkpt>
      <trkpt lat="48.74992" lon="1.75678">
        <ele>190.19999694824</ele>
        <time>2012-03-13T11:41:23.000Z</time>
      </trkpt>
      <trkpt lat="48.74994" lon="1.75684">
        <ele>190.39999389648</ele>
        <time>2012-03-13T11:41:27.000Z</time>
      </trkpt>
      <trkpt lat="48.74998" lon="1.75696">
        <ele>190.39999389648</ele>
        <time>2012-03-13T11:41:33.000Z</time>
      </trkpt>
      <trkpt lat="48.75005" lon="1.75705">
        <ele>190.60000610352</ele>
        <time>2012-03-13T11:41:40.000Z</time>
      </trkpt>
      <trkpt lat="48.75007" lon="1.75709">
        <ele>190.60000610352</ele>
        <time>2012-03-13T11:41:43.000Z</time>
      </trkpt>
      <trkpt lat="48.7501" lon="1.75715">
        <ele>190.60000610352</ele>
        <time>2012-03-13T11:41:47.000Z</time>
      </trkpt>
      <trkpt lat="48.75011" lon="1.75718">
        <ele>190.60000610352</ele>
        <time>2012-03-13T11:41:49.000Z</time>
      </trkpt>
      <trkpt lat="48.75021" lon="1.75723">
        <ele>190.60000610352</ele>
        <time>2012-03-13T11:41:56.000Z</time>
      </trkpt>
      <trkpt lat="48.75022" lon="1.75724">
        <ele>190.60000610352</ele>
        <time>2012-03-13T11:41:57.000Z</time>
      </trkpt>
      <trkpt lat="48.75026" lon="1.75732">
        <ele>190.80000305176</ele>
        <time>2012-03-13T11:42:02.000Z</time>
      </trkpt>
      <trkpt lat="48.75035" lon="1.75742">
        <ele>190.80000305176</ele>
        <time>2012-03-13T11:42:09.000Z</time>
      </trkpt>
      <trkpt lat="48.75039" lon="1.75749">
        <ele>191</ele>
        <time>2012-03-13T11:42:13.000Z</time>
      </trkpt>
      <trkpt lat="48.75047" lon="1.75761">
        <ele>191</ele>
        <time>2012-03-13T11:42:21.000Z</time>
      </trkpt>
      <trkpt lat="48.75053" lon="1.75767">
        <ele>191.19999694824</ele>
        <time>2012-03-13T11:42:27.000Z</time>
      </trkpt>
      <trkpt lat="48.75063" lon="1.75777">
        <ele>191.39999389648</ele>
        <time>2012-03-13T11:42:35.000Z</time>
      </trkpt>
      <trkpt lat="48.7507" lon="1.7578">
        <ele>191.60000610352</ele>
        <time>2012-03-13T11:42:43.000Z</time>
      </trkpt>
      <trkpt lat="48.75074" lon="1.75781">
        <ele>191.80000305176</ele>
        <time>2012-03-13T11:42:51.000Z</time>
      </trkpt>
      <trkpt lat="48.75078" lon="1.75787">
        <ele>191.80000305176</ele>
        <time>2012-03-13T11:42:56.000Z</time>
      </trkpt>
      <trkpt lat="48.75079" lon="1.75787">
        <ele>191.80000305176</ele>
        <time>2012-03-13T11:42:57.000Z</time>
      </trkpt>
      <trkpt lat="48.75084" lon="1.7579">
        <ele>192</ele>
        <time>2012-03-13T11:43:02.000Z</time>
      </trkpt>
      <trkpt lat="48.75092" lon="1.75796">
        <ele>192</ele>
        <time>2012-03-13T11:43:08.000Z</time>
      </trkpt>
      <trkpt lat="48.751" lon="1.75805">
        <ele>192</ele>
        <time>2012-03-13T11:43:15.000Z</time>
      </trkpt>
      <trkpt lat="48.75111" lon="1.75813">
        <ele>192</ele>
        <time>2012-03-13T11:43:23.000Z</time>
      </trkpt>
      <trkpt lat="48.75122" lon="1.75817">
        <ele>192</ele>
        <time>2012-03-13T11:43:30.000Z</time>
      </trkpt>
      <trkpt lat="48.75133" lon="1.75824">
        <ele>192</ele>
        <time>2012-03-13T11:43:37.000Z</time>
      </trkpt>
      <trkpt lat="48.75135" lon="1.75833">
        <ele>192</ele>
        <time>2012-03-13T11:43:42.000Z</time>
      </trkpt>
      <trkpt lat="48.7514" lon="1.7584">
        <ele>192</ele>
        <time>2012-03-13T11:43:47.000Z</time>
      </trkpt>
      <trkpt lat="48.75147" lon="1.75845">
        <ele>192.19999694824</ele>
        <time>2012-03-13T11:43:54.000Z</time>
      </trkpt>
      <trkpt lat="48.75154" lon="1.75849">
        <ele>192.19999694824</ele>
        <time>2012-03-13T11:44:00.000Z</time>
      </trkpt>
      <trkpt lat="48.75162" lon="1.75852">
        <ele>192.19999694824</ele>
        <time>2012-03-13T11:44:04.000Z</time>
      </trkpt>
      <trkpt lat="48.75172" lon="1.75858">
        <ele>192.39999389648</ele>
        <time>2012-03-13T11:44:11.000Z</time>
      </trkpt>
      <trkpt lat="48.75178" lon="1.75864">
        <ele>192.60000610352</ele>
        <time>2012-03-13T11:44:17.000Z</time>
      </trkpt>
      <trkpt lat="48.7518" lon="1.75865">
        <ele>192.60000610352</ele>
        <time>2012-03-13T11:44:19.000Z</time>
      </trkpt>
      <trkpt lat="48.75188" lon="1.75871">
        <ele>192.80000305176</ele>
        <time>2012-03-13T11:44:27.000Z</time>
      </trkpt>
      <trkpt lat="48.75197" lon="1.75877">
        <ele>192.80000305176</ele>
        <time>2012-03-13T11:44:34.000Z</time>
      </trkpt>
      <trkpt lat="48.75205" lon="1.75884">
        <ele>193</ele>
        <time>2012-03-13T11:44:41.000Z</time>
      </trkpt>
      <trkpt lat="48.75208" lon="1.75886">
        <ele>193</ele>
        <time>2012-03-13T11:44:43.000Z</time>
      </trkpt>
      <trkpt lat="48.75212" lon="1.75889">
        <ele>193</ele>
        <time>2012-03-13T11:44:48.000Z</time>
      </trkpt>
      <trkpt lat="48.75219" lon="1.75893">
        <ele>193</ele>
        <time>2012-03-13T11:44:52.000Z</time>
      </trkpt>
      <trkpt lat="48.75225" lon="1.759">
        <ele>193</ele>
        <time>2012-03-13T11:44:58.000Z</time>
      </trkpt>
      <trkpt lat="48.75236" lon="1.75908">
        <ele>193</ele>
        <time>2012-03-13T11:45:06.000Z</time>
      </trkpt>
      <trkpt lat="48.75239" lon="1.75913">
        <ele>193</ele>
        <time>2012-03-13T11:45:10.000Z</time>
      </trkpt>
      <trkpt lat="48.75246" lon="1.7592">
        <ele>193</ele>
        <time>2012-03-13T11:45:16.000Z</time>
      </trkpt>
      <trkpt lat="48.7526" lon="1.75927">
        <ele>193.39999389648</ele>
        <time>2012-03-13T11:45:24.000Z</time>
      </trkpt>
      <trkpt lat="48.75268" lon="1.75931">
        <ele>193.60000610352</ele>
        <time>2012-03-13T11:45:29.000Z</time>
      </trkpt>
      <trkpt lat="48.75276" lon="1.75935">
        <ele>193.80000305176</ele>
        <time>2012-03-13T11:45:35.000Z</time>
      </trkpt>
      <trkpt lat="48.75282" lon="1.75941">
        <ele>194</ele>
        <time>2012-03-13T11:45:41.000Z</time>
      </trkpt>
      <trkpt lat="48.75293" lon="1.75949">
        <ele>194.19999694824</ele>
        <time>2012-03-13T11:45:49.000Z</time>
      </trkpt>
      <trkpt lat="48.75302" lon="1.75955">
        <ele>194.60000610352</ele>
        <time>2012-03-13T11:45:55.000Z</time>
      </trkpt>
      <trkpt lat="48.75307" lon="1.75957">
        <ele>194.60000610352</ele>
        <time>2012-03-13T11:45:59.000Z</time>
      </trkpt>
      <trkpt lat="48.75311" lon="1.75963">
        <ele>194.80000305176</ele>
        <time>2012-03-13T11:46:04.000Z</time>
      </trkpt>
      <trkpt lat="48.75325" lon="1.75972">
        <ele>195.19999694824</ele>
        <time>2012-03-13T11:46:13.000Z</time>
      </trkpt>
      <trkpt lat="48.75334" lon="1.75979">
        <ele>195.39999389648</ele>
        <time>2012-03-13T11:46:19.000Z</time>
      </trkpt>
      <trkpt lat="48.75341" lon="1.75983">
        <ele>195.60000610352</ele>
        <time>2012-03-13T11:46:23.000Z</time>
      </trkpt>
      <trkpt lat="48.75353" lon="1.75991">
        <ele>195.60000610352</ele>
        <time>2012-03-13T11:46:31.000Z</time>
      </trkpt>
      <trkpt lat="48.7536" lon="1.75994">
        <ele>195.60000610352</ele>
        <time>2012-03-13T11:46:37.000Z</time>
      </trkpt>
      <trkpt lat="48.75365" lon="1.76002">
        <ele>195.60000610352</ele>
        <time>2012-03-13T11:46:44.000Z</time>
      </trkpt>
      <trkpt lat="48.75374" lon="1.76008">
        <ele>195.39999389648</ele>
        <time>2012-03-13T11:46:51.000Z</time>
      </trkpt>
      <trkpt lat="48.75383" lon="1.76012">
        <ele>195.39999389648</ele>
        <time>2012-03-13T11:46:57.000Z</time>
      </trkpt>
      <trkpt lat="48.75393" lon="1.76019">
        <ele>195.19999694824</ele>
        <time>2012-03-13T11:47:04.000Z</time>
      </trkpt>
      <trkpt lat="48.75398" lon="1.76024">
        <ele>195.19999694824</ele>
        <time>2012-03-13T11:47:08.000Z</time>
      </trkpt>
      <trkpt lat="48.75399" lon="1.76026">
        <ele>195.19999694824</ele>
        <time>2012-03-13T11:47:10.000Z</time>
      </trkpt>
      <trkpt lat="48.75401" lon="1.76021">
        <ele>195.19999694824</ele>
        <time>2012-03-13T11:47:14.000Z</time>
      </trkpt>
      <trkpt lat="48.75401" lon="1.76017">
        <ele>195.19999694824</ele>
        <time>2012-03-13T11:47:16.000Z</time>
      </trkpt>
      <trkpt lat="48.75401" lon="1.76007">
        <ele>195.19999694824</ele>
        <time>2012-03-13T11:47:20.000Z</time>
      </trkpt>
      <trkpt lat="48.75408" lon="1.75985">
        <ele>195</ele>
        <time>2012-03-13T11:47:26.000Z</time>
      </trkpt>
      <trkpt lat="48.75415" lon="1.75963">
        <ele>194.60000610352</ele>
        <time>2012-03-13T11:47:31.000Z</time>
      </trkpt>
      <trkpt lat="48.75419" lon="1.75955">
        <ele>194.39999389648</ele>
        <time>2012-03-13T11:47:35.000Z</time>
      </trkpt>
      <trkpt lat="48.7542" lon="1.75951">
        <ele>194.39999389648</ele>
        <time>2012-03-13T11:47:37.000Z</time>
      </trkpt>
      <trkpt lat="48.75423" lon="1.75938">
        <ele>194.19999694824</ele>
        <time>2012-03-13T11:47:43.000Z</time>
      </trkpt>
      <trkpt lat="48.75424" lon="1.75934">
        <ele>194.19999694824</ele>
        <time>2012-03-13T11:47:45.000Z</time>
      </trkpt>
      <trkpt lat="48.75427" lon="1.7592">
        <ele>194</ele>
        <time>2012-03-13T11:47:52.000Z</time>
      </trkpt>
      <trkpt lat="48.75428" lon="1.75918">
        <ele>194</ele>
        <time>2012-03-13T11:47:53.000Z</time>
      </trkpt>
      <trkpt lat="48.7543" lon="1.75897">
        <ele>194</ele>
        <time>2012-03-13T11:48:02.000Z</time>
      </trkpt>
      <trkpt lat="48.75432" lon="1.75895">
        <ele>194</ele>
        <time>2012-03-13T11:48:04.000Z</time>
      </trkpt>
      <trkpt lat="48.75439" lon="1.75883">
        <ele>194.19999694824</ele>
        <time>2012-03-13T11:48:11.000Z</time>
      </trkpt>
      <trkpt lat="48.7544" lon="1.75876">
        <ele>194.19999694824</ele>
        <time>2012-03-13T11:48:14.000Z</time>
      </trkpt>
      <trkpt lat="48.75444" lon="1.75864">
        <ele>194.19999694824</ele>
        <time>2012-03-13T11:48:21.000Z</time>
      </trkpt>
      <trkpt lat="48.75445" lon="1.75862">
        <ele>194.19999694824</ele>
        <time>2012-03-13T11:48:22.000Z</time>
      </trkpt>
      <trkpt lat="48.7545" lon="1.75852">
        <ele>194.39999389648</ele>
        <time>2012-03-13T11:48:28.000Z</time>
      </trkpt>
      <trkpt lat="48.75454" lon="1.75841">
        <ele>194.39999389648</ele>
        <time>2012-03-13T11:48:34.000Z</time>
      </trkpt>
      <trkpt lat="48.75456" lon="1.75826">
        <ele>194.60000610352</ele>
        <time>2012-03-13T11:48:41.000Z</time>
      </trkpt>
      <trkpt lat="48.75457" lon="1.75823">
        <ele>194.60000610352</ele>
        <time>2012-03-13T11:48:43.000Z</time>
      </trkpt>
      <trkpt lat="48.75462" lon="1.75812">
        <ele>194.60000610352</ele>
        <time>2012-03-13T11:48:49.000Z</time>
      </trkpt>
      <trkpt lat="48.75465" lon="1.75796">
        <ele>194.80000305176</ele>
        <time>2012-03-13T11:48:56.000Z</time>
      </trkpt>
      <trkpt lat="48.75468" lon="1.75782">
        <ele>194.80000305176</ele>
        <time>2012-03-13T11:49:03.000Z</time>
      </trkpt>
      <trkpt lat="48.75472" lon="1.75772">
        <ele>195</ele>
        <time>2012-03-13T11:49:09.000Z</time>
      </trkpt>
      <trkpt lat="48.75477" lon="1.75758">
        <ele>195</ele>
        <time>2012-03-13T11:49:16.000Z</time>
      </trkpt>
      <trkpt lat="48.75478" lon="1.75755">
        <ele>195</ele>
        <time>2012-03-13T11:49:17.000Z</time>
      </trkpt>
      <trkpt lat="48.75484" lon="1.75743">
        <ele>195</ele>
        <time>2012-03-13T11:49:24.000Z</time>
      </trkpt>
      <trkpt lat="48.75486" lon="1.75739">
        <ele>195</ele>
        <time>2012-03-13T11:49:26.000Z</time>
      </trkpt>
      <trkpt lat="48.75487" lon="1.75728">
        <ele>195</ele>
        <time>2012-03-13T11:49:30.000Z</time>
      </trkpt>
      <trkpt lat="48.7549" lon="1.75714">
        <ele>195</ele>
        <time>2012-03-13T11:49:33.000Z</time>
      </trkpt>
      <trkpt lat="48.755" lon="1.75685">
        <ele>195</ele>
        <time>2012-03-13T11:49:39.000Z</time>
      </trkpt>
      <trkpt lat="48.75509" lon="1.75644">
        <ele>194.60000610352</ele>
        <time>2012-03-13T11:49:46.000Z</time>
      </trkpt>
      <trkpt lat="48.75517" lon="1.75613">
        <ele>194.19999694824</ele>
        <time>2012-03-13T11:49:52.000Z</time>
      </trkpt>
      <trkpt lat="48.75525" lon="1.75591">
        <ele>193.80000305176</ele>
        <time>2012-03-13T11:49:57.000Z</time>
      </trkpt>
      <trkpt lat="48.75533" lon="1.75567">
        <ele>193</ele>
        <time>2012-03-13T11:50:02.000Z</time>
      </trkpt>
      <trkpt lat="48.75543" lon="1.75539">
        <ele>191.80000305176</ele>
        <time>2012-03-13T11:50:08.000Z</time>
      </trkpt>
      <trkpt lat="48.75552" lon="1.75514">
        <ele>190.60000610352</ele>
        <time>2012-03-13T11:50:14.000Z</time>
      </trkpt>
      <trkpt lat="48.75559" lon="1.75493">
        <ele>190</ele>
        <time>2012-03-13T11:50:19.000Z</time>
      </trkpt>
      <trkpt lat="48.75564" lon="1.75472">
        <ele>190.19999694824</ele>
        <time>2012-03-13T11:50:24.000Z</time>
      </trkpt>
      <trkpt lat="48.75572" lon="1.75446">
        <ele>190.60000610352</ele>
        <time>2012-03-13T11:50:29.000Z</time>
      </trkpt>
      <trkpt lat="48.7558" lon="1.75422">
        <ele>191</ele>
        <time>2012-03-13T11:50:34.000Z</time>
      </trkpt>
      <trkpt lat="48.75587" lon="1.75399">
        <ele>191.19999694824</ele>
        <time>2012-03-13T11:50:39.000Z</time>
      </trkpt>
      <trkpt lat="48.75595" lon="1.75375">
        <ele>191.19999694824</ele>
        <time>2012-03-13T11:50:44.000Z</time>
      </trkpt>
      <trkpt lat="48.75605" lon="1.75348">
        <ele>191.39999389648</ele>
        <time>2012-03-13T11:50:50.000Z</time>
      </trkpt>
      <trkpt lat="48.75615" lon="1.75316">
        <ele>191.19999694824</ele>
        <time>2012-03-13T11:50:57.000Z</time>
      </trkpt>
      <trkpt lat="48.75624" lon="1.75289">
        <ele>191.19999694824</ele>
        <time>2012-03-13T11:51:03.000Z</time>
      </trkpt>
      <trkpt lat="48.75632" lon="1.75262">
        <ele>191.39999389648</ele>
        <time>2012-03-13T11:51:09.000Z</time>
      </trkpt>
      <trkpt lat="48.7564" lon="1.75222">
        <ele>191.80000305176</ele>
        <time>2012-03-13T11:51:17.000Z</time>
      </trkpt>
      <trkpt lat="48.75653" lon="1.75183">
        <ele>192</ele>
        <time>2012-03-13T11:51:25.000Z</time>
      </trkpt>
      <trkpt lat="48.75663" lon="1.75148">
        <ele>192.19999694824</ele>
        <time>2012-03-13T11:51:32.000Z</time>
      </trkpt>
      <trkpt lat="48.75671" lon="1.75119">
        <ele>192.39999389648</ele>
        <time>2012-03-13T11:51:38.000Z</time>
      </trkpt>
      <trkpt lat="48.7568" lon="1.75099">
        <ele>192.60000610352</ele>
        <time>2012-03-13T11:51:43.000Z</time>
      </trkpt>
      <trkpt lat="48.75689" lon="1.75068">
        <ele>192.19999694824</ele>
        <time>2012-03-13T11:51:50.000Z</time>
      </trkpt>
      <trkpt lat="48.75698" lon="1.75043">
        <ele>191.60000610352</ele>
        <time>2012-03-13T11:51:56.000Z</time>
      </trkpt>
      <trkpt lat="48.75705" lon="1.75018">
        <ele>191.19999694824</ele>
        <time>2012-03-13T11:52:02.000Z</time>
      </trkpt>
      <trkpt lat="48.75709" lon="1.75002">
        <ele>191</ele>
        <time>2012-03-13T11:52:05.000Z</time>
      </trkpt>
      <trkpt lat="48.75718" lon="1.74969">
        <ele>191</ele>
        <time>2012-03-13T11:52:12.000Z</time>
      </trkpt>
      <trkpt lat="48.75729" lon="1.74937">
        <ele>191.39999389648</ele>
        <time>2012-03-13T11:52:19.000Z</time>
      </trkpt>
      <trkpt lat="48.75734" lon="1.7491">
        <ele>191.80000305176</ele>
        <time>2012-03-13T11:52:24.000Z</time>
      </trkpt>
      <trkpt lat="48.75744" lon="1.74884">
        <ele>192.19999694824</ele>
        <time>2012-03-13T11:52:30.000Z</time>
      </trkpt>
      <trkpt lat="48.7575" lon="1.74861">
        <ele>192.60000610352</ele>
        <time>2012-03-13T11:52:35.000Z</time>
      </trkpt>
      <trkpt lat="48.75759" lon="1.74828">
        <ele>193</ele>
        <time>2012-03-13T11:52:42.000Z</time>
      </trkpt>
      <trkpt lat="48.75769" lon="1.74803">
        <ele>193</ele>
        <time>2012-03-13T11:52:48.000Z</time>
      </trkpt>
      <trkpt lat="48.75776" lon="1.74781">
        <ele>192.80000305176</ele>
        <time>2012-03-13T11:52:53.000Z</time>
      </trkpt>
      <trkpt lat="48.75782" lon="1.74756">
        <ele>192.39999389648</ele>
        <time>2012-03-13T11:52:58.000Z</time>
      </trkpt>
      <trkpt lat="48.75789" lon="1.74734">
        <ele>191.80000305176</ele>
        <time>2012-03-13T11:53:03.000Z</time>
      </trkpt>
      <trkpt lat="48.75794" lon="1.74715">
        <ele>191.39999389648</ele>
        <time>2012-03-13T11:53:07.000Z</time>
      </trkpt>
      <trkpt lat="48.75799" lon="1.74692">
        <ele>190.80000305176</ele>
        <time>2012-03-13T11:53:12.000Z</time>
      </trkpt>
      <trkpt lat="48.75806" lon="1.7467">
        <ele>190.39999389648</ele>
        <time>2012-03-13T11:53:17.000Z</time>
      </trkpt>
      <trkpt lat="48.75814" lon="1.74642">
        <ele>190.39999389648</ele>
        <time>2012-03-13T11:53:23.000Z</time>
      </trkpt>
      <trkpt lat="48.7582" lon="1.74617">
        <ele>190.60000610352</ele>
        <time>2012-03-13T11:53:29.000Z</time>
      </trkpt>
      <trkpt lat="48.75828" lon="1.74595">
        <ele>190.80000305176</ele>
        <time>2012-03-13T11:53:34.000Z</time>
      </trkpt>
      <trkpt lat="48.75838" lon="1.74576">
        <ele>190.60000610352</ele>
        <time>2012-03-13T11:53:39.000Z</time>
      </trkpt>
      <trkpt lat="48.75847" lon="1.74555">
        <ele>189.60000610352</ele>
        <time>2012-03-13T11:53:44.000Z</time>
      </trkpt>
      <trkpt lat="48.75854" lon="1.74527">
        <ele>188.80000305176</ele>
        <time>2012-03-13T11:53:50.000Z</time>
      </trkpt>
      <trkpt lat="48.75864" lon="1.74501">
        <ele>188</ele>
        <time>2012-03-13T11:53:56.000Z</time>
      </trkpt>
      <trkpt lat="48.75871" lon="1.74477">
        <ele>187.39999389648</ele>
        <time>2012-03-13T11:54:01.000Z</time>
      </trkpt>
      <trkpt lat="48.75879" lon="1.74447">
        <ele>187</ele>
        <time>2012-03-13T11:54:07.000Z</time>
      </trkpt>
      <trkpt lat="48.75882" lon="1.74432">
        <ele>186.80000305176</ele>
        <time>2012-03-13T11:54:11.000Z</time>
      </trkpt>
      <trkpt lat="48.75884" lon="1.74427">
        <ele>186.80000305176</ele>
        <time>2012-03-13T11:54:13.000Z</time>
      </trkpt>
      <trkpt lat="48.75887" lon="1.74416">
        <ele>186.80000305176</ele>
        <time>2012-03-13T11:54:18.000Z</time>
      </trkpt>
      <trkpt lat="48.75895" lon="1.74404">
        <ele>186.80000305176</ele>
        <time>2012-03-13T11:54:25.000Z</time>
      </trkpt>
      <trkpt lat="48.75898" lon="1.74396">
        <ele>187</ele>
        <time>2012-03-13T11:54:29.000Z</time>
      </trkpt>
      <trkpt lat="48.759" lon="1.74386">
        <ele>187.19999694824</ele>
        <time>2012-03-13T11:54:33.000Z</time>
      </trkpt>
      <trkpt lat="48.75901" lon="1.74384">
        <ele>187.19999694824</ele>
        <time>2012-03-13T11:54:34.000Z</time>
      </trkpt>
      <trkpt lat="48.75903" lon="1.74375">
        <ele>187.39999389648</ele>
        <time>2012-03-13T11:54:39.000Z</time>
      </trkpt>
      <trkpt lat="48.75906" lon="1.74366">
        <ele>187.80000305176</ele>
        <time>2012-03-13T11:54:44.000Z</time>
      </trkpt>
      <trkpt lat="48.75911" lon="1.74352">
        <ele>188.19999694824</ele>
        <time>2012-03-13T11:54:51.000Z</time>
      </trkpt>
      <trkpt lat="48.75917" lon="1.74338">
        <ele>188.80000305176</ele>
        <time>2012-03-13T11:54:59.000Z</time>
      </trkpt>
      <trkpt lat="48.75916" lon="1.74319">
        <ele>189.19999694824</ele>
        <time>2012-03-13T11:55:07.000Z</time>
      </trkpt>
      <trkpt lat="48.75911" lon="1.74318">
        <ele>189</ele>
        <time>2012-03-13T11:55:11.000Z</time>
      </trkpt>
      <trkpt lat="48.75898" lon="1.74318">
        <ele>188.60000610352</ele>
        <time>2012-03-13T11:55:17.000Z</time>
      </trkpt>
      <trkpt lat="48.75885" lon="1.74319">
        <ele>188.19999694824</ele>
        <time>2012-03-13T11:55:23.000Z</time>
      </trkpt>
      <trkpt lat="48.75876" lon="1.74322">
        <ele>188</ele>
        <time>2012-03-13T11:55:28.000Z</time>
      </trkpt>
      <trkpt lat="48.75867" lon="1.74321">
        <ele>187.80000305176</ele>
        <time>2012-03-13T11:55:35.000Z</time>
      </trkpt>
      <trkpt lat="48.75857" lon="1.74322">
        <ele>187.60000610352</ele>
        <time>2012-03-13T11:55:42.000Z</time>
      </trkpt>
      <trkpt lat="48.75849" lon="1.74325">
        <ele>187.39999389648</ele>
        <time>2012-03-13T11:55:47.000Z</time>
      </trkpt>
      <trkpt lat="48.7584" lon="1.74327">
        <ele>187.19999694824</ele>
        <time>2012-03-13T11:55:53.000Z</time>
      </trkpt>
      <trkpt lat="48.7583" lon="1.74331">
        <ele>187.19999694824</ele>
        <time>2012-03-13T11:56:01.000Z</time>
      </trkpt>
      <trkpt lat="48.7582" lon="1.74336">
        <ele>187.60000610352</ele>
        <time>2012-03-13T11:56:08.000Z</time>
      </trkpt>
      <trkpt lat="48.75818" lon="1.74336">
        <ele>187.60000610352</ele>
        <time>2012-03-13T11:56:09.000Z</time>
      </trkpt>
      <trkpt lat="48.75813" lon="1.74339">
        <ele>187.80000305176</ele>
        <time>2012-03-13T11:56:13.000Z</time>
      </trkpt>
      <trkpt lat="48.75801" lon="1.74347">
        <ele>188.39999389648</ele>
        <time>2012-03-13T11:56:21.000Z</time>
      </trkpt>
      <trkpt lat="48.75793" lon="1.74353">
        <ele>188.80000305176</ele>
        <time>2012-03-13T11:56:27.000Z</time>
      </trkpt>
      <trkpt lat="48.75783" lon="1.74357">
        <ele>189.19999694824</ele>
        <time>2012-03-13T11:56:34.000Z</time>
      </trkpt>
      <trkpt lat="48.75776" lon="1.7436">
        <ele>189.60000610352</ele>
        <time>2012-03-13T11:56:39.000Z</time>
      </trkpt>
      <trkpt lat="48.75764" lon="1.74367">
        <ele>190.19999694824</ele>
        <time>2012-03-13T11:56:47.000Z</time>
      </trkpt>
      <trkpt lat="48.7576" lon="1.74368">
        <ele>190.39999389648</ele>
        <time>2012-03-13T11:56:50.000Z</time>
      </trkpt>
      <trkpt lat="48.75751" lon="1.74374">
        <ele>191</ele>
        <time>2012-03-13T11:56:57.000Z</time>
      </trkpt>
      <trkpt lat="48.75743" lon="1.74377">
        <ele>191</ele>
        <time>2012-03-13T11:57:03.000Z</time>
      </trkpt>
      <trkpt lat="48.75734" lon="1.74381">
        <ele>191.19999694824</ele>
        <time>2012-03-13T11:57:09.000Z</time>
      </trkpt>
      <trkpt lat="48.75728" lon="1.74383">
        <ele>191.19999694824</ele>
        <time>2012-03-13T11:57:12.000Z</time>
      </trkpt>
      <trkpt lat="48.75725" lon="1.74385">
        <ele>191.19999694824</ele>
        <time>2012-03-13T11:57:14.000Z</time>
      </trkpt>
      <trkpt lat="48.75721" lon="1.74387">
        <ele>191.19999694824</ele>
        <time>2012-03-13T11:57:18.000Z</time>
      </trkpt>
      <trkpt lat="48.75709" lon="1.74394">
        <ele>191.19999694824</ele>
        <time>2012-03-13T11:57:27.000Z</time>
      </trkpt>
      <trkpt lat="48.757" lon="1.74398">
        <ele>191.19999694824</ele>
        <time>2012-03-13T11:57:33.000Z</time>
      </trkpt>
      <trkpt lat="48.75688" lon="1.74409">
        <ele>191.19999694824</ele>
        <time>2012-03-13T11:57:41.000Z</time>
      </trkpt>
      <trkpt lat="48.75677" lon="1.74417">
        <ele>191.19999694824</ele>
        <time>2012-03-13T11:57:48.000Z</time>
      </trkpt>
      <trkpt lat="48.75666" lon="1.7442">
        <ele>191</ele>
        <time>2012-03-13T11:57:57.000Z</time>
      </trkpt>
      <trkpt lat="48.75658" lon="1.74422">
        <ele>190.39999389648</ele>
        <time>2012-03-13T11:58:03.000Z</time>
      </trkpt>
      <trkpt lat="48.75647" lon="1.74427">
        <ele>189.80000305176</ele>
        <time>2012-03-13T11:58:10.000Z</time>
      </trkpt>
      <trkpt lat="48.75637" lon="1.74434">
        <ele>189.19999694824</ele>
        <time>2012-03-13T11:58:18.000Z</time>
      </trkpt>
      <trkpt lat="48.75627" lon="1.74439">
        <ele>188.60000610352</ele>
        <time>2012-03-13T11:58:25.000Z</time>
      </trkpt>
      <trkpt lat="48.75625" lon="1.74439">
        <ele>188.60000610352</ele>
        <time>2012-03-13T11:58:26.000Z</time>
      </trkpt>
      <trkpt lat="48.75618" lon="1.74444">
        <ele>188.19999694824</ele>
        <time>2012-03-13T11:58:31.000Z</time>
      </trkpt>
      <trkpt lat="48.75607" lon="1.74453">
        <ele>188</ele>
        <time>2012-03-13T11:58:40.000Z</time>
      </trkpt>
      <trkpt lat="48.75598" lon="1.74463">
        <ele>187.80000305176</ele>
        <time>2012-03-13T11:58:46.000Z</time>
      </trkpt>
      <trkpt lat="48.75586" lon="1.74466">
        <ele>187.39999389648</ele>
        <time>2012-03-13T11:58:54.000Z</time>
      </trkpt>
      <trkpt lat="48.75576" lon="1.74472">
        <ele>187.19999694824</ele>
        <time>2012-03-13T11:59:00.000Z</time>
      </trkpt>
      <trkpt lat="48.75565" lon="1.74474">
        <ele>186.60000610352</ele>
        <time>2012-03-13T11:59:07.000Z</time>
      </trkpt>
      <trkpt lat="48.75557" lon="1.74477">
        <ele>186.19999694824</ele>
        <time>2012-03-13T11:59:12.000Z</time>
      </trkpt>
      <trkpt lat="48.75552" lon="1.74481">
        <ele>186.19999694824</ele>
        <time>2012-03-13T11:59:16.000Z</time>
      </trkpt>
      <trkpt lat="48.75539" lon="1.74484">
        <ele>185.60000610352</ele>
        <time>2012-03-13T11:59:25.000Z</time>
      </trkpt>
      <trkpt lat="48.75532" lon="1.74489">
        <ele>185.60000610352</ele>
        <time>2012-03-13T11:59:29.000Z</time>
      </trkpt>
      <trkpt lat="48.75519" lon="1.74495">
        <ele>185.39999389648</ele>
        <time>2012-03-13T11:59:38.000Z</time>
      </trkpt>
      <trkpt lat="48.75509" lon="1.74502">
        <ele>185.60000610352</ele>
        <time>2012-03-13T11:59:45.000Z</time>
      </trkpt>
      <trkpt lat="48.75496" lon="1.7451">
        <ele>185.39999389648</ele>
        <time>2012-03-13T11:59:55.000Z</time>
      </trkpt>
      <trkpt lat="48.75484" lon="1.74518">
        <ele>185.60000610352</ele>
        <time>2012-03-13T12:00:03.000Z</time>
      </trkpt>
      <trkpt lat="48.75477" lon="1.74521">
        <ele>185.60000610352</ele>
        <time>2012-03-13T12:00:10.000Z</time>
      </trkpt>
      <trkpt lat="48.75478" lon="1.7449">
        <ele>183.80000305176</ele>
        <time>2012-03-13T12:00:53.000Z</time>
      </trkpt>
      <trkpt lat="48.75473" lon="1.74474">
        <ele>182.19999694824</ele>
        <time>2012-03-13T12:01:00.000Z</time>
      </trkpt>
      <trkpt lat="48.75472" lon="1.74472">
        <ele>182</ele>
        <time>2012-03-13T12:01:01.000Z</time>
      </trkpt>
      <trkpt lat="48.7547" lon="1.74454">
        <ele>180.19999694824</ele>
        <time>2012-03-13T12:01:09.000Z</time>
      </trkpt>
      <trkpt lat="48.7547" lon="1.74446">
        <ele>179.60000610352</ele>
        <time>2012-03-13T12:01:13.000Z</time>
      </trkpt>
      <trkpt lat="48.75471" lon="1.74443">
        <ele>179.19999694824</ele>
        <time>2012-03-13T12:01:15.000Z</time>
      </trkpt>
      <trkpt lat="48.75472" lon="1.74431">
        <ele>178</ele>
        <time>2012-03-13T12:01:20.000Z</time>
      </trkpt>
      <trkpt lat="48.75471" lon="1.74425">
        <ele>177.60000610352</ele>
        <time>2012-03-13T12:01:23.000Z</time>
      </trkpt>
      <trkpt lat="48.75476" lon="1.74409">
        <ele>176</ele>
        <time>2012-03-13T12:01:30.000Z</time>
      </trkpt>
      <trkpt lat="48.75477" lon="1.74405">
        <ele>175.60000610352</ele>
        <time>2012-03-13T12:01:32.000Z</time>
      </trkpt>
      <trkpt lat="48.75479" lon="1.74399">
        <ele>175</ele>
        <time>2012-03-13T12:01:36.000Z</time>
      </trkpt>
      <trkpt lat="48.75482" lon="1.74385">
        <ele>173.60000610352</ele>
        <time>2012-03-13T12:01:43.000Z</time>
      </trkpt>
      <trkpt lat="48.75481" lon="1.74376">
        <ele>172.60000610352</ele>
        <time>2012-03-13T12:01:49.000Z</time>
      </trkpt>
      <trkpt lat="48.7548" lon="1.74366">
        <ele>171.80000305176</ele>
        <time>2012-03-13T12:01:54.000Z</time>
      </trkpt>
      <trkpt lat="48.75478" lon="1.74356">
        <ele>171.19999694824</ele>
        <time>2012-03-13T12:01:58.000Z</time>
      </trkpt>
      <trkpt lat="48.75472" lon="1.74333">
        <ele>169.60000610352</ele>
        <time>2012-03-13T12:02:09.000Z</time>
      </trkpt>
      <trkpt lat="48.75467" lon="1.74305">
        <ele>168.39999389648</ele>
        <time>2012-03-13T12:02:21.000Z</time>
      </trkpt>
      <trkpt lat="48.75465" lon="1.74297">
        <ele>168</ele>
        <time>2012-03-13T12:02:25.000Z</time>
      </trkpt>
      <trkpt lat="48.75464" lon="1.74282">
        <ele>167</ele>
        <time>2012-03-13T12:02:31.000Z</time>
      </trkpt>
      <trkpt lat="48.75464" lon="1.74278">
        <ele>166.80000305176</ele>
        <time>2012-03-13T12:02:33.000Z</time>
      </trkpt>
      <trkpt lat="48.75464" lon="1.74263">
        <ele>165.80000305176</ele>
        <time>2012-03-13T12:02:40.000Z</time>
      </trkpt>
      <trkpt lat="48.75463" lon="1.74248">
        <ele>164.80000305176</ele>
        <time>2012-03-13T12:02:48.000Z</time>
      </trkpt>
      <trkpt lat="48.75465" lon="1.7424">
        <ele>163.80000305176</ele>
        <time>2012-03-13T12:02:52.000Z</time>
      </trkpt>
      <trkpt lat="48.75467" lon="1.74225">
        <ele>162.19999694824</ele>
        <time>2012-03-13T12:02:59.000Z</time>
      </trkpt>
      <trkpt lat="48.7547" lon="1.74212">
        <ele>160.80000305176</ele>
        <time>2012-03-13T12:03:05.000Z</time>
      </trkpt>
      <trkpt lat="48.75474" lon="1.74196">
        <ele>159.19999694824</ele>
        <time>2012-03-13T12:03:12.000Z</time>
      </trkpt>
      <trkpt lat="48.75478" lon="1.74184">
        <ele>158</ele>
        <time>2012-03-13T12:03:18.000Z</time>
      </trkpt>
      <trkpt lat="48.7548" lon="1.74181">
        <ele>157.60000610352</ele>
        <time>2012-03-13T12:03:20.000Z</time>
      </trkpt>
      <trkpt lat="48.75483" lon="1.74173">
        <ele>156.80000305176</ele>
        <time>2012-03-13T12:03:25.000Z</time>
      </trkpt>
      <trkpt lat="48.75482" lon="1.74157">
        <ele>156</ele>
        <time>2012-03-13T12:03:31.000Z</time>
      </trkpt>
      <trkpt lat="48.75481" lon="1.74148">
        <ele>155.60000610352</ele>
        <time>2012-03-13T12:03:35.000Z</time>
      </trkpt>
      <trkpt lat="48.75476" lon="1.74135">
        <ele>154.80000305176</ele>
        <time>2012-03-13T12:03:41.000Z</time>
      </trkpt>
      <trkpt lat="48.75475" lon="1.74133">
        <ele>154.80000305176</ele>
        <time>2012-03-13T12:03:42.000Z</time>
      </trkpt>
      <trkpt lat="48.75467" lon="1.74123">
        <ele>154.19999694824</ele>
        <time>2012-03-13T12:03:48.000Z</time>
      </trkpt>
      <trkpt lat="48.75458" lon="1.74113">
        <ele>153.39999389648</ele>
        <time>2012-03-13T12:03:55.000Z</time>
      </trkpt>
      <trkpt lat="48.75448" lon="1.74104">
        <ele>152.60000610352</ele>
        <time>2012-03-13T12:04:03.000Z</time>
      </trkpt>
      <trkpt lat="48.75437" lon="1.74093">
        <ele>151.39999389648</ele>
        <time>2012-03-13T12:04:11.000Z</time>
      </trkpt>
      <trkpt lat="48.75426" lon="1.7408">
        <ele>150.19999694824</ele>
        <time>2012-03-13T12:04:20.000Z</time>
      </trkpt>
      <trkpt lat="48.75418" lon="1.74072">
        <ele>149.39999389648</ele>
        <time>2012-03-13T12:04:27.000Z</time>
      </trkpt>
      <trkpt lat="48.75409" lon="1.74062">
        <ele>148.80000305176</ele>
        <time>2012-03-13T12:04:35.000Z</time>
      </trkpt>
      <trkpt lat="48.75398" lon="1.74051">
        <ele>148.19999694824</ele>
        <time>2012-03-13T12:04:43.000Z</time>
      </trkpt>
      <trkpt lat="48.7539" lon="1.74041">
        <ele>147.80000305176</ele>
        <time>2012-03-13T12:04:50.000Z</time>
      </trkpt>
      <trkpt lat="48.75381" lon="1.74032">
        <ele>147.39999389648</ele>
        <time>2012-03-13T12:04:57.000Z</time>
      </trkpt>
      <trkpt lat="48.75371" lon="1.74021">
        <ele>146.80000305176</ele>
        <time>2012-03-13T12:05:04.000Z</time>
      </trkpt>
      <trkpt lat="48.75363" lon="1.7401">
        <ele>146.19999694824</ele>
        <time>2012-03-13T12:05:11.000Z</time>
      </trkpt>
      <trkpt lat="48.75356" lon="1.73994">
        <ele>145.39999389648</ele>
        <time>2012-03-13T12:05:19.000Z</time>
      </trkpt>
      <trkpt lat="48.75355" lon="1.73991">
        <ele>145.39999389648</ele>
        <time>2012-03-13T12:05:20.000Z</time>
      </trkpt>
      <trkpt lat="48.75351" lon="1.73977">
        <ele>144.80000305176</ele>
        <time>2012-03-13T12:05:26.000Z</time>
      </trkpt>
      <trkpt lat="48.75347" lon="1.73958">
        <ele>144</ele>
        <time>2012-03-13T12:05:34.000Z</time>
      </trkpt>
      <trkpt lat="48.75343" lon="1.73935">
        <ele>143.19999694824</ele>
        <time>2012-03-13T12:05:44.000Z</time>
      </trkpt>
      <trkpt lat="48.75337" lon="1.7392">
        <ele>143</ele>
        <time>2012-03-13T12:05:52.000Z</time>
      </trkpt>
      <trkpt lat="48.75327" lon="1.73907">
        <ele>142.80000305176</ele>
        <time>2012-03-13T12:06:01.000Z</time>
      </trkpt>
      <trkpt lat="48.75314" lon="1.73897">
        <ele>143.39999389648</ele>
        <time>2012-03-13T12:06:11.000Z</time>
      </trkpt>
      <trkpt lat="48.75304" lon="1.73892">
        <ele>144</ele>
        <time>2012-03-13T12:06:18.000Z</time>
      </trkpt>
      <trkpt lat="48.75302" lon="1.7389">
        <ele>144.19999694824</ele>
        <time>2012-03-13T12:06:22.000Z</time>
      </trkpt>
      <trkpt lat="48.75299" lon="1.73888">
        <ele>144.19999694824</ele>
        <time>2012-03-13T12:06:26.000Z</time>
      </trkpt>
      <trkpt lat="48.75289" lon="1.73877">
        <ele>144.19999694824</ele>
        <time>2012-03-13T12:06:33.000Z</time>
      </trkpt>
      <trkpt lat="48.7528" lon="1.73877">
        <ele>145</ele>
        <time>2012-03-13T12:06:39.000Z</time>
      </trkpt>
      <trkpt lat="48.75267" lon="1.73875">
        <ele>146</ele>
        <time>2012-03-13T12:06:47.000Z</time>
      </trkpt>
      <trkpt lat="48.75259" lon="1.73875">
        <ele>146.80000305176</ele>
        <time>2012-03-13T12:06:52.000Z</time>
      </trkpt>
      <trkpt lat="48.75254" lon="1.73877">
        <ele>147.39999389648</ele>
        <time>2012-03-13T12:06:56.000Z</time>
      </trkpt>
      <trkpt lat="48.75246" lon="1.73882">
        <ele>148.19999694824</ele>
        <time>2012-03-13T12:07:02.000Z</time>
      </trkpt>
      <trkpt lat="48.75245" lon="1.73882">
        <ele>148.19999694824</ele>
        <time>2012-03-13T12:07:03.000Z</time>
      </trkpt>
      <trkpt lat="48.75234" lon="1.73889">
        <ele>148.60000610352</ele>
        <time>2012-03-13T12:07:11.000Z</time>
      </trkpt>
      <trkpt lat="48.75225" lon="1.73894">
        <ele>148.80000305176</ele>
        <time>2012-03-13T12:07:17.000Z</time>
      </trkpt>
      <trkpt lat="48.75212" lon="1.73904">
        <ele>149.19999694824</ele>
        <time>2012-03-13T12:07:24.000Z</time>
      </trkpt>
      <trkpt lat="48.75203" lon="1.73908">
        <ele>149.19999694824</ele>
        <time>2012-03-13T12:07:31.000Z</time>
      </trkpt>
      <trkpt lat="48.75195" lon="1.73914">
        <ele>149.19999694824</ele>
        <time>2012-03-13T12:07:37.000Z</time>
      </trkpt>
      <trkpt lat="48.75183" lon="1.73924">
        <ele>149.39999389648</ele>
        <time>2012-03-13T12:07:45.000Z</time>
      </trkpt>
      <trkpt lat="48.75173" lon="1.7393">
        <ele>149.60000610352</ele>
        <time>2012-03-13T12:07:52.000Z</time>
      </trkpt>
      <trkpt lat="48.75163" lon="1.73936">
        <ele>149.60000610352</ele>
        <time>2012-03-13T12:07:59.000Z</time>
      </trkpt>
      <trkpt lat="48.75161" lon="1.73939">
        <ele>149.60000610352</ele>
        <time>2012-03-13T12:08:01.000Z</time>
      </trkpt>
      <trkpt lat="48.7515" lon="1.73945">
        <ele>149.39999389648</ele>
        <time>2012-03-13T12:08:09.000Z</time>
      </trkpt>
      <trkpt lat="48.75144" lon="1.73949">
        <ele>149.19999694824</ele>
        <time>2012-03-13T12:08:14.000Z</time>
      </trkpt>
      <trkpt lat="48.7513" lon="1.7396">
        <ele>148.80000305176</ele>
        <time>2012-03-13T12:08:24.000Z</time>
      </trkpt>
      <trkpt lat="48.75122" lon="1.7397">
        <ele>148.80000305176</ele>
        <time>2012-03-13T12:08:31.000Z</time>
      </trkpt>
      <trkpt lat="48.75113" lon="1.73985">
        <ele>148.60000610352</ele>
        <time>2012-03-13T12:08:39.000Z</time>
      </trkpt>
      <trkpt lat="48.75104" lon="1.74001">
        <ele>148.39999389648</ele>
        <time>2012-03-13T12:08:47.000Z</time>
      </trkpt>
      <trkpt lat="48.75097" lon="1.74016">
        <ele>148.19999694824</ele>
        <time>2012-03-13T12:08:55.000Z</time>
      </trkpt>
      <trkpt lat="48.75092" lon="1.74033">
        <ele>148</ele>
        <time>2012-03-13T12:09:03.000Z</time>
      </trkpt>
      <trkpt lat="48.75091" lon="1.74042">
        <ele>148.19999694824</ele>
        <time>2012-03-13T12:09:07.000Z</time>
      </trkpt>
      <trkpt lat="48.75093" lon="1.74061">
        <ele>149</ele>
        <time>2012-03-13T12:09:16.000Z</time>
      </trkpt>
      <trkpt lat="48.75094" lon="1.74076">
        <ele>149.60000610352</ele>
        <time>2012-03-13T12:09:22.000Z</time>
      </trkpt>
      <trkpt lat="48.75094" lon="1.74094">
        <ele>150.19999694824</ele>
        <time>2012-03-13T12:09:30.000Z</time>
      </trkpt>
      <trkpt lat="48.75093" lon="1.74109">
        <ele>150.39999389648</ele>
        <time>2012-03-13T12:09:36.000Z</time>
      </trkpt>
      <trkpt lat="48.75091" lon="1.74129">
        <ele>150.39999389648</ele>
        <time>2012-03-13T12:09:45.000Z</time>
      </trkpt>
      <trkpt lat="48.75086" lon="1.74143">
        <ele>149.80000305176</ele>
        <time>2012-03-13T12:09:52.000Z</time>
      </trkpt>
      <trkpt lat="48.75079" lon="1.74156">
        <ele>149.60000610352</ele>
        <time>2012-03-13T12:09:59.000Z</time>
      </trkpt>
      <trkpt lat="48.75075" lon="1.74164">
        <ele>149.60000610352</ele>
        <time>2012-03-13T12:10:04.000Z</time>
      </trkpt>
      <trkpt lat="48.75072" lon="1.74178">
        <ele>150</ele>
        <time>2012-03-13T12:10:09.000Z</time>
      </trkpt>
      <trkpt lat="48.75067" lon="1.74195">
        <ele>150.19999694824</ele>
        <time>2012-03-13T12:10:17.000Z</time>
      </trkpt>
      <trkpt lat="48.75058" lon="1.74209">
        <ele>150.19999694824</ele>
        <time>2012-03-13T12:10:25.000Z</time>
      </trkpt>
      <trkpt lat="48.75047" lon="1.74229">
        <ele>150.19999694824</ele>
        <time>2012-03-13T12:10:35.000Z</time>
      </trkpt>
      <trkpt lat="48.75037" lon="1.74247">
        <ele>150.19999694824</ele>
        <time>2012-03-13T12:10:44.000Z</time>
      </trkpt>
      <trkpt lat="48.75036" lon="1.74263">
        <ele>150.39999389648</ele>
        <time>2012-03-13T12:10:52.000Z</time>
      </trkpt>
      <trkpt lat="48.75035" lon="1.74275">
        <ele>150.39999389648</ele>
        <time>2012-03-13T12:10:57.000Z</time>
      </trkpt>
      <trkpt lat="48.75029" lon="1.74295">
        <ele>150.19999694824</ele>
        <time>2012-03-13T12:11:05.000Z</time>
      </trkpt>
      <trkpt lat="48.75021" lon="1.74318">
        <ele>149.60000610352</ele>
        <time>2012-03-13T12:11:15.000Z</time>
      </trkpt>
      <trkpt lat="48.75017" lon="1.74332">
        <ele>149</ele>
        <time>2012-03-13T12:11:21.000Z</time>
      </trkpt>
      <trkpt lat="48.75012" lon="1.74348">
        <ele>149.19999694824</ele>
        <time>2012-03-13T12:11:28.000Z</time>
      </trkpt>
      <trkpt lat="48.75006" lon="1.74371">
        <ele>149.60000610352</ele>
        <time>2012-03-13T12:11:37.000Z</time>
      </trkpt>
      <trkpt lat="48.75" lon="1.74389">
        <ele>149.60000610352</ele>
        <time>2012-03-13T12:11:45.000Z</time>
      </trkpt>
      <trkpt lat="48.74996" lon="1.74408">
        <ele>150.60000610352</ele>
        <time>2012-03-13T12:11:53.000Z</time>
      </trkpt>
      <trkpt lat="48.74992" lon="1.74421">
        <ele>151.39999389648</ele>
        <time>2012-03-13T12:11:59.000Z</time>
      </trkpt>
      <trkpt lat="48.74988" lon="1.74436">
        <ele>152.19999694824</ele>
        <time>2012-03-13T12:12:05.000Z</time>
      </trkpt>
      <trkpt lat="48.74984" lon="1.74448">
        <ele>152.80000305176</ele>
        <time>2012-03-13T12:12:10.000Z</time>
      </trkpt>
      <trkpt lat="48.7498" lon="1.74465">
        <ele>153.39999389648</ele>
        <time>2012-03-13T12:12:17.000Z</time>
      </trkpt>
      <trkpt lat="48.74975" lon="1.7448">
        <ele>153.80000305176</ele>
        <time>2012-03-13T12:12:23.000Z</time>
      </trkpt>
      <trkpt lat="48.74971" lon="1.74496">
        <ele>154</ele>
        <time>2012-03-13T12:12:30.000Z</time>
      </trkpt>
      <trkpt lat="48.74966" lon="1.74514">
        <ele>154.19999694824</ele>
        <time>2012-03-13T12:12:37.000Z</time>
      </trkpt>
      <trkpt lat="48.74965" lon="1.74515">
        <ele>154.19999694824</ele>
        <time>2012-03-13T12:12:38.000Z</time>
      </trkpt>
      <trkpt lat="48.74963" lon="1.74526">
        <ele>154.19999694824</ele>
        <time>2012-03-13T12:12:44.000Z</time>
      </trkpt>
      <trkpt lat="48.74961" lon="1.74529">
        <ele>154.19999694824</ele>
        <time>2012-03-13T12:12:46.000Z</time>
      </trkpt>
      <trkpt lat="48.74958" lon="1.74546">
        <ele>154.39999389648</ele>
        <time>2012-03-13T12:12:53.000Z</time>
      </trkpt>
      <trkpt lat="48.74954" lon="1.74562">
        <ele>154.39999389648</ele>
        <time>2012-03-13T12:13:00.000Z</time>
      </trkpt>
      <trkpt lat="48.7495" lon="1.74575">
        <ele>154.19999694824</ele>
        <time>2012-03-13T12:13:06.000Z</time>
      </trkpt>
      <trkpt lat="48.74944" lon="1.74581">
        <ele>153.60000610352</ele>
        <time>2012-03-13T12:13:10.000Z</time>
      </trkpt>
      <trkpt lat="48.74939" lon="1.74592">
        <ele>153</ele>
        <time>2012-03-13T12:13:17.000Z</time>
      </trkpt>
      <trkpt lat="48.74937" lon="1.74597">
        <ele>152.80000305176</ele>
        <time>2012-03-13T12:13:19.000Z</time>
      </trkpt>
      <trkpt lat="48.74933" lon="1.74606">
        <ele>152.39999389648</ele>
        <time>2012-03-13T12:13:24.000Z</time>
      </trkpt>
      <trkpt lat="48.74931" lon="1.74608">
        <ele>152.19999694824</ele>
        <time>2012-03-13T12:13:25.000Z</time>
      </trkpt>
      <trkpt lat="48.74928" lon="1.74622">
        <ele>152</ele>
        <time>2012-03-13T12:13:31.000Z</time>
      </trkpt>
      <trkpt lat="48.74923" lon="1.74634">
        <ele>151.60000610352</ele>
        <time>2012-03-13T12:13:37.000Z</time>
      </trkpt>
      <trkpt lat="48.7492" lon="1.74644">
        <ele>151.19999694824</ele>
        <time>2012-03-13T12:13:41.000Z</time>
      </trkpt>
      <trkpt lat="48.74916" lon="1.74658">
        <ele>151</ele>
        <time>2012-03-13T12:13:47.000Z</time>
      </trkpt>
      <trkpt lat="48.74907" lon="1.74674">
        <ele>151.39999389648</ele>
        <time>2012-03-13T12:13:54.000Z</time>
      </trkpt>
      <trkpt lat="48.74901" lon="1.74687">
        <ele>152.19999694824</ele>
        <time>2012-03-13T12:14:00.000Z</time>
      </trkpt>
      <trkpt lat="48.74891" lon="1.74705">
        <ele>152.60000610352</ele>
        <time>2012-03-13T12:14:08.000Z</time>
      </trkpt>
      <trkpt lat="48.74886" lon="1.7472">
        <ele>153</ele>
        <time>2012-03-13T12:14:15.000Z</time>
      </trkpt>
      <trkpt lat="48.74881" lon="1.74733">
        <ele>153</ele>
        <time>2012-03-13T12:14:21.000Z</time>
      </trkpt>
      <trkpt lat="48.74877" lon="1.74749">
        <ele>153.19999694824</ele>
        <time>2012-03-13T12:14:28.000Z</time>
      </trkpt>
      <trkpt lat="48.7487" lon="1.74769">
        <ele>153.19999694824</ele>
        <time>2012-03-13T12:14:35.000Z</time>
      </trkpt>
      <trkpt lat="48.74865" lon="1.7479">
        <ele>153.19999694824</ele>
        <time>2012-03-13T12:14:41.000Z</time>
      </trkpt>
      <trkpt lat="48.74856" lon="1.74814">
        <ele>152.60000610352</ele>
        <time>2012-03-13T12:14:47.000Z</time>
      </trkpt>
      <trkpt lat="48.7485" lon="1.74835">
        <ele>152</ele>
        <time>2012-03-13T12:14:52.000Z</time>
      </trkpt>
      <trkpt lat="48.74843" lon="1.74863">
        <ele>151.80000305176</ele>
        <time>2012-03-13T12:14:58.000Z</time>
      </trkpt>
      <trkpt lat="48.74835" lon="1.74884">
        <ele>151</ele>
        <time>2012-03-13T12:15:03.000Z</time>
      </trkpt>
      <trkpt lat="48.74824" lon="1.74902">
        <ele>152</ele>
        <time>2012-03-13T12:15:08.000Z</time>
      </trkpt>
      <trkpt lat="48.74822" lon="1.74905">
        <ele>152.19999694824</ele>
        <time>2012-03-13T12:15:09.000Z</time>
      </trkpt>
      <trkpt lat="48.74814" lon="1.74925">
        <ele>153.19999694824</ele>
        <time>2012-03-13T12:15:14.000Z</time>
      </trkpt>
      <trkpt lat="48.7481" lon="1.74934">
        <ele>153.60000610352</ele>
        <time>2012-03-13T12:15:16.000Z</time>
      </trkpt>
      <trkpt lat="48.74792" lon="1.74967">
        <ele>154.19999694824</ele>
        <time>2012-03-13T12:15:24.000Z</time>
      </trkpt>
      <trkpt lat="48.74779" lon="1.74993">
        <ele>153</ele>
        <time>2012-03-13T12:15:30.000Z</time>
      </trkpt>
      <trkpt lat="48.74769" lon="1.75018">
        <ele>151.80000305176</ele>
        <time>2012-03-13T12:15:36.000Z</time>
      </trkpt>
      <trkpt lat="48.74755" lon="1.75056">
        <ele>150.39999389648</ele>
        <time>2012-03-13T12:15:44.000Z</time>
      </trkpt>
      <trkpt lat="48.7475" lon="1.75081">
        <ele>150</ele>
        <time>2012-03-13T12:15:49.000Z</time>
      </trkpt>
      <trkpt lat="48.74745" lon="1.75104">
        <ele>150.80000305176</ele>
        <time>2012-03-13T12:15:54.000Z</time>
      </trkpt>
      <trkpt lat="48.74747" lon="1.75131">
        <ele>151.39999389648</ele>
        <time>2012-03-13T12:15:59.000Z</time>
      </trkpt>
      <trkpt lat="48.74755" lon="1.75155">
        <ele>152.19999694824</ele>
        <time>2012-03-13T12:16:04.000Z</time>
      </trkpt>
      <trkpt lat="48.74767" lon="1.75187">
        <ele>153.19999694824</ele>
        <time>2012-03-13T12:16:11.000Z</time>
      </trkpt>
      <trkpt lat="48.74773" lon="1.75209">
        <ele>153</ele>
        <time>2012-03-13T12:16:16.000Z</time>
      </trkpt>
      <trkpt lat="48.7478" lon="1.75224">
        <ele>152.80000305176</ele>
        <time>2012-03-13T12:16:20.000Z</time>
      </trkpt>
      <trkpt lat="48.74787" lon="1.75245">
        <ele>152.19999694824</ele>
        <time>2012-03-13T12:16:25.000Z</time>
      </trkpt>
      <trkpt lat="48.74794" lon="1.75268">
        <ele>151.80000305176</ele>
        <time>2012-03-13T12:16:30.000Z</time>
      </trkpt>
      <trkpt lat="48.74805" lon="1.75303">
        <ele>151.60000610352</ele>
        <time>2012-03-13T12:16:37.000Z</time>
      </trkpt>
      <trkpt lat="48.74809" lon="1.75329">
        <ele>151.39999389648</ele>
        <time>2012-03-13T12:16:42.000Z</time>
      </trkpt>
      <trkpt lat="48.74817" lon="1.7535">
        <ele>151.80000305176</ele>
        <time>2012-03-13T12:16:47.000Z</time>
      </trkpt>
      <trkpt lat="48.74824" lon="1.75386">
        <ele>153.39999389648</ele>
        <time>2012-03-13T12:16:54.000Z</time>
      </trkpt>
      <trkpt lat="48.74826" lon="1.7542">
        <ele>154.80000305176</ele>
        <time>2012-03-13T12:17:00.000Z</time>
      </trkpt>
      <trkpt lat="48.74825" lon="1.75437">
        <ele>155.19999694824</ele>
        <time>2012-03-13T12:17:04.000Z</time>
      </trkpt>
      <trkpt lat="48.74825" lon="1.75455">
        <ele>155.60000610352</ele>
        <time>2012-03-13T12:17:10.000Z</time>
      </trkpt>
      <trkpt lat="48.74825" lon="1.75468">
        <ele>155.80000305176</ele>
        <time>2012-03-13T12:17:16.000Z</time>
      </trkpt>
      <trkpt lat="48.74822" lon="1.75484">
        <ele>155.80000305176</ele>
        <time>2012-03-13T12:17:23.000Z</time>
      </trkpt>
      <trkpt lat="48.74818" lon="1.75497">
        <ele>155.80000305176</ele>
        <time>2012-03-13T12:17:30.000Z</time>
      </trkpt>
      <trkpt lat="48.74813" lon="1.75515">
        <ele>157</ele>
        <time>2012-03-13T12:17:38.000Z</time>
      </trkpt>
      <trkpt lat="48.74811" lon="1.7552">
        <ele>157.39999389648</ele>
        <time>2012-03-13T12:17:40.000Z</time>
      </trkpt>
      <trkpt lat="48.74808" lon="1.75529">
        <ele>157.80000305176</ele>
        <time>2012-03-13T12:17:44.000Z</time>
      </trkpt>
      <trkpt lat="48.74801" lon="1.75543">
        <ele>158.19999694824</ele>
        <time>2012-03-13T12:17:51.000Z</time>
      </trkpt>
      <trkpt lat="48.74796" lon="1.75554">
        <ele>158.39999389648</ele>
        <time>2012-03-13T12:17:56.000Z</time>
      </trkpt>
      <trkpt lat="48.74794" lon="1.75558">
        <ele>158.60000610352</ele>
        <time>2012-03-13T12:17:58.000Z</time>
      </trkpt>
      <trkpt lat="48.7479" lon="1.75564">
        <ele>158.39999389648</ele>
        <time>2012-03-13T12:18:01.000Z</time>
      </trkpt>
      <trkpt lat="48.74784" lon="1.75579">
        <ele>158.60000610352</ele>
        <time>2012-03-13T12:18:08.000Z</time>
      </trkpt>
      <trkpt lat="48.74779" lon="1.75594">
        <ele>157.80000305176</ele>
        <time>2012-03-13T12:18:14.000Z</time>
      </trkpt>
      <trkpt lat="48.74774" lon="1.75605">
        <ele>156.80000305176</ele>
        <time>2012-03-13T12:18:19.000Z</time>
      </trkpt>
      <trkpt lat="48.7477" lon="1.75615">
        <ele>156</ele>
        <time>2012-03-13T12:18:24.000Z</time>
      </trkpt>
      <trkpt lat="48.74767" lon="1.7563">
        <ele>155.39999389648</ele>
        <time>2012-03-13T12:18:31.000Z</time>
      </trkpt>
      <trkpt lat="48.74763" lon="1.75642">
        <ele>154.60000610352</ele>
        <time>2012-03-13T12:18:37.000Z</time>
      </trkpt>
      <trkpt lat="48.74758" lon="1.75656">
        <ele>153.39999389648</ele>
        <time>2012-03-13T12:18:44.000Z</time>
      </trkpt>
      <trkpt lat="48.74757" lon="1.75665">
        <ele>153.39999389648</ele>
        <time>2012-03-13T12:18:49.000Z</time>
      </trkpt>
      <trkpt lat="48.74755" lon="1.75673">
        <ele>152.80000305176</ele>
        <time>2012-03-13T12:18:53.000Z</time>
      </trkpt>
      <trkpt lat="48.74754" lon="1.75677">
        <ele>152.60000610352</ele>
        <time>2012-03-13T12:18:55.000Z</time>
      </trkpt>
      <trkpt lat="48.74755" lon="1.75682">
        <ele>152.60000610352</ele>
        <time>2012-03-13T12:18:57.000Z</time>
      </trkpt>
      <trkpt lat="48.74755" lon="1.7569">
        <ele>152.39999389648</ele>
        <time>2012-03-13T12:19:00.000Z</time>
      </trkpt>
      <trkpt lat="48.74751" lon="1.75706">
        <ele>151.60000610352</ele>
        <time>2012-03-13T12:19:07.000Z</time>
      </trkpt>
      <trkpt lat="48.7475" lon="1.75724">
        <ele>151.39999389648</ele>
        <time>2012-03-13T12:19:14.000Z</time>
      </trkpt>
      <trkpt lat="48.74751" lon="1.75736">
        <ele>151.39999389648</ele>
        <time>2012-03-13T12:19:19.000Z</time>
      </trkpt>
      <trkpt lat="48.74756" lon="1.75755">
        <ele>151.80000305176</ele>
        <time>2012-03-13T12:19:25.000Z</time>
      </trkpt>
      <trkpt lat="48.7476" lon="1.75769">
        <ele>152.39999389648</ele>
        <time>2012-03-13T12:19:30.000Z</time>
      </trkpt>
      <trkpt lat="48.74764" lon="1.75784">
        <ele>153</ele>
        <time>2012-03-13T12:19:36.000Z</time>
      </trkpt>
      <trkpt lat="48.74769" lon="1.75797">
        <ele>153.80000305176</ele>
        <time>2012-03-13T12:19:42.000Z</time>
      </trkpt>
      <trkpt lat="48.7477" lon="1.75799">
        <ele>154</ele>
        <time>2012-03-13T12:19:43.000Z</time>
      </trkpt>
      <trkpt lat="48.7477" lon="1.75811">
        <ele>154.19999694824</ele>
        <time>2012-03-13T12:19:48.000Z</time>
      </trkpt>
      <trkpt lat="48.74771" lon="1.75833">
        <ele>154.39999389648</ele>
        <time>2012-03-13T12:19:58.000Z</time>
      </trkpt>
      <trkpt lat="48.74771" lon="1.75839">
        <ele>154.39999389648</ele>
        <time>2012-03-13T12:20:01.000Z</time>
      </trkpt>
      <trkpt lat="48.74771" lon="1.75847">
        <ele>154.39999389648</ele>
        <time>2012-03-13T12:20:04.000Z</time>
      </trkpt>
      <trkpt lat="48.74773" lon="1.75862">
        <ele>154.39999389648</ele>
        <time>2012-03-13T12:20:09.000Z</time>
      </trkpt>
      <trkpt lat="48.74774" lon="1.75868">
        <ele>154.39999389648</ele>
        <time>2012-03-13T12:20:11.000Z</time>
      </trkpt>
      <trkpt lat="48.74776" lon="1.75887">
        <ele>154.19999694824</ele>
        <time>2012-03-13T12:20:19.000Z</time>
      </trkpt>
      <trkpt lat="48.74774" lon="1.7589">
        <ele>154</ele>
        <time>2012-03-13T12:20:25.000Z</time>
      </trkpt>
      <trkpt lat="48.74771" lon="1.75886">
        <ele>153.80000305176</ele>
        <time>2012-03-13T12:20:30.000Z</time>
      </trkpt>
      <trkpt lat="48.74769" lon="1.75885">
        <ele>153.80000305176</ele>
        <time>2012-03-13T12:20:31.000Z</time>
      </trkpt>
      <trkpt lat="48.7476" lon="1.75883">
        <ele>153.19999694824</ele>
        <time>2012-03-13T12:20:37.000Z</time>
      </trkpt>
      <trkpt lat="48.74753" lon="1.75885">
        <ele>152.60000610352</ele>
        <time>2012-03-13T12:20:43.000Z</time>
      </trkpt>
      <trkpt lat="48.74753" lon="1.75885">
        <ele>152.60000610352</ele>
        <time>2012-03-13T12:20:44.000Z</time>
      </trkpt>
      <trkpt lat="48.74747" lon="1.75881">
        <ele>152.60000610352</ele>
        <time>2012-03-13T12:21:02.000Z</time>
      </trkpt>
      <trkpt lat="48.7474" lon="1.75878">
        <ele>152.80000305176</ele>
        <time>2012-03-13T12:21:06.000Z</time>
      </trkpt>
      <trkpt lat="48.7473" lon="1.75876">
        <ele>153.19999694824</ele>
        <time>2012-03-13T12:21:14.000Z</time>
      </trkpt>
      <trkpt lat="48.74718" lon="1.75868">
        <ele>153.60000610352</ele>
        <time>2012-03-13T12:21:22.000Z</time>
      </trkpt>
      <trkpt lat="48.74712" lon="1.75861">
        <ele>153.80000305176</ele>
        <time>2012-03-13T12:21:28.000Z</time>
      </trkpt>
      <trkpt lat="48.74703" lon="1.75852">
        <ele>154</ele>
        <time>2012-03-13T12:21:35.000Z</time>
      </trkpt>
      <trkpt lat="48.74696" lon="1.75845">
        <ele>154.19999694824</ele>
        <time>2012-03-13T12:21:41.000Z</time>
      </trkpt>
      <trkpt lat="48.74686" lon="1.75838">
        <ele>154.60000610352</ele>
        <time>2012-03-13T12:21:48.000Z</time>
      </trkpt>
      <trkpt lat="48.74677" lon="1.75832">
        <ele>154.80000305176</ele>
        <time>2012-03-13T12:21:54.000Z</time>
      </trkpt>
      <trkpt lat="48.7467" lon="1.75831">
        <ele>155</ele>
        <time>2012-03-13T12:21:59.000Z</time>
      </trkpt>
      <trkpt lat="48.74666" lon="1.7583">
        <ele>155</ele>
        <time>2012-03-13T12:22:02.000Z</time>
      </trkpt>
      <trkpt lat="48.74665" lon="1.75829">
        <ele>155</ele>
        <time>2012-03-13T12:22:06.000Z</time>
      </trkpt>
      <trkpt lat="48.74666" lon="1.75842">
        <ele>155</ele>
        <time>2012-03-13T12:22:16.000Z</time>
      </trkpt>
      <trkpt lat="48.74668" lon="1.75856">
        <ele>155</ele>
        <time>2012-03-13T12:22:22.000Z</time>
      </trkpt>
      <trkpt lat="48.74665" lon="1.75869">
        <ele>155</ele>
        <time>2012-03-13T12:22:28.000Z</time>
      </trkpt>
      <trkpt lat="48.74662" lon="1.75884">
        <ele>155</ele>
        <time>2012-03-13T12:22:36.000Z</time>
      </trkpt>
      <trkpt lat="48.74658" lon="1.75894">
        <ele>155</ele>
        <time>2012-03-13T12:22:42.000Z</time>
      </trkpt>
      <trkpt lat="48.74656" lon="1.75897">
        <ele>155.19999694824</ele>
        <time>2012-03-13T12:22:44.000Z</time>
      </trkpt>
      <trkpt lat="48.7465" lon="1.75899">
        <ele>155.19999694824</ele>
        <time>2012-03-13T12:22:48.000Z</time>
      </trkpt>
      <trkpt lat="48.74644" lon="1.75901">
        <ele>155.19999694824</ele>
        <time>2012-03-13T12:22:53.000Z</time>
      </trkpt>
      <trkpt lat="48.74642" lon="1.75905">
        <ele>155.19999694824</ele>
        <time>2012-03-13T12:22:56.000Z</time>
      </trkpt>
      <trkpt lat="48.74637" lon="1.75919">
        <ele>155.19999694824</ele>
        <time>2012-03-13T12:23:03.000Z</time>
      </trkpt>
      <trkpt lat="48.74633" lon="1.75936">
        <ele>154.80000305176</ele>
        <time>2012-03-13T12:23:11.000Z</time>
      </trkpt>
      <trkpt lat="48.74632" lon="1.7594">
        <ele>154.60000610352</ele>
        <time>2012-03-13T12:23:13.000Z</time>
      </trkpt>
      <trkpt lat="48.7463" lon="1.75951">
        <ele>154.39999389648</ele>
        <time>2012-03-13T12:23:19.000Z</time>
      </trkpt>
      <trkpt lat="48.74629" lon="1.75957">
        <ele>154.19999694824</ele>
        <time>2012-03-13T12:23:22.000Z</time>
      </trkpt>
      <trkpt lat="48.7463" lon="1.75965">
        <ele>154</ele>
        <time>2012-03-13T12:23:26.000Z</time>
      </trkpt>
      <trkpt lat="48.74624" lon="1.75976">
        <ele>153.80000305176</ele>
        <time>2012-03-13T12:23:33.000Z</time>
      </trkpt>
      <trkpt lat="48.74624" lon="1.75989">
        <ele>153.39999389648</ele>
        <time>2012-03-13T12:23:38.000Z</time>
      </trkpt>
      <trkpt lat="48.74625" lon="1.76009">
        <ele>153</ele>
        <time>2012-03-13T12:23:46.000Z</time>
      </trkpt>
      <trkpt lat="48.74625" lon="1.76012">
        <ele>152.80000305176</ele>
        <time>2012-03-13T12:23:48.000Z</time>
      </trkpt>
      <trkpt lat="48.74624" lon="1.76015">
        <ele>152.80000305176</ele>
        <time>2012-03-13T12:23:51.000Z</time>
      </trkpt>
      <trkpt lat="48.74625" lon="1.76017">
        <ele>152.80000305176</ele>
        <time>2012-03-13T12:23:55.000Z</time>
      </trkpt>
      <trkpt lat="48.74628" lon="1.76022">
        <ele>152.60000610352</ele>
        <time>2012-03-13T12:24:55.000Z</time>
      </trkpt>
      <trkpt lat="48.74624" lon="1.76022">
        <ele>152.80000305176</ele>
        <time>2012-03-13T12:24:57.000Z</time>
      </trkpt>
      <trkpt lat="48.74616" lon="1.76028">
        <ele>152.80000305176</ele>
        <time>2012-03-13T12:25:04.000Z</time>
      </trkpt>
      <trkpt lat="48.74608" lon="1.76034">
        <ele>152.80000305176</ele>
        <time>2012-03-13T12:25:10.000Z</time>
      </trkpt>
      <trkpt lat="48.74607" lon="1.76034">
        <ele>152.80000305176</ele>
        <time>2012-03-13T12:25:11.000Z</time>
      </trkpt>
      <trkpt lat="48.74602" lon="1.76027">
        <ele>153</ele>
        <time>2012-03-13T12:25:17.000Z</time>
      </trkpt>
      <trkpt lat="48.74599" lon="1.76025">
        <ele>153.19999694824</ele>
        <time>2012-03-13T12:25:19.000Z</time>
      </trkpt>
      <trkpt lat="48.74593" lon="1.76025">
        <ele>153.19999694824</ele>
        <time>2012-03-13T12:25:25.000Z</time>
      </trkpt>
      <trkpt lat="48.74586" lon="1.76033">
        <ele>153.19999694824</ele>
        <time>2012-03-13T12:25:31.000Z</time>
      </trkpt>
      <trkpt lat="48.74585" lon="1.76035">
        <ele>153.19999694824</ele>
        <time>2012-03-13T12:25:32.000Z</time>
      </trkpt>
      <trkpt lat="48.74578" lon="1.76043">
        <ele>153.19999694824</ele>
        <time>2012-03-13T12:25:37.000Z</time>
      </trkpt>
      <trkpt lat="48.74568" lon="1.76053">
        <ele>153.39999389648</ele>
        <time>2012-03-13T12:25:45.000Z</time>
      </trkpt>
      <trkpt lat="48.74555" lon="1.76063">
        <ele>153.80000305176</ele>
        <time>2012-03-13T12:25:55.000Z</time>
      </trkpt>
      <trkpt lat="48.74553" lon="1.76065">
        <ele>153.80000305176</ele>
        <time>2012-03-13T12:25:57.000Z</time>
      </trkpt>
      <trkpt lat="48.74547" lon="1.76073">
        <ele>154</ele>
        <time>2012-03-13T12:26:05.000Z</time>
      </trkpt>
      <trkpt lat="48.74544" lon="1.76073">
        <ele>154.19999694824</ele>
        <time>2012-03-13T12:26:08.000Z</time>
      </trkpt>
      <trkpt lat="48.7454" lon="1.76071">
        <ele>154.39999389648</ele>
        <time>2012-03-13T12:26:11.000Z</time>
      </trkpt>
      <trkpt lat="48.74533" lon="1.76061">
        <ele>155</ele>
        <time>2012-03-13T12:26:18.000Z</time>
      </trkpt>
      <trkpt lat="48.74525" lon="1.76056">
        <ele>155.39999389648</ele>
        <time>2012-03-13T12:26:23.000Z</time>
      </trkpt>
      <trkpt lat="48.74515" lon="1.7605">
        <ele>156.19999694824</ele>
        <time>2012-03-13T12:26:30.000Z</time>
      </trkpt>
      <trkpt lat="48.74507" lon="1.76045">
        <ele>156.60000610352</ele>
        <time>2012-03-13T12:26:36.000Z</time>
      </trkpt>
      <trkpt lat="48.74506" lon="1.76044">
        <ele>156.60000610352</ele>
        <time>2012-03-13T12:26:38.000Z</time>
      </trkpt>
      <trkpt lat="48.74504" lon="1.76043">
        <ele>156.80000305176</ele>
        <time>2012-03-13T12:26:41.000Z</time>
      </trkpt>
      <trkpt lat="48.74496" lon="1.76046">
        <ele>156.80000305176</ele>
        <time>2012-03-13T12:26:45.000Z</time>
      </trkpt>
      <trkpt lat="48.74483" lon="1.76036">
        <ele>157</ele>
        <time>2012-03-13T12:26:53.000Z</time>
      </trkpt>
      <trkpt lat="48.74477" lon="1.76033">
        <ele>157</ele>
        <time>2012-03-13T12:26:57.000Z</time>
      </trkpt>
      <trkpt lat="48.74468" lon="1.76029">
        <ele>157</ele>
        <time>2012-03-13T12:27:04.000Z</time>
      </trkpt>
      <trkpt lat="48.74457" lon="1.76023">
        <ele>157.19999694824</ele>
        <time>2012-03-13T12:27:12.000Z</time>
      </trkpt>
      <trkpt lat="48.74453" lon="1.76021">
        <ele>157.19999694824</ele>
        <time>2012-03-13T12:27:15.000Z</time>
      </trkpt>
      <trkpt lat="48.74448" lon="1.76019">
        <ele>157.19999694824</ele>
        <time>2012-03-13T12:27:19.000Z</time>
      </trkpt>
      <trkpt lat="48.74437" lon="1.76015">
        <ele>157.39999389648</ele>
        <time>2012-03-13T12:27:26.000Z</time>
      </trkpt>
      <trkpt lat="48.7443" lon="1.76011">
        <ele>157.60000610352</ele>
        <time>2012-03-13T12:27:31.000Z</time>
      </trkpt>
      <trkpt lat="48.74425" lon="1.76008">
        <ele>157.60000610352</ele>
        <time>2012-03-13T12:27:34.000Z</time>
      </trkpt>
      <trkpt lat="48.7442" lon="1.76006">
        <ele>157.80000305176</ele>
        <time>2012-03-13T12:27:38.000Z</time>
      </trkpt>
      <trkpt lat="48.74415" lon="1.76005">
        <ele>157.80000305176</ele>
        <time>2012-03-13T12:27:41.000Z</time>
      </trkpt>
      <trkpt lat="48.74406" lon="1.75998">
        <ele>158.19999694824</ele>
        <time>2012-03-13T12:27:48.000Z</time>
      </trkpt>
      <trkpt lat="48.74393" lon="1.75991">
        <ele>158.60000610352</ele>
        <time>2012-03-13T12:27:57.000Z</time>
      </trkpt>
      <trkpt lat="48.74382" lon="1.75986">
        <ele>159</ele>
        <time>2012-03-13T12:28:05.000Z</time>
      </trkpt>
      <trkpt lat="48.74374" lon="1.75984">
        <ele>159</ele>
        <time>2012-03-13T12:28:11.000Z</time>
      </trkpt>
      <trkpt lat="48.7437" lon="1.75982">
        <ele>159.19999694824</ele>
        <time>2012-03-13T12:28:13.000Z</time>
      </trkpt>
      <trkpt lat="48.74362" lon="1.75979">
        <ele>159.39999389648</ele>
        <time>2012-03-13T12:28:19.000Z</time>
      </trkpt>
      <trkpt lat="48.74352" lon="1.75975">
        <ele>159.60000610352</ele>
        <time>2012-03-13T12:28:26.000Z</time>
      </trkpt>
      <trkpt lat="48.74344" lon="1.75972">
        <ele>159.80000305176</ele>
        <time>2012-03-13T12:28:32.000Z</time>
      </trkpt>
      <trkpt lat="48.74332" lon="1.75964">
        <ele>160.19999694824</ele>
        <time>2012-03-13T12:28:40.000Z</time>
      </trkpt>
      <trkpt lat="48.74321" lon="1.75957">
        <ele>161.39999389648</ele>
        <time>2012-03-13T12:28:48.000Z</time>
      </trkpt>
      <trkpt lat="48.74314" lon="1.75953">
        <ele>162</ele>
        <time>2012-03-13T12:28:52.000Z</time>
      </trkpt>
      <trkpt lat="48.74306" lon="1.75949">
        <ele>162.80000305176</ele>
        <time>2012-03-13T12:28:58.000Z</time>
      </trkpt>
      <trkpt lat="48.74297" lon="1.75945">
        <ele>163.60000610352</ele>
        <time>2012-03-13T12:29:03.000Z</time>
      </trkpt>
      <trkpt lat="48.74285" lon="1.75936">
        <ele>164.80000305176</ele>
        <time>2012-03-13T12:29:11.000Z</time>
      </trkpt>
      <trkpt lat="48.7428" lon="1.75934">
        <ele>165.19999694824</ele>
        <time>2012-03-13T12:29:15.000Z</time>
      </trkpt>
      <trkpt lat="48.74271" lon="1.75929">
        <ele>166.19999694824</ele>
        <time>2012-03-13T12:29:21.000Z</time>
      </trkpt>
      <trkpt lat="48.7426" lon="1.75924">
        <ele>167</ele>
        <time>2012-03-13T12:29:29.000Z</time>
      </trkpt>
      <trkpt lat="48.74252" lon="1.7592">
        <ele>167.80000305176</ele>
        <time>2012-03-13T12:29:34.000Z</time>
      </trkpt>
      <trkpt lat="48.74243" lon="1.75917">
        <ele>168.19999694824</ele>
        <time>2012-03-13T12:29:39.000Z</time>
      </trkpt>
      <trkpt lat="48.74237" lon="1.75915">
        <ele>168.60000610352</ele>
        <time>2012-03-13T12:29:43.000Z</time>
      </trkpt>
      <trkpt lat="48.74231" lon="1.75913">
        <ele>168.80000305176</ele>
        <time>2012-03-13T12:29:47.000Z</time>
      </trkpt>
      <trkpt lat="48.74224" lon="1.7591">
        <ele>169.19999694824</ele>
        <time>2012-03-13T12:29:53.000Z</time>
      </trkpt>
      <trkpt lat="48.74215" lon="1.75907">
        <ele>169.60000610352</ele>
        <time>2012-03-13T12:30:00.000Z</time>
      </trkpt>
      <trkpt lat="48.74213" lon="1.75905">
        <ele>169.80000305176</ele>
        <time>2012-03-13T12:30:02.000Z</time>
      </trkpt>
      <trkpt lat="48.74206" lon="1.75902">
        <ele>170.19999694824</ele>
        <time>2012-03-13T12:30:07.000Z</time>
      </trkpt>
      <trkpt lat="48.74198" lon="1.75898">
        <ele>170.60000610352</ele>
        <time>2012-03-13T12:30:13.000Z</time>
      </trkpt>
      <trkpt lat="48.74189" lon="1.75893">
        <ele>171.19999694824</ele>
        <time>2012-03-13T12:30:20.000Z</time>
      </trkpt>
      <trkpt lat="48.7418" lon="1.75889">
        <ele>171.60000610352</ele>
        <time>2012-03-13T12:30:27.000Z</time>
      </trkpt>
      <trkpt lat="48.74172" lon="1.75885">
        <ele>172</ele>
        <time>2012-03-13T12:30:33.000Z</time>
      </trkpt>
      <trkpt lat="48.74163" lon="1.75881">
        <ele>172.39999389648</ele>
        <time>2012-03-13T12:30:40.000Z</time>
      </trkpt>
      <trkpt lat="48.74157" lon="1.75876">
        <ele>172.60000610352</ele>
        <time>2012-03-13T12:30:45.000Z</time>
      </trkpt>
      <trkpt lat="48.74153" lon="1.75872">
        <ele>172.60000610352</ele>
        <time>2012-03-13T12:30:49.000Z</time>
      </trkpt>
      <trkpt lat="48.74155" lon="1.75854">
        <ele>173.19999694824</ele>
        <time>2012-03-13T12:30:57.000Z</time>
      </trkpt>
      <trkpt lat="48.74158" lon="1.75846">
        <ele>173.60000610352</ele>
        <time>2012-03-13T12:31:03.000Z</time>
      </trkpt>
      <trkpt lat="48.74162" lon="1.75832">
        <ele>174</ele>
        <time>2012-03-13T12:31:10.000Z</time>
      </trkpt>
      <trkpt lat="48.74163" lon="1.7582">
        <ele>174</ele>
        <time>2012-03-13T12:31:15.000Z</time>
      </trkpt>
      <trkpt lat="48.74166" lon="1.75799">
        <ele>174</ele>
        <time>2012-03-13T12:31:24.000Z</time>
      </trkpt>
      <trkpt lat="48.74169" lon="1.75784">
        <ele>174</ele>
        <time>2012-03-13T12:31:30.000Z</time>
      </trkpt>
      <trkpt lat="48.74172" lon="1.75771">
        <ele>174</ele>
        <time>2012-03-13T12:31:36.000Z</time>
      </trkpt>
      <trkpt lat="48.74175" lon="1.75757">
        <ele>174.19999694824</ele>
        <time>2012-03-13T12:31:43.000Z</time>
      </trkpt>
      <trkpt lat="48.74181" lon="1.75743">
        <ele>174.39999389648</ele>
        <time>2012-03-13T12:31:51.000Z</time>
      </trkpt>
      <trkpt lat="48.74184" lon="1.75727">
        <ele>175</ele>
        <time>2012-03-13T12:32:00.000Z</time>
      </trkpt>
      <trkpt lat="48.74188" lon="1.75711">
        <ele>175.39999389648</ele>
        <time>2012-03-13T12:32:09.000Z</time>
      </trkpt>
      <trkpt lat="48.74192" lon="1.75695">
        <ele>175.80000305176</ele>
        <time>2012-03-13T12:32:17.000Z</time>
      </trkpt>
      <trkpt lat="48.74195" lon="1.75681">
        <ele>176</ele>
        <time>2012-03-13T12:32:23.000Z</time>
      </trkpt>
      <trkpt lat="48.74198" lon="1.75669">
        <ele>176.39999389648</ele>
        <time>2012-03-13T12:32:29.000Z</time>
      </trkpt>
      <trkpt lat="48.74203" lon="1.75654">
        <ele>176.60000610352</ele>
        <time>2012-03-13T12:32:37.000Z</time>
      </trkpt>
      <trkpt lat="48.74206" lon="1.75646">
        <ele>176.60000610352</ele>
        <time>2012-03-13T12:32:41.000Z</time>
      </trkpt>
      <trkpt lat="48.74212" lon="1.75622">
        <ele>176.80000305176</ele>
        <time>2012-03-13T12:32:51.000Z</time>
      </trkpt>
      <trkpt lat="48.74216" lon="1.756">
        <ele>177</ele>
        <time>2012-03-13T12:33:01.000Z</time>
      </trkpt>
      <trkpt lat="48.74221" lon="1.75577">
        <ele>177.19999694824</ele>
        <time>2012-03-13T12:33:12.000Z</time>
      </trkpt>
      <trkpt lat="48.74225" lon="1.75559">
        <ele>177.19999694824</ele>
        <time>2012-03-13T12:33:21.000Z</time>
      </trkpt>
      <trkpt lat="48.74229" lon="1.75541">
        <ele>177.19999694824</ele>
        <time>2012-03-13T12:33:29.000Z</time>
      </trkpt>
      <trkpt lat="48.74231" lon="1.75537">
        <ele>177.19999694824</ele>
        <time>2012-03-13T12:33:31.000Z</time>
      </trkpt>
      <trkpt lat="48.74234" lon="1.75521">
        <ele>177</ele>
        <time>2012-03-13T12:33:36.000Z</time>
      </trkpt>
      <trkpt lat="48.74235" lon="1.75516">
        <ele>177</ele>
        <time>2012-03-13T12:33:37.000Z</time>
      </trkpt>
      <trkpt lat="48.74243" lon="1.75483">
        <ele>177</ele>
        <time>2012-03-13T12:33:44.000Z</time>
      </trkpt>
      <trkpt lat="48.74254" lon="1.75441">
        <ele>176.80000305176</ele>
        <time>2012-03-13T12:33:52.000Z</time>
      </trkpt>
      <trkpt lat="48.74264" lon="1.75395">
        <ele>176.80000305176</ele>
        <time>2012-03-13T12:34:01.000Z</time>
      </trkpt>
      <trkpt lat="48.74271" lon="1.75368">
        <ele>176.60000610352</ele>
        <time>2012-03-13T12:34:06.000Z</time>
      </trkpt>
      <trkpt lat="48.74281" lon="1.75328">
        <ele>176.60000610352</ele>
        <time>2012-03-13T12:34:14.000Z</time>
      </trkpt>
      <trkpt lat="48.7429" lon="1.75287">
        <ele>176.39999389648</ele>
        <time>2012-03-13T12:34:22.000Z</time>
      </trkpt>
      <trkpt lat="48.74302" lon="1.7524">
        <ele>176.60000610352</ele>
        <time>2012-03-13T12:34:31.000Z</time>
      </trkpt>
      <trkpt lat="48.74311" lon="1.75199">
        <ele>177.39999389648</ele>
        <time>2012-03-13T12:34:39.000Z</time>
      </trkpt>
      <trkpt lat="48.74315" lon="1.75173">
        <ele>177.80000305176</ele>
        <time>2012-03-13T12:34:44.000Z</time>
      </trkpt>
      <trkpt lat="48.74322" lon="1.75143">
        <ele>178</ele>
        <time>2012-03-13T12:34:50.000Z</time>
      </trkpt>
      <trkpt lat="48.74325" lon="1.75118">
        <ele>178.19999694824</ele>
        <time>2012-03-13T12:34:55.000Z</time>
      </trkpt>
      <trkpt lat="48.74324" lon="1.75114">
        <ele>178.19999694824</ele>
        <time>2012-03-13T12:34:56.000Z</time>
      </trkpt>
      <trkpt lat="48.74311" lon="1.75111">
        <ele>178.39999389648</ele>
        <time>2012-03-13T12:35:01.000Z</time>
      </trkpt>
      <trkpt lat="48.74303" lon="1.75112">
        <ele>178.39999389648</ele>
        <time>2012-03-13T12:35:05.000Z</time>
      </trkpt>
      <trkpt lat="48.74306" lon="1.75114">
        <ele>178.39999389648</ele>
        <time>2012-03-13T12:35:10.000Z</time>
      </trkpt>
      <trkpt lat="48.74314" lon="1.75111">
        <ele>178.39999389648</ele>
        <time>2012-03-13T12:35:14.000Z</time>
      </trkpt>
      <trkpt lat="48.7433" lon="1.75108">
        <ele>178</ele>
        <time>2012-03-13T12:35:19.000Z</time>
      </trkpt>
      <trkpt lat="48.74339" lon="1.75081">
        <ele>178.19999694824</ele>
        <time>2012-03-13T12:35:25.000Z</time>
      </trkpt>
      <trkpt lat="48.74349" lon="1.75034">
        <ele>179</ele>
        <time>2012-03-13T12:35:34.000Z</time>
      </trkpt>
      <trkpt lat="48.74359" lon="1.74992">
        <ele>179.60000610352</ele>
        <time>2012-03-13T12:35:42.000Z</time>
      </trkpt>
      <trkpt lat="48.74367" lon="1.74962">
        <ele>179.39999389648</ele>
        <time>2012-03-13T12:35:48.000Z</time>
      </trkpt>
      <trkpt lat="48.74376" lon="1.74927">
        <ele>179.19999694824</ele>
        <time>2012-03-13T12:35:55.000Z</time>
      </trkpt>
      <trkpt lat="48.74384" lon="1.74898">
        <ele>178.80000305176</ele>
        <time>2012-03-13T12:36:01.000Z</time>
      </trkpt>
      <trkpt lat="48.74389" lon="1.74868">
        <ele>178.39999389648</ele>
        <time>2012-03-13T12:36:07.000Z</time>
      </trkpt>
      <trkpt lat="48.74397" lon="1.74839">
        <ele>178</ele>
        <time>2012-03-13T12:36:13.000Z</time>
      </trkpt>
      <trkpt lat="48.74405" lon="1.74803">
        <ele>178.80000305176</ele>
        <time>2012-03-13T12:36:20.000Z</time>
      </trkpt>
      <trkpt lat="48.74413" lon="1.74765">
        <ele>179.60000610352</ele>
        <time>2012-03-13T12:36:28.000Z</time>
      </trkpt>
      <trkpt lat="48.74423" lon="1.74732">
        <ele>179.80000305176</ele>
        <time>2012-03-13T12:36:35.000Z</time>
      </trkpt>
      <trkpt lat="48.74434" lon="1.74687">
        <ele>179.39999389648</ele>
        <time>2012-03-13T12:36:44.000Z</time>
      </trkpt>
      <trkpt lat="48.74444" lon="1.7465">
        <ele>179.19999694824</ele>
        <time>2012-03-13T12:36:52.000Z</time>
      </trkpt>
      <trkpt lat="48.74453" lon="1.74616">
        <ele>178.80000305176</ele>
        <time>2012-03-13T12:36:59.000Z</time>
      </trkpt>
      <trkpt lat="48.74462" lon="1.74578">
        <ele>178</ele>
        <time>2012-03-13T12:37:07.000Z</time>
      </trkpt>
      <trkpt lat="48.74469" lon="1.7455">
        <ele>178.19999694824</ele>
        <time>2012-03-13T12:37:14.000Z</time>
      </trkpt>
      <trkpt lat="48.74478" lon="1.74512">
        <ele>178.39999389648</ele>
        <time>2012-03-13T12:37:22.000Z</time>
      </trkpt>
      <trkpt lat="48.74488" lon="1.74474">
        <ele>179</ele>
        <time>2012-03-13T12:37:30.000Z</time>
      </trkpt>
      <trkpt lat="48.74496" lon="1.74432">
        <ele>179.80000305176</ele>
        <time>2012-03-13T12:37:39.000Z</time>
      </trkpt>
      <trkpt lat="48.74499" lon="1.74413">
        <ele>180</ele>
        <time>2012-03-13T12:37:45.000Z</time>
      </trkpt>
      <trkpt lat="48.74502" lon="1.74397">
        <ele>180</ele>
        <time>2012-03-13T12:37:52.000Z</time>
      </trkpt>
      <trkpt lat="48.74506" lon="1.74383">
        <ele>180.19999694824</ele>
        <time>2012-03-13T12:37:59.000Z</time>
      </trkpt>
      <trkpt lat="48.74511" lon="1.74358">
        <ele>180.39999389648</ele>
        <time>2012-03-13T12:38:10.000Z</time>
      </trkpt>
      <trkpt lat="48.74512" lon="1.74354">
        <ele>180.39999389648</ele>
        <time>2012-03-13T12:38:12.000Z</time>
      </trkpt>
      <trkpt lat="48.74514" lon="1.74346">
        <ele>180.39999389648</ele>
        <time>2012-03-13T12:38:16.000Z</time>
      </trkpt>
      <trkpt lat="48.7452" lon="1.74326">
        <ele>180.80000305176</ele>
        <time>2012-03-13T12:38:26.000Z</time>
      </trkpt>
      <trkpt lat="48.74523" lon="1.7432">
        <ele>180.80000305176</ele>
        <time>2012-03-13T12:38:29.000Z</time>
      </trkpt>
      <trkpt lat="48.74526" lon="1.74305">
        <ele>181</ele>
        <time>2012-03-13T12:38:37.000Z</time>
      </trkpt>
      <trkpt lat="48.74531" lon="1.74286">
        <ele>181</ele>
        <time>2012-03-13T12:38:46.000Z</time>
      </trkpt>
      <trkpt lat="48.74534" lon="1.74273">
        <ele>181</ele>
        <time>2012-03-13T12:38:52.000Z</time>
      </trkpt>
      <trkpt lat="48.74539" lon="1.7426">
        <ele>181</ele>
        <time>2012-03-13T12:38:59.000Z</time>
      </trkpt>
      <trkpt lat="48.74541" lon="1.74258">
        <ele>181</ele>
        <time>2012-03-13T12:39:00.000Z</time>
      </trkpt>
      <trkpt lat="48.74543" lon="1.74243">
        <ele>180.80000305176</ele>
        <time>2012-03-13T12:39:08.000Z</time>
      </trkpt>
      <trkpt lat="48.74545" lon="1.74226">
        <ele>180.39999389648</ele>
        <time>2012-03-13T12:39:15.000Z</time>
      </trkpt>
      <trkpt lat="48.74547" lon="1.74218">
        <ele>180.19999694824</ele>
        <time>2012-03-13T12:39:19.000Z</time>
      </trkpt>
      <trkpt lat="48.74551" lon="1.74205">
        <ele>179.60000610352</ele>
        <time>2012-03-13T12:39:26.000Z</time>
      </trkpt>
      <trkpt lat="48.74555" lon="1.74188">
        <ele>179</ele>
        <time>2012-03-13T12:39:33.000Z</time>
      </trkpt>
      <trkpt lat="48.7456" lon="1.74179">
        <ele>178.60000610352</ele>
        <time>2012-03-13T12:39:39.000Z</time>
      </trkpt>
      <trkpt lat="48.74562" lon="1.74176">
        <ele>178.39999389648</ele>
        <time>2012-03-13T12:39:44.000Z</time>
      </trkpt>
      <trkpt lat="48.74567" lon="1.74171">
        <ele>178</ele>
        <time>2012-03-13T12:39:51.000Z</time>
      </trkpt>
      <trkpt lat="48.74569" lon="1.74168">
        <ele>177.80000305176</ele>
        <time>2012-03-13T12:39:52.000Z</time>
      </trkpt>
      <trkpt lat="48.74574" lon="1.74158">
        <ele>176.80000305176</ele>
        <time>2012-03-13T12:39:58.000Z</time>
      </trkpt>
      <trkpt lat="48.74577" lon="1.7415">
        <ele>176</ele>
        <time>2012-03-13T12:40:04.000Z</time>
      </trkpt>
      <trkpt lat="48.74575" lon="1.74148">
        <ele>176</ele>
        <time>2012-03-13T12:40:06.000Z</time>
      </trkpt>
      <trkpt lat="48.74571" lon="1.74143">
        <ele>176</ele>
        <time>2012-03-13T12:40:13.000Z</time>
      </trkpt>
      <trkpt lat="48.7457" lon="1.74138">
        <ele>175.80000305176</ele>
        <time>2012-03-13T12:40:18.000Z</time>
      </trkpt>
      <trkpt lat="48.74568" lon="1.74132">
        <ele>175.39999389648</ele>
        <time>2012-03-13T12:40:20.000Z</time>
      </trkpt>
      <trkpt lat="48.74571" lon="1.74118">
        <ele>174.19999694824</ele>
        <time>2012-03-13T12:40:26.000Z</time>
      </trkpt>
      <trkpt lat="48.74566" lon="1.74113">
        <ele>174.39999389648</ele>
        <time>2012-03-13T12:40:31.000Z</time>
      </trkpt>
      <trkpt lat="48.74564" lon="1.74114">
        <ele>174.60000610352</ele>
        <time>2012-03-13T12:40:32.000Z</time>
      </trkpt>
      <trkpt lat="48.74554" lon="1.74116">
        <ele>175.80000305176</ele>
        <time>2012-03-13T12:40:38.000Z</time>
      </trkpt>
      <trkpt lat="48.74543" lon="1.7412">
        <ele>177.19999694824</ele>
        <time>2012-03-13T12:40:45.000Z</time>
      </trkpt>
      <trkpt lat="48.74532" lon="1.7413">
        <ele>178.60000610352</ele>
        <time>2012-03-13T12:40:54.000Z</time>
      </trkpt>
      <trkpt lat="48.74527" lon="1.74136">
        <ele>179.19999694824</ele>
        <time>2012-03-13T12:40:59.000Z</time>
      </trkpt>
      <trkpt lat="48.74523" lon="1.74141">
        <ele>179.60000610352</ele>
        <time>2012-03-13T12:41:05.000Z</time>
      </trkpt>
      <trkpt lat="48.74517" lon="1.74146">
        <ele>180</ele>
        <time>2012-03-13T12:41:09.000Z</time>
      </trkpt>
      <trkpt lat="48.74507" lon="1.74151">
        <ele>180.80000305176</ele>
        <time>2012-03-13T12:41:16.000Z</time>
      </trkpt>
      <trkpt lat="48.74499" lon="1.74159">
        <ele>181.19999694824</ele>
        <time>2012-03-13T12:41:22.000Z</time>
      </trkpt>
      <trkpt lat="48.7449" lon="1.74169">
        <ele>181.60000610352</ele>
        <time>2012-03-13T12:41:29.000Z</time>
      </trkpt>
      <trkpt lat="48.7448" lon="1.74176">
        <ele>182.19999694824</ele>
        <time>2012-03-13T12:41:36.000Z</time>
      </trkpt>
      <trkpt lat="48.74478" lon="1.74177">
        <ele>182.19999694824</ele>
        <time>2012-03-13T12:41:37.000Z</time>
      </trkpt>
      <trkpt lat="48.74473" lon="1.74172">
        <ele>182.60000610352</ele>
        <time>2012-03-13T12:41:44.000Z</time>
      </trkpt>
      <trkpt lat="48.74473" lon="1.74172">
        <ele>182.60000610352</ele>
        <time>2012-03-13T12:41:45.000Z</time>
      </trkpt>
      <trkpt lat="48.74467" lon="1.74171">
        <ele>183</ele>
        <time>2012-03-13T12:42:09.000Z</time>
      </trkpt>
      <trkpt lat="48.74458" lon="1.7418">
        <ele>183.39999389648</ele>
        <time>2012-03-13T12:42:15.000Z</time>
      </trkpt>
      <trkpt lat="48.74448" lon="1.74182">
        <ele>184</ele>
        <time>2012-03-13T12:42:21.000Z</time>
      </trkpt>
      <trkpt lat="48.74441" lon="1.7418">
        <ele>184.39999389648</ele>
        <time>2012-03-13T12:42:26.000Z</time>
      </trkpt>
      <trkpt lat="48.74428" lon="1.74174">
        <ele>185.19999694824</ele>
        <time>2012-03-13T12:42:34.000Z</time>
      </trkpt>
      <trkpt lat="48.74419" lon="1.74169">
        <ele>185.80000305176</ele>
        <time>2012-03-13T12:42:40.000Z</time>
      </trkpt>
      <trkpt lat="48.74412" lon="1.74164">
        <ele>185.80000305176</ele>
        <time>2012-03-13T12:42:45.000Z</time>
      </trkpt>
      <trkpt lat="48.74407" lon="1.74161">
        <ele>185.60000610352</ele>
        <time>2012-03-13T12:42:49.000Z</time>
      </trkpt>
      <trkpt lat="48.74394" lon="1.74156">
        <ele>185</ele>
        <time>2012-03-13T12:42:58.000Z</time>
      </trkpt>
      <trkpt lat="48.74385" lon="1.74153">
        <ele>184.80000305176</ele>
        <time>2012-03-13T12:43:05.000Z</time>
      </trkpt>
      <trkpt lat="48.7438" lon="1.74152">
        <ele>184.39999389648</ele>
        <time>2012-03-13T12:43:09.000Z</time>
      </trkpt>
      <trkpt lat="48.74368" lon="1.74145">
        <ele>184</ele>
        <time>2012-03-13T12:43:17.000Z</time>
      </trkpt>
      <trkpt lat="48.74357" lon="1.74138">
        <ele>183.60000610352</ele>
        <time>2012-03-13T12:43:25.000Z</time>
      </trkpt>
      <trkpt lat="48.74352" lon="1.74134">
        <ele>183.19999694824</ele>
        <time>2012-03-13T12:43:29.000Z</time>
      </trkpt>
      <trkpt lat="48.7434" lon="1.74128">
        <ele>182.80000305176</ele>
        <time>2012-03-13T12:43:37.000Z</time>
      </trkpt>
      <trkpt lat="48.74332" lon="1.74124">
        <ele>182.39999389648</ele>
        <time>2012-03-13T12:43:43.000Z</time>
      </trkpt>
      <trkpt lat="48.74326" lon="1.74117">
        <ele>182.39999389648</ele>
        <time>2012-03-13T12:43:48.000Z</time>
      </trkpt>
      <trkpt lat="48.74324" lon="1.74113">
        <ele>182.39999389648</ele>
        <time>2012-03-13T12:43:50.000Z</time>
      </trkpt>
      <trkpt lat="48.74315" lon="1.74108">
        <ele>182.19999694824</ele>
        <time>2012-03-13T12:43:57.000Z</time>
      </trkpt>
      <trkpt lat="48.74309" lon="1.74105">
        <ele>182.19999694824</ele>
        <time>2012-03-13T12:44:01.000Z</time>
      </trkpt>
      <trkpt lat="48.74295" lon="1.741">
        <ele>182</ele>
        <time>2012-03-13T12:44:11.000Z</time>
      </trkpt>
      <trkpt lat="48.74294" lon="1.741">
        <ele>182</ele>
        <time>2012-03-13T12:44:12.000Z</time>
      </trkpt>
      <trkpt lat="48.74293" lon="1.74101">
        <ele>182</ele>
        <time>2012-03-13T12:44:15.000Z</time>
      </trkpt>
      <trkpt lat="48.74289" lon="1.74095">
        <ele>181.80000305176</ele>
        <time>2012-03-13T12:44:31.000Z</time>
      </trkpt>
      <trkpt lat="48.74285" lon="1.74093">
        <ele>181.60000610352</ele>
        <time>2012-03-13T12:44:33.000Z</time>
      </trkpt>
      <trkpt lat="48.74273" lon="1.74088">
        <ele>181.39999389648</ele>
        <time>2012-03-13T12:44:43.000Z</time>
      </trkpt>
      <trkpt lat="48.74263" lon="1.74083">
        <ele>181.19999694824</ele>
        <time>2012-03-13T12:44:51.000Z</time>
      </trkpt>
      <trkpt lat="48.74249" lon="1.74076">
        <ele>180.80000305176</ele>
        <time>2012-03-13T12:45:00.000Z</time>
      </trkpt>
      <trkpt lat="48.74235" lon="1.74068">
        <ele>181.39999389648</ele>
        <time>2012-03-13T12:45:11.000Z</time>
      </trkpt>
      <trkpt lat="48.74224" lon="1.74063">
        <ele>181.80000305176</ele>
        <time>2012-03-13T12:45:18.000Z</time>
      </trkpt>
      <trkpt lat="48.74213" lon="1.74058">
        <ele>182.39999389648</ele>
        <time>2012-03-13T12:45:26.000Z</time>
      </trkpt>
      <trkpt lat="48.74202" lon="1.74053">
        <ele>183</ele>
        <time>2012-03-13T12:45:34.000Z</time>
      </trkpt>
      <trkpt lat="48.74192" lon="1.74048">
        <ele>183.60000610352</ele>
        <time>2012-03-13T12:45:41.000Z</time>
      </trkpt>
      <trkpt lat="48.7418" lon="1.74044">
        <ele>184.19999694824</ele>
        <time>2012-03-13T12:45:49.000Z</time>
      </trkpt>
      <trkpt lat="48.74169" lon="1.74039">
        <ele>184.80000305176</ele>
        <time>2012-03-13T12:45:56.000Z</time>
      </trkpt>
      <trkpt lat="48.74155" lon="1.74032">
        <ele>185</ele>
        <time>2012-03-13T12:46:06.000Z</time>
      </trkpt>
      <trkpt lat="48.74141" lon="1.74026">
        <ele>184.80000305176</ele>
        <time>2012-03-13T12:46:15.000Z</time>
      </trkpt>
      <trkpt lat="48.7413" lon="1.7402">
        <ele>184.80000305176</ele>
        <time>2012-03-13T12:46:23.000Z</time>
      </trkpt>
      <trkpt lat="48.74119" lon="1.74016">
        <ele>184.60000610352</ele>
        <time>2012-03-13T12:46:31.000Z</time>
      </trkpt>
      <trkpt lat="48.74106" lon="1.74011">
        <ele>184.39999389648</ele>
        <time>2012-03-13T12:46:40.000Z</time>
      </trkpt>
      <trkpt lat="48.74094" lon="1.74005">
        <ele>184.19999694824</ele>
        <time>2012-03-13T12:46:49.000Z</time>
      </trkpt>
      <trkpt lat="48.74091" lon="1.74004">
        <ele>184.19999694824</ele>
        <time>2012-03-13T12:46:52.000Z</time>
      </trkpt>
      <trkpt lat="48.7409" lon="1.74005">
        <ele>184.19999694824</ele>
        <time>2012-03-13T12:46:55.000Z</time>
      </trkpt>
      <trkpt lat="48.74083" lon="1.74003">
        <ele>184</ele>
        <time>2012-03-13T12:47:13.000Z</time>
      </trkpt>
      <trkpt lat="48.74079" lon="1.74001">
        <ele>183.80000305176</ele>
        <time>2012-03-13T12:47:15.000Z</time>
      </trkpt>
      <trkpt lat="48.74065" lon="1.73989">
        <ele>183</ele>
        <time>2012-03-13T12:47:26.000Z</time>
      </trkpt>
      <trkpt lat="48.74054" lon="1.73982">
        <ele>182.39999389648</ele>
        <time>2012-03-13T12:47:34.000Z</time>
      </trkpt>
      <trkpt lat="48.7405" lon="1.73982">
        <ele>182.19999694824</ele>
        <time>2012-03-13T12:47:39.000Z</time>
      </trkpt>
      <trkpt lat="48.74041" lon="1.73979">
        <ele>181.60000610352</ele>
        <time>2012-03-13T12:47:46.000Z</time>
      </trkpt>
      <trkpt lat="48.7403" lon="1.73975">
        <ele>181.19999694824</ele>
        <time>2012-03-13T12:47:53.000Z</time>
      </trkpt>
      <trkpt lat="48.74016" lon="1.7397">
        <ele>180.60000610352</ele>
        <time>2012-03-13T12:48:03.000Z</time>
      </trkpt>
      <trkpt lat="48.74005" lon="1.73964">
        <ele>180.39999389648</ele>
        <time>2012-03-13T12:48:11.000Z</time>
      </trkpt>
      <trkpt lat="48.7399" lon="1.73958">
        <ele>180</ele>
        <time>2012-03-13T12:48:21.000Z</time>
      </trkpt>
      <trkpt lat="48.73988" lon="1.73956">
        <ele>180</ele>
        <time>2012-03-13T12:48:25.000Z</time>
      </trkpt>
      <trkpt lat="48.73976" lon="1.7395">
        <ele>179.80000305176</ele>
        <time>2012-03-13T12:48:33.000Z</time>
      </trkpt>
      <trkpt lat="48.73968" lon="1.73945">
        <ele>179.80000305176</ele>
        <time>2012-03-13T12:48:39.000Z</time>
      </trkpt>
      <trkpt lat="48.73959" lon="1.73941">
        <ele>179.60000610352</ele>
        <time>2012-03-13T12:48:45.000Z</time>
      </trkpt>
      <trkpt lat="48.73947" lon="1.73934">
        <ele>179.39999389648</ele>
        <time>2012-03-13T12:48:53.000Z</time>
      </trkpt>
      <trkpt lat="48.73936" lon="1.73929">
        <ele>179.19999694824</ele>
        <time>2012-03-13T12:49:00.000Z</time>
      </trkpt>
      <trkpt lat="48.73924" lon="1.73921">
        <ele>179</ele>
        <time>2012-03-13T12:49:08.000Z</time>
      </trkpt>
      <trkpt lat="48.73913" lon="1.73916">
        <ele>178.80000305176</ele>
        <time>2012-03-13T12:49:15.000Z</time>
      </trkpt>
      <trkpt lat="48.73907" lon="1.73924">
        <ele>178.19999694824</ele>
        <time>2012-03-13T12:49:21.000Z</time>
      </trkpt>
      <trkpt lat="48.73907" lon="1.73926">
        <ele>178</ele>
        <time>2012-03-13T12:49:22.000Z</time>
      </trkpt>
      <trkpt lat="48.7391" lon="1.73939">
        <ele>177.39999389648</ele>
        <time>2012-03-13T12:49:27.000Z</time>
      </trkpt>
      <trkpt lat="48.73914" lon="1.73956">
        <ele>176.60000610352</ele>
        <time>2012-03-13T12:49:34.000Z</time>
      </trkpt>
      <trkpt lat="48.73914" lon="1.73972">
        <ele>175.60000610352</ele>
        <time>2012-03-13T12:49:41.000Z</time>
      </trkpt>
      <trkpt lat="48.73914" lon="1.73979">
        <ele>175</ele>
        <time>2012-03-13T12:49:44.000Z</time>
      </trkpt>
      <trkpt lat="48.73916" lon="1.73994">
        <ele>174.19999694824</ele>
        <time>2012-03-13T12:49:51.000Z</time>
      </trkpt>
      <trkpt lat="48.73917" lon="1.74014">
        <ele>173</ele>
        <time>2012-03-13T12:49:59.000Z</time>
      </trkpt>
      <trkpt lat="48.7392" lon="1.74031">
        <ele>172</ele>
        <time>2012-03-13T12:50:07.000Z</time>
      </trkpt>
      <trkpt lat="48.73921" lon="1.74043">
        <ele>171.19999694824</ele>
        <time>2012-03-13T12:50:13.000Z</time>
      </trkpt>
      <trkpt lat="48.73924" lon="1.74057">
        <ele>170.39999389648</ele>
        <time>2012-03-13T12:50:21.000Z</time>
      </trkpt>
      <trkpt lat="48.73925" lon="1.74072">
        <ele>169.39999389648</ele>
        <time>2012-03-13T12:50:28.000Z</time>
      </trkpt>
      <trkpt lat="48.73928" lon="1.7409">
        <ele>168.60000610352</ele>
        <time>2012-03-13T12:50:36.000Z</time>
      </trkpt>
      <trkpt lat="48.73928" lon="1.74104">
        <ele>167.80000305176</ele>
        <time>2012-03-13T12:50:42.000Z</time>
      </trkpt>
      <trkpt lat="48.73929" lon="1.74122">
        <ele>167</ele>
        <time>2012-03-13T12:50:49.000Z</time>
      </trkpt>
      <trkpt lat="48.7393" lon="1.74136">
        <ele>166.60000610352</ele>
        <time>2012-03-13T12:50:54.000Z</time>
      </trkpt>
      <trkpt lat="48.73934" lon="1.74156">
        <ele>166.19999694824</ele>
        <time>2012-03-13T12:51:02.000Z</time>
      </trkpt>
      <trkpt lat="48.73936" lon="1.74176">
        <ele>166</ele>
        <time>2012-03-13T12:51:09.000Z</time>
      </trkpt>
      <trkpt lat="48.73938" lon="1.74184">
        <ele>166.39999389648</ele>
        <time>2012-03-13T12:51:15.000Z</time>
      </trkpt>
      <trkpt lat="48.73939" lon="1.74193">
        <ele>166.60000610352</ele>
        <time>2012-03-13T12:51:20.000Z</time>
      </trkpt>
      <trkpt lat="48.7394" lon="1.74201">
        <ele>166.60000610352</ele>
        <time>2012-03-13T12:51:24.000Z</time>
      </trkpt>
      <trkpt lat="48.73942" lon="1.74219">
        <ele>166.80000305176</ele>
        <time>2012-03-13T12:51:31.000Z</time>
      </trkpt>
      <trkpt lat="48.73942" lon="1.74233">
        <ele>167</ele>
        <time>2012-03-13T12:51:38.000Z</time>
      </trkpt>
      <trkpt lat="48.73943" lon="1.74239">
        <ele>167.19999694824</ele>
        <time>2012-03-13T12:51:42.000Z</time>
      </trkpt>
      <trkpt lat="48.73947" lon="1.74255">
        <ele>167.60000610352</ele>
        <time>2012-03-13T12:51:49.000Z</time>
      </trkpt>
      <trkpt lat="48.7395" lon="1.74274">
        <ele>167.60000610352</ele>
        <time>2012-03-13T12:51:56.000Z</time>
      </trkpt>
      <trkpt lat="48.73951" lon="1.74288">
        <ele>167.39999389648</ele>
        <time>2012-03-13T12:52:02.000Z</time>
      </trkpt>
      <trkpt lat="48.73953" lon="1.74295">
        <ele>167.60000610352</ele>
        <time>2012-03-13T12:52:06.000Z</time>
      </trkpt>
      <trkpt lat="48.73953" lon="1.74312">
        <ele>167.19999694824</ele>
        <time>2012-03-13T12:52:13.000Z</time>
      </trkpt>
      <trkpt lat="48.73956" lon="1.7433">
        <ele>167.19999694824</ele>
        <time>2012-03-13T12:52:21.000Z</time>
      </trkpt>
      <trkpt lat="48.73958" lon="1.74348">
        <ele>167</ele>
        <time>2012-03-13T12:52:29.000Z</time>
      </trkpt>
      <trkpt lat="48.73958" lon="1.74364">
        <ele>166.60000610352</ele>
        <time>2012-03-13T12:52:36.000Z</time>
      </trkpt>
      <trkpt lat="48.73961" lon="1.7438">
        <ele>166.39999389648</ele>
        <time>2012-03-13T12:52:42.000Z</time>
      </trkpt>
      <trkpt lat="48.73961" lon="1.74382">
        <ele>166.39999389648</ele>
        <time>2012-03-13T12:52:43.000Z</time>
      </trkpt>
      <trkpt lat="48.73963" lon="1.74395">
        <ele>166.19999694824</ele>
        <time>2012-03-13T12:52:50.000Z</time>
      </trkpt>
      <trkpt lat="48.73964" lon="1.74397">
        <ele>166.19999694824</ele>
        <time>2012-03-13T12:52:51.000Z</time>
      </trkpt>
      <trkpt lat="48.73966" lon="1.74416">
        <ele>166</ele>
        <time>2012-03-13T12:53:00.000Z</time>
      </trkpt>
      <trkpt lat="48.73968" lon="1.74428">
        <ele>165.80000305176</ele>
        <time>2012-03-13T12:53:06.000Z</time>
      </trkpt>
      <trkpt lat="48.73972" lon="1.74448">
        <ele>165.60000610352</ele>
        <time>2012-03-13T12:53:14.000Z</time>
      </trkpt>
      <trkpt lat="48.73973" lon="1.74464">
        <ele>165</ele>
        <time>2012-03-13T12:53:20.000Z</time>
      </trkpt>
      <trkpt lat="48.73974" lon="1.74481">
        <ele>164.60000610352</ele>
        <time>2012-03-13T12:53:27.000Z</time>
      </trkpt>
      <trkpt lat="48.73979" lon="1.74498">
        <ele>164.19999694824</ele>
        <time>2012-03-13T12:53:34.000Z</time>
      </trkpt>
      <trkpt lat="48.73979" lon="1.74511">
        <ele>164.60000610352</ele>
        <time>2012-03-13T12:53:41.000Z</time>
      </trkpt>
      <trkpt lat="48.7398" lon="1.74525">
        <ele>165.19999694824</ele>
        <time>2012-03-13T12:53:46.000Z</time>
      </trkpt>
      <trkpt lat="48.73982" lon="1.74535">
        <ele>165.60000610352</ele>
        <time>2012-03-13T12:53:51.000Z</time>
      </trkpt>
      <trkpt lat="48.73985" lon="1.74553">
        <ele>166.19999694824</ele>
        <time>2012-03-13T12:53:59.000Z</time>
      </trkpt>
      <trkpt lat="48.73986" lon="1.7456">
        <ele>166.39999389648</ele>
        <time>2012-03-13T12:54:02.000Z</time>
      </trkpt>
      <trkpt lat="48.73988" lon="1.74575">
        <ele>166.80000305176</ele>
        <time>2012-03-13T12:54:07.000Z</time>
      </trkpt>
      <trkpt lat="48.73991" lon="1.7462">
        <ele>171.60000610352</ele>
        <time>2012-03-13T12:54:15.000Z</time>
      </trkpt>
      <trkpt lat="48.73992" lon="1.74653">
        <ele>175.60000610352</ele>
        <time>2012-03-13T12:54:20.000Z</time>
      </trkpt>
      <trkpt lat="48.74001" lon="1.74698">
        <ele>181</ele>
        <time>2012-03-13T12:54:28.000Z</time>
      </trkpt>
      <trkpt lat="48.74004" lon="1.74722">
        <ele>183.39999389648</ele>
        <time>2012-03-13T12:54:33.000Z</time>
      </trkpt>
      <trkpt lat="48.74006" lon="1.74736">
        <ele>184.80000305176</ele>
        <time>2012-03-13T12:54:38.000Z</time>
      </trkpt>
      <trkpt lat="48.74006" lon="1.74738">
        <ele>185</ele>
        <time>2012-03-13T12:54:39.000Z</time>
      </trkpt>
      <trkpt lat="48.7401" lon="1.74749">
        <ele>186</ele>
        <time>2012-03-13T12:54:45.000Z</time>
      </trkpt>
      <trkpt lat="48.74009" lon="1.74757">
        <ele>186</ele>
        <time>2012-03-13T12:54:48.000Z</time>
      </trkpt>
      <trkpt lat="48.74011" lon="1.74764">
        <ele>186.19999694824</ele>
        <time>2012-03-13T12:54:51.000Z</time>
      </trkpt>
      <trkpt lat="48.74013" lon="1.74777">
        <ele>186.39999389648</ele>
        <time>2012-03-13T12:54:57.000Z</time>
      </trkpt>
      <trkpt lat="48.74014" lon="1.74796">
        <ele>186.60000610352</ele>
        <time>2012-03-13T12:55:05.000Z</time>
      </trkpt>
      <trkpt lat="48.74017" lon="1.74813">
        <ele>186.80000305176</ele>
        <time>2012-03-13T12:55:12.000Z</time>
      </trkpt>
      <trkpt lat="48.74017" lon="1.74828">
        <ele>187</ele>
        <time>2012-03-13T12:55:17.000Z</time>
      </trkpt>
      <trkpt lat="48.7402" lon="1.74843">
        <ele>186.80000305176</ele>
        <time>2012-03-13T12:55:24.000Z</time>
      </trkpt>
      <trkpt lat="48.74022" lon="1.74858">
        <ele>186.39999389648</ele>
        <time>2012-03-13T12:55:30.000Z</time>
      </trkpt>
      <trkpt lat="48.74023" lon="1.74864">
        <ele>186.39999389648</ele>
        <time>2012-03-13T12:55:32.000Z</time>
      </trkpt>
      <trkpt lat="48.74023" lon="1.74886">
        <ele>186</ele>
        <time>2012-03-13T12:55:40.000Z</time>
      </trkpt>
      <trkpt lat="48.74023" lon="1.74893">
        <ele>185.80000305176</ele>
        <time>2012-03-13T12:55:43.000Z</time>
      </trkpt>
      <trkpt lat="48.74024" lon="1.74903">
        <ele>185.60000610352</ele>
        <time>2012-03-13T12:55:47.000Z</time>
      </trkpt>
      <trkpt lat="48.74026" lon="1.74921">
        <ele>185.39999389648</ele>
        <time>2012-03-13T12:55:55.000Z</time>
      </trkpt>
      <trkpt lat="48.74027" lon="1.74936">
        <ele>185.39999389648</ele>
        <time>2012-03-13T12:56:02.000Z</time>
      </trkpt>
      <trkpt lat="48.74028" lon="1.74944">
        <ele>185.60000610352</ele>
        <time>2012-03-13T12:56:05.000Z</time>
      </trkpt>
      <trkpt lat="48.74029" lon="1.74956">
        <ele>185.60000610352</ele>
        <time>2012-03-13T12:56:10.000Z</time>
      </trkpt>
      <trkpt lat="48.74032" lon="1.74974">
        <ele>185.80000305176</ele>
        <time>2012-03-13T12:56:17.000Z</time>
      </trkpt>
      <trkpt lat="48.74031" lon="1.74987">
        <ele>186</ele>
        <time>2012-03-13T12:56:22.000Z</time>
      </trkpt>
      <trkpt lat="48.74025" lon="1.74992">
        <ele>186</ele>
        <time>2012-03-13T12:56:27.000Z</time>
      </trkpt>
      <trkpt lat="48.74019" lon="1.74991">
        <ele>186</ele>
        <time>2012-03-13T12:56:34.000Z</time>
      </trkpt>
      <trkpt lat="48.74013" lon="1.74986">
        <ele>185.80000305176</ele>
        <time>2012-03-13T12:56:42.000Z</time>
      </trkpt>
      <trkpt lat="48.74006" lon="1.74977">
        <ele>185.80000305176</ele>
        <time>2012-03-13T12:56:48.000Z</time>
      </trkpt>
      <trkpt lat="48.74" lon="1.7497">
        <ele>185.60000610352</ele>
        <time>2012-03-13T12:56:54.000Z</time>
      </trkpt>
      <trkpt lat="48.73993" lon="1.74959">
        <ele>184.80000305176</ele>
        <time>2012-03-13T12:57:01.000Z</time>
      </trkpt>
      <trkpt lat="48.7399" lon="1.74953">
        <ele>184.19999694824</ele>
        <time>2012-03-13T12:57:04.000Z</time>
      </trkpt>
      <trkpt lat="48.73983" lon="1.74943">
        <ele>183.19999694824</ele>
        <time>2012-03-13T12:57:11.000Z</time>
      </trkpt>
      <trkpt lat="48.73975" lon="1.74932">
        <ele>181.80000305176</ele>
        <time>2012-03-13T12:57:18.000Z</time>
      </trkpt>
      <trkpt lat="48.73969" lon="1.74921">
        <ele>180.80000305176</ele>
        <time>2012-03-13T12:57:24.000Z</time>
      </trkpt>
      <trkpt lat="48.73963" lon="1.74908">
        <ele>179.80000305176</ele>
        <time>2012-03-13T12:57:31.000Z</time>
      </trkpt>
      <trkpt lat="48.73956" lon="1.74894">
        <ele>178.80000305176</ele>
        <time>2012-03-13T12:57:41.000Z</time>
      </trkpt>
      <trkpt lat="48.73951" lon="1.74882">
        <ele>178.19999694824</ele>
        <time>2012-03-13T12:57:50.000Z</time>
      </trkpt>
      <trkpt lat="48.73945" lon="1.74871">
        <ele>177.39999389648</ele>
        <time>2012-03-13T12:57:57.000Z</time>
      </trkpt>
      <trkpt lat="48.73938" lon="1.74858">
        <ele>176.39999389648</ele>
        <time>2012-03-13T12:58:04.000Z</time>
      </trkpt>
      <trkpt lat="48.73936" lon="1.74855">
        <ele>176</ele>
        <time>2012-03-13T12:58:06.000Z</time>
      </trkpt>
      <trkpt lat="48.73933" lon="1.74848">
        <ele>175.60000610352</ele>
        <time>2012-03-13T12:58:10.000Z</time>
      </trkpt>
      <trkpt lat="48.73922" lon="1.74831">
        <ele>174</ele>
        <time>2012-03-13T12:58:20.000Z</time>
      </trkpt>
      <trkpt lat="48.73916" lon="1.7482">
        <ele>173</ele>
        <time>2012-03-13T12:58:27.000Z</time>
      </trkpt>
      <trkpt lat="48.73907" lon="1.74806">
        <ele>172</ele>
        <time>2012-03-13T12:58:35.000Z</time>
      </trkpt>
      <trkpt lat="48.73901" lon="1.74795">
        <ele>171.39999389648</ele>
        <time>2012-03-13T12:58:41.000Z</time>
      </trkpt>
      <trkpt lat="48.73893" lon="1.74781">
        <ele>170.39999389648</ele>
        <time>2012-03-13T12:58:48.000Z</time>
      </trkpt>
      <trkpt lat="48.73886" lon="1.74768">
        <ele>169.39999389648</ele>
        <time>2012-03-13T12:58:56.000Z</time>
      </trkpt>
      <trkpt lat="48.73878" lon="1.74756">
        <ele>168.39999389648</ele>
        <time>2012-03-13T12:59:03.000Z</time>
      </trkpt>
      <trkpt lat="48.73873" lon="1.74747">
        <ele>167.60000610352</ele>
        <time>2012-03-13T12:59:09.000Z</time>
      </trkpt>
      <trkpt lat="48.73866" lon="1.74735">
        <ele>166.80000305176</ele>
        <time>2012-03-13T12:59:16.000Z</time>
      </trkpt>
      <trkpt lat="48.73861" lon="1.74721">
        <ele>166</ele>
        <time>2012-03-13T12:59:22.000Z</time>
      </trkpt>
      <trkpt lat="48.73854" lon="1.74708">
        <ele>165</ele>
        <time>2012-03-13T12:59:29.000Z</time>
      </trkpt>
      <trkpt lat="48.73847" lon="1.74696">
        <ele>164.19999694824</ele>
        <time>2012-03-13T12:59:36.000Z</time>
      </trkpt>
      <trkpt lat="48.7384" lon="1.7468">
        <ele>163.60000610352</ele>
        <time>2012-03-13T12:59:45.000Z</time>
      </trkpt>
      <trkpt lat="48.73833" lon="1.74672">
        <ele>163</ele>
        <time>2012-03-13T12:59:51.000Z</time>
      </trkpt>
      <trkpt lat="48.73825" lon="1.74658">
        <ele>162</ele>
        <time>2012-03-13T12:59:58.000Z</time>
      </trkpt>
      <trkpt lat="48.73818" lon="1.74645">
        <ele>161.19999694824</ele>
        <time>2012-03-13T13:00:05.000Z</time>
      </trkpt>
      <trkpt lat="48.73811" lon="1.74635">
        <ele>160.60000610352</ele>
        <time>2012-03-13T13:00:11.000Z</time>
      </trkpt>
      <trkpt lat="48.73802" lon="1.74618">
        <ele>159.39999389648</ele>
        <time>2012-03-13T13:00:20.000Z</time>
      </trkpt>
      <trkpt lat="48.73794" lon="1.74605">
        <ele>158.60000610352</ele>
        <time>2012-03-13T13:00:27.000Z</time>
      </trkpt>
      <trkpt lat="48.73784" lon="1.7459">
        <ele>157.39999389648</ele>
        <time>2012-03-13T13:00:36.000Z</time>
      </trkpt>
      <trkpt lat="48.73777" lon="1.74576">
        <ele>156.39999389648</ele>
        <time>2012-03-13T13:00:44.000Z</time>
      </trkpt>
      <trkpt lat="48.73771" lon="1.74565">
        <ele>155.80000305176</ele>
        <time>2012-03-13T13:00:50.000Z</time>
      </trkpt>
      <trkpt lat="48.73768" lon="1.74558">
        <ele>155.39999389648</ele>
        <time>2012-03-13T13:00:54.000Z</time>
      </trkpt>
      <trkpt lat="48.73764" lon="1.74554">
        <ele>155.19999694824</ele>
        <time>2012-03-13T13:00:57.000Z</time>
      </trkpt>
      <trkpt lat="48.73755" lon="1.74539">
        <ele>154.39999389648</ele>
        <time>2012-03-13T13:01:05.000Z</time>
      </trkpt>
      <trkpt lat="48.73748" lon="1.74528">
        <ele>154</ele>
        <time>2012-03-13T13:01:11.000Z</time>
      </trkpt>
      <trkpt lat="48.7374" lon="1.74516">
        <ele>153.60000610352</ele>
        <time>2012-03-13T13:01:18.000Z</time>
      </trkpt>
      <trkpt lat="48.73738" lon="1.74513">
        <ele>153.39999389648</ele>
        <time>2012-03-13T13:01:20.000Z</time>
      </trkpt>
      <trkpt lat="48.73732" lon="1.74504">
        <ele>153.19999694824</ele>
        <time>2012-03-13T13:01:25.000Z</time>
      </trkpt>
      <trkpt lat="48.73723" lon="1.7449">
        <ele>152.60000610352</ele>
        <time>2012-03-13T13:01:33.000Z</time>
      </trkpt>
      <trkpt lat="48.73716" lon="1.74476">
        <ele>152</ele>
        <time>2012-03-13T13:01:41.000Z</time>
      </trkpt>
      <trkpt lat="48.73713" lon="1.7447">
        <ele>151.80000305176</ele>
        <time>2012-03-13T13:01:44.000Z</time>
      </trkpt>
      <trkpt lat="48.73708" lon="1.7446">
        <ele>151.39999389648</ele>
        <time>2012-03-13T13:01:50.000Z</time>
      </trkpt>
      <trkpt lat="48.73701" lon="1.74447">
        <ele>151.19999694824</ele>
        <time>2012-03-13T13:01:57.000Z</time>
      </trkpt>
      <trkpt lat="48.73693" lon="1.74435">
        <ele>150.80000305176</ele>
        <time>2012-03-13T13:02:04.000Z</time>
      </trkpt>
      <trkpt lat="48.73686" lon="1.74424">
        <ele>150.39999389648</ele>
        <time>2012-03-13T13:02:11.000Z</time>
      </trkpt>
      <trkpt lat="48.73678" lon="1.74416">
        <ele>150.19999694824</ele>
        <time>2012-03-13T13:02:17.000Z</time>
      </trkpt>
      <trkpt lat="48.73673" lon="1.74406">
        <ele>150</ele>
        <time>2012-03-13T13:02:22.000Z</time>
      </trkpt>
      <trkpt lat="48.73668" lon="1.74396">
        <ele>149.60000610352</ele>
        <time>2012-03-13T13:02:29.000Z</time>
      </trkpt>
      <trkpt lat="48.73662" lon="1.74384">
        <ele>148.80000305176</ele>
        <time>2012-03-13T13:02:36.000Z</time>
      </trkpt>
      <trkpt lat="48.73655" lon="1.74371">
        <ele>148</ele>
        <time>2012-03-13T13:02:43.000Z</time>
      </trkpt>
      <trkpt lat="48.73649" lon="1.7436">
        <ele>147.19999694824</ele>
        <time>2012-03-13T13:02:49.000Z</time>
      </trkpt>
      <trkpt lat="48.73642" lon="1.74346">
        <ele>146.39999389648</ele>
        <time>2012-03-13T13:02:56.000Z</time>
      </trkpt>
      <trkpt lat="48.73632" lon="1.74329">
        <ele>145.60000610352</ele>
        <time>2012-03-13T13:03:05.000Z</time>
      </trkpt>
      <trkpt lat="48.73619" lon="1.74312">
        <ele>144.60000610352</ele>
        <time>2012-03-13T13:03:16.000Z</time>
      </trkpt>
      <trkpt lat="48.7361" lon="1.74295">
        <ele>143.80000305176</ele>
        <time>2012-03-13T13:03:25.000Z</time>
      </trkpt>
      <trkpt lat="48.73599" lon="1.74276">
        <ele>142.80000305176</ele>
        <time>2012-03-13T13:03:35.000Z</time>
      </trkpt>
      <trkpt lat="48.73587" lon="1.74258">
        <ele>141.39999389648</ele>
        <time>2012-03-13T13:03:46.000Z</time>
      </trkpt>
      <trkpt lat="48.73581" lon="1.74247">
        <ele>141</ele>
        <time>2012-03-13T13:03:53.000Z</time>
      </trkpt>
      <trkpt lat="48.73579" lon="1.74245">
        <ele>141.19999694824</ele>
        <time>2012-03-13T13:03:58.000Z</time>
      </trkpt>
      <trkpt lat="48.73574" lon="1.74241">
        <ele>141.19999694824</ele>
        <time>2012-03-13T13:04:10.000Z</time>
      </trkpt>
      <trkpt lat="48.73571" lon="1.74241">
        <ele>141</ele>
        <time>2012-03-13T13:04:11.000Z</time>
      </trkpt>
      <trkpt lat="48.73567" lon="1.74257">
        <ele>140.60000610352</ele>
        <time>2012-03-13T13:04:18.000Z</time>
      </trkpt>
      <trkpt lat="48.73567" lon="1.74259">
        <ele>140.60000610352</ele>
        <time>2012-03-13T13:04:19.000Z</time>
      </trkpt>
      <trkpt lat="48.73566" lon="1.7428">
        <ele>140.80000305176</ele>
        <time>2012-03-13T13:04:28.000Z</time>
      </trkpt>
      <trkpt lat="48.73564" lon="1.74303">
        <ele>140.80000305176</ele>
        <time>2012-03-13T13:04:37.000Z</time>
      </trkpt>
      <trkpt lat="48.73564" lon="1.7432">
        <ele>141</ele>
        <time>2012-03-13T13:04:44.000Z</time>
      </trkpt>
      <trkpt lat="48.73565" lon="1.74345">
        <ele>141.19999694824</ele>
        <time>2012-03-13T13:04:55.000Z</time>
      </trkpt>
      <trkpt lat="48.73564" lon="1.74365">
        <ele>141.39999389648</ele>
        <time>2012-03-13T13:05:03.000Z</time>
      </trkpt>
      <trkpt lat="48.73564" lon="1.74382">
        <ele>141.60000610352</ele>
        <time>2012-03-13T13:05:10.000Z</time>
      </trkpt>
      <trkpt lat="48.73563" lon="1.744">
        <ele>141.80000305176</ele>
        <time>2012-03-13T13:05:17.000Z</time>
      </trkpt>
      <trkpt lat="48.73562" lon="1.74414">
        <ele>142</ele>
        <time>2012-03-13T13:05:23.000Z</time>
      </trkpt>
      <trkpt lat="48.73562" lon="1.74443">
        <ele>142.39999389648</ele>
        <time>2012-03-13T13:05:35.000Z</time>
      </trkpt>
      <trkpt lat="48.73564" lon="1.74474">
        <ele>143</ele>
        <time>2012-03-13T13:05:48.000Z</time>
      </trkpt>
      <trkpt lat="48.73566" lon="1.745">
        <ele>143.60000610352</ele>
        <time>2012-03-13T13:05:59.000Z</time>
      </trkpt>
      <trkpt lat="48.73566" lon="1.74507">
        <ele>143.80000305176</ele>
        <time>2012-03-13T13:06:02.000Z</time>
      </trkpt>
      <trkpt lat="48.73558" lon="1.74512">
        <ele>143.60000610352</ele>
        <time>2012-03-13T13:06:08.000Z</time>
      </trkpt>
      <trkpt lat="48.73547" lon="1.74505">
        <ele>143.19999694824</ele>
        <time>2012-03-13T13:06:15.000Z</time>
      </trkpt>
      <trkpt lat="48.73534" lon="1.74492">
        <ele>142.60000610352</ele>
        <time>2012-03-13T13:06:24.000Z</time>
      </trkpt>
      <trkpt lat="48.7352" lon="1.74478">
        <ele>141.80000305176</ele>
        <time>2012-03-13T13:06:34.000Z</time>
      </trkpt>
      <trkpt lat="48.73503" lon="1.74458">
        <ele>140.60000610352</ele>
        <time>2012-03-13T13:06:47.000Z</time>
      </trkpt>
      <trkpt lat="48.73493" lon="1.74445">
        <ele>140</ele>
        <time>2012-03-13T13:06:56.000Z</time>
      </trkpt>
      <trkpt lat="48.73488" lon="1.74439">
        <ele>140</ele>
        <time>2012-03-13T13:07:00.000Z</time>
      </trkpt>
      <trkpt lat="48.73477" lon="1.74427">
        <ele>139.80000305176</ele>
        <time>2012-03-13T13:07:08.000Z</time>
      </trkpt>
      <trkpt lat="48.73465" lon="1.74414">
        <ele>139.80000305176</ele>
        <time>2012-03-13T13:07:17.000Z</time>
      </trkpt>
      <trkpt lat="48.73454" lon="1.74403">
        <ele>140</ele>
        <time>2012-03-13T13:07:25.000Z</time>
      </trkpt>
      <trkpt lat="48.73443" lon="1.74392">
        <ele>140</ele>
        <time>2012-03-13T13:07:33.000Z</time>
      </trkpt>
      <trkpt lat="48.73435" lon="1.74382">
        <ele>140.19999694824</ele>
        <time>2012-03-13T13:07:40.000Z</time>
      </trkpt>
      <trkpt lat="48.73424" lon="1.74372">
        <ele>140.19999694824</ele>
        <time>2012-03-13T13:07:48.000Z</time>
      </trkpt>
      <trkpt lat="48.73412" lon="1.7436">
        <ele>140.39999389648</ele>
        <time>2012-03-13T13:07:57.000Z</time>
      </trkpt>
      <trkpt lat="48.73398" lon="1.74345">
        <ele>140.39999389648</ele>
        <time>2012-03-13T13:08:08.000Z</time>
      </trkpt>
      <trkpt lat="48.73385" lon="1.74334">
        <ele>140.39999389648</ele>
        <time>2012-03-13T13:08:18.000Z</time>
      </trkpt>
      <trkpt lat="48.73375" lon="1.74326">
        <ele>140.39999389648</ele>
        <time>2012-03-13T13:08:26.000Z</time>
      </trkpt>
      <trkpt lat="48.73364" lon="1.74316">
        <ele>140.39999389648</ele>
        <time>2012-03-13T13:08:34.000Z</time>
      </trkpt>
      <trkpt lat="48.73351" lon="1.74303">
        <ele>140.39999389648</ele>
        <time>2012-03-13T13:08:44.000Z</time>
      </trkpt>
      <trkpt lat="48.73337" lon="1.74288">
        <ele>140.39999389648</ele>
        <time>2012-03-13T13:08:54.000Z</time>
      </trkpt>
      <trkpt lat="48.73334" lon="1.74286">
        <ele>140.39999389648</ele>
        <time>2012-03-13T13:08:59.000Z</time>
      </trkpt>
      <trkpt lat="48.7333" lon="1.74282">
        <ele>140.39999389648</ele>
        <time>2012-03-13T13:09:04.000Z</time>
      </trkpt>
      <trkpt lat="48.7332" lon="1.7427">
        <ele>140.39999389648</ele>
        <time>2012-03-13T13:09:11.000Z</time>
      </trkpt>
      <trkpt lat="48.73305" lon="1.74253">
        <ele>140.39999389648</ele>
        <time>2012-03-13T13:09:22.000Z</time>
      </trkpt>
      <trkpt lat="48.73296" lon="1.74242">
        <ele>140.60000610352</ele>
        <time>2012-03-13T13:09:30.000Z</time>
      </trkpt>
      <trkpt lat="48.73288" lon="1.74235">
        <ele>140.80000305176</ele>
        <time>2012-03-13T13:09:36.000Z</time>
      </trkpt>
      <trkpt lat="48.73279" lon="1.74224">
        <ele>141</ele>
        <time>2012-03-13T13:09:43.000Z</time>
      </trkpt>
      <trkpt lat="48.73273" lon="1.74217">
        <ele>141.19999694824</ele>
        <time>2012-03-13T13:09:48.000Z</time>
      </trkpt>
      <trkpt lat="48.73263" lon="1.74207">
        <ele>141.39999389648</ele>
        <time>2012-03-13T13:09:56.000Z</time>
      </trkpt>
      <trkpt lat="48.73252" lon="1.74195">
        <ele>141.60000610352</ele>
        <time>2012-03-13T13:10:05.000Z</time>
      </trkpt>
      <trkpt lat="48.73241" lon="1.74183">
        <ele>141.80000305176</ele>
        <time>2012-03-13T13:10:14.000Z</time>
      </trkpt>
      <trkpt lat="48.73231" lon="1.74173">
        <ele>141.80000305176</ele>
        <time>2012-03-13T13:10:22.000Z</time>
      </trkpt>
      <trkpt lat="48.73221" lon="1.74161">
        <ele>141.60000610352</ele>
        <time>2012-03-13T13:10:31.000Z</time>
      </trkpt>
      <trkpt lat="48.73212" lon="1.74152">
        <ele>141.39999389648</ele>
        <time>2012-03-13T13:10:38.000Z</time>
      </trkpt>
      <trkpt lat="48.73203" lon="1.74143">
        <ele>141.39999389648</ele>
        <time>2012-03-13T13:10:45.000Z</time>
      </trkpt>
      <trkpt lat="48.73193" lon="1.74132">
        <ele>141.19999694824</ele>
        <time>2012-03-13T13:10:53.000Z</time>
      </trkpt>
      <trkpt lat="48.73183" lon="1.74125">
        <ele>141.19999694824</ele>
        <time>2012-03-13T13:11:00.000Z</time>
      </trkpt>
      <trkpt lat="48.73171" lon="1.74112">
        <ele>141</ele>
        <time>2012-03-13T13:11:10.000Z</time>
      </trkpt>
      <trkpt lat="48.7316" lon="1.74099">
        <ele>140.80000305176</ele>
        <time>2012-03-13T13:11:19.000Z</time>
      </trkpt>
      <trkpt lat="48.73151" lon="1.74089">
        <ele>140.39999389648</ele>
        <time>2012-03-13T13:11:26.000Z</time>
      </trkpt>
      <trkpt lat="48.73147" lon="1.74086">
        <ele>140.39999389648</ele>
        <time>2012-03-13T13:11:32.000Z</time>
      </trkpt>
      <trkpt lat="48.73131" lon="1.74069">
        <ele>139.39999389648</ele>
        <time>2012-03-13T13:11:56.000Z</time>
      </trkpt>
      <trkpt lat="48.7312" lon="1.7406">
        <ele>139</ele>
        <time>2012-03-13T13:12:03.000Z</time>
      </trkpt>
      <trkpt lat="48.73111" lon="1.74049">
        <ele>138.39999389648</ele>
        <time>2012-03-13T13:12:11.000Z</time>
      </trkpt>
      <trkpt lat="48.73101" lon="1.7404">
        <ele>138</ele>
        <time>2012-03-13T13:12:18.000Z</time>
      </trkpt>
      <trkpt lat="48.73093" lon="1.74033">
        <ele>137.60000610352</ele>
        <time>2012-03-13T13:12:24.000Z</time>
      </trkpt>
      <trkpt lat="48.73085" lon="1.74024">
        <ele>137.39999389648</ele>
        <time>2012-03-13T13:12:31.000Z</time>
      </trkpt>
      <trkpt lat="48.73083" lon="1.74023">
        <ele>137.19999694824</ele>
        <time>2012-03-13T13:12:33.000Z</time>
      </trkpt>
      <trkpt lat="48.73083" lon="1.74019">
        <ele>137.19999694824</ele>
        <time>2012-03-13T13:12:38.000Z</time>
      </trkpt>
      <trkpt lat="48.73075" lon="1.74006">
        <ele>137.19999694824</ele>
        <time>2012-03-13T13:13:00.000Z</time>
      </trkpt>
      <trkpt lat="48.73069" lon="1.74006">
        <ele>137.19999694824</ele>
        <time>2012-03-13T13:13:05.000Z</time>
      </trkpt>
      <trkpt lat="48.73058" lon="1.73996">
        <ele>137.19999694824</ele>
        <time>2012-03-13T13:13:14.000Z</time>
      </trkpt>
      <trkpt lat="48.73051" lon="1.73986">
        <ele>137</ele>
        <time>2012-03-13T13:13:20.000Z</time>
      </trkpt>
      <trkpt lat="48.7305" lon="1.73985">
        <ele>137</ele>
        <time>2012-03-13T13:13:21.000Z</time>
      </trkpt>
      <trkpt lat="48.73042" lon="1.73976">
        <ele>137</ele>
        <time>2012-03-13T13:13:27.000Z</time>
      </trkpt>
      <trkpt lat="48.73033" lon="1.73967">
        <ele>137.19999694824</ele>
        <time>2012-03-13T13:13:34.000Z</time>
      </trkpt>
      <trkpt lat="48.73022" lon="1.73956">
        <ele>137.39999389648</ele>
        <time>2012-03-13T13:13:43.000Z</time>
      </trkpt>
      <trkpt lat="48.73016" lon="1.73951">
        <ele>137.39999389648</ele>
        <time>2012-03-13T13:13:48.000Z</time>
      </trkpt>
      <trkpt lat="48.73008" lon="1.73943">
        <ele>137.80000305176</ele>
        <time>2012-03-13T13:13:54.000Z</time>
      </trkpt>
      <trkpt lat="48.72999" lon="1.73936">
        <ele>138</ele>
        <time>2012-03-13T13:14:01.000Z</time>
      </trkpt>
      <trkpt lat="48.72998" lon="1.73935">
        <ele>138</ele>
        <time>2012-03-13T13:14:02.000Z</time>
      </trkpt>
      <trkpt lat="48.72991" lon="1.73923">
        <ele>137.80000305176</ele>
        <time>2012-03-13T13:14:09.000Z</time>
      </trkpt>
      <trkpt lat="48.72984" lon="1.73914">
        <ele>137.80000305176</ele>
        <time>2012-03-13T13:14:15.000Z</time>
      </trkpt>
      <trkpt lat="48.72974" lon="1.73906">
        <ele>137.39999389648</ele>
        <time>2012-03-13T13:14:22.000Z</time>
      </trkpt>
      <trkpt lat="48.72965" lon="1.739">
        <ele>137.19999694824</ele>
        <time>2012-03-13T13:14:29.000Z</time>
      </trkpt>
      <trkpt lat="48.72956" lon="1.7389">
        <ele>136.80000305176</ele>
        <time>2012-03-13T13:14:37.000Z</time>
      </trkpt>
      <trkpt lat="48.72941" lon="1.73875">
        <ele>136.19999694824</ele>
        <time>2012-03-13T13:14:49.000Z</time>
      </trkpt>
      <trkpt lat="48.72928" lon="1.73864">
        <ele>135.80000305176</ele>
        <time>2012-03-13T13:14:59.000Z</time>
      </trkpt>
      <trkpt lat="48.7292" lon="1.73853">
        <ele>135.60000610352</ele>
        <time>2012-03-13T13:15:06.000Z</time>
      </trkpt>
      <trkpt lat="48.7291" lon="1.73842">
        <ele>135.19999694824</ele>
        <time>2012-03-13T13:15:14.000Z</time>
      </trkpt>
      <trkpt lat="48.72899" lon="1.7383">
        <ele>135</ele>
        <time>2012-03-13T13:15:23.000Z</time>
      </trkpt>
      <trkpt lat="48.72885" lon="1.73816">
        <ele>134.80000305176</ele>
        <time>2012-03-13T13:15:34.000Z</time>
      </trkpt>
      <trkpt lat="48.72873" lon="1.73803">
        <ele>134.39999389648</ele>
        <time>2012-03-13T13:15:43.000Z</time>
      </trkpt>
      <trkpt lat="48.72865" lon="1.73795">
        <ele>134.19999694824</ele>
        <time>2012-03-13T13:15:50.000Z</time>
      </trkpt>
      <trkpt lat="48.72857" lon="1.73788">
        <ele>134</ele>
        <time>2012-03-13T13:15:56.000Z</time>
      </trkpt>
      <trkpt lat="48.72848" lon="1.73778">
        <ele>133.80000305176</ele>
        <time>2012-03-13T13:16:03.000Z</time>
      </trkpt>
      <trkpt lat="48.7284" lon="1.73768">
        <ele>133.60000610352</ele>
        <time>2012-03-13T13:16:10.000Z</time>
      </trkpt>
      <trkpt lat="48.72833" lon="1.73761">
        <ele>133.19999694824</ele>
        <time>2012-03-13T13:16:16.000Z</time>
      </trkpt>
      <trkpt lat="48.72824" lon="1.73751">
        <ele>133</ele>
        <time>2012-03-13T13:16:23.000Z</time>
      </trkpt>
      <trkpt lat="48.72813" lon="1.73741">
        <ele>132.39999389648</ele>
        <time>2012-03-13T13:16:32.000Z</time>
      </trkpt>
      <trkpt lat="48.72808" lon="1.73736">
        <ele>132.19999694824</ele>
        <time>2012-03-13T13:16:36.000Z</time>
      </trkpt>
      <trkpt lat="48.72803" lon="1.73731">
        <ele>132.19999694824</ele>
        <time>2012-03-13T13:16:42.000Z</time>
      </trkpt>
      <trkpt lat="48.72798" lon="1.73726">
        <ele>132</ele>
        <time>2012-03-13T13:16:47.000Z</time>
      </trkpt>
      <trkpt lat="48.72789" lon="1.73715">
        <ele>131.60000610352</ele>
        <time>2012-03-13T13:16:55.000Z</time>
      </trkpt>
      <trkpt lat="48.72782" lon="1.73707">
        <ele>131.39999389648</ele>
        <time>2012-03-13T13:17:01.000Z</time>
      </trkpt>
      <trkpt lat="48.72772" lon="1.73696">
        <ele>131.19999694824</ele>
        <time>2012-03-13T13:17:09.000Z</time>
      </trkpt>
      <trkpt lat="48.72768" lon="1.73692">
        <ele>131.19999694824</ele>
        <time>2012-03-13T13:17:12.000Z</time>
      </trkpt>
      <trkpt lat="48.72763" lon="1.73688">
        <ele>131.19999694824</ele>
        <time>2012-03-13T13:17:16.000Z</time>
      </trkpt>
      <trkpt lat="48.72752" lon="1.73676">
        <ele>131</ele>
        <time>2012-03-13T13:17:25.000Z</time>
      </trkpt>
      <trkpt lat="48.72744" lon="1.73668">
        <ele>131</ele>
        <time>2012-03-13T13:17:31.000Z</time>
      </trkpt>
      <trkpt lat="48.72734" lon="1.73659">
        <ele>130.60000610352</ele>
        <time>2012-03-13T13:17:39.000Z</time>
      </trkpt>
      <trkpt lat="48.72724" lon="1.73647">
        <ele>130</ele>
        <time>2012-03-13T13:17:47.000Z</time>
      </trkpt>
      <trkpt lat="48.72715" lon="1.73636">
        <ele>129.60000610352</ele>
        <time>2012-03-13T13:17:55.000Z</time>
      </trkpt>
      <trkpt lat="48.72707" lon="1.73624">
        <ele>129.19999694824</ele>
        <time>2012-03-13T13:18:03.000Z</time>
      </trkpt>
      <trkpt lat="48.72698" lon="1.73616">
        <ele>129</ele>
        <time>2012-03-13T13:18:10.000Z</time>
      </trkpt>
      <trkpt lat="48.72694" lon="1.73614">
        <ele>128.80000305176</ele>
        <time>2012-03-13T13:18:13.000Z</time>
      </trkpt>
      <trkpt lat="48.72693" lon="1.73614">
        <ele>128.80000305176</ele>
        <time>2012-03-13T13:18:16.000Z</time>
      </trkpt>
      <trkpt lat="48.72689" lon="1.7361">
        <ele>128.80000305176</ele>
        <time>2012-03-13T13:18:35.000Z</time>
      </trkpt>
      <trkpt lat="48.72679" lon="1.736">
        <ele>128.39999389648</ele>
        <time>2012-03-13T13:18:42.000Z</time>
      </trkpt>
      <trkpt lat="48.72676" lon="1.73598">
        <ele>128.39999389648</ele>
        <time>2012-03-13T13:18:44.000Z</time>
      </trkpt>
      <trkpt lat="48.72666" lon="1.73587">
        <ele>128</ele>
        <time>2012-03-13T13:18:52.000Z</time>
      </trkpt>
      <trkpt lat="48.72663" lon="1.73584">
        <ele>128</ele>
        <time>2012-03-13T13:18:54.000Z</time>
      </trkpt>
      <trkpt lat="48.72656" lon="1.73577">
        <ele>128</ele>
        <time>2012-03-13T13:19:00.000Z</time>
      </trkpt>
      <trkpt lat="48.72648" lon="1.73569">
        <ele>128</ele>
        <time>2012-03-13T13:19:06.000Z</time>
      </trkpt>
      <trkpt lat="48.72639" lon="1.73562">
        <ele>128</ele>
        <time>2012-03-13T13:19:13.000Z</time>
      </trkpt>
      <trkpt lat="48.7263" lon="1.73552">
        <ele>127.80000305176</ele>
        <time>2012-03-13T13:19:20.000Z</time>
      </trkpt>
      <trkpt lat="48.7262" lon="1.73541">
        <ele>127.80000305176</ele>
        <time>2012-03-13T13:19:28.000Z</time>
      </trkpt>
      <trkpt lat="48.72609" lon="1.73529">
        <ele>127.59999847412</ele>
        <time>2012-03-13T13:19:37.000Z</time>
      </trkpt>
      <trkpt lat="48.726" lon="1.73519">
        <ele>127.40000152588</ele>
        <time>2012-03-13T13:19:45.000Z</time>
      </trkpt>
      <trkpt lat="48.72592" lon="1.7351">
        <ele>127.19999694824</ele>
        <time>2012-03-13T13:19:52.000Z</time>
      </trkpt>
      <trkpt lat="48.72582" lon="1.735">
        <ele>127</ele>
        <time>2012-03-13T13:20:00.000Z</time>
      </trkpt>
      <trkpt lat="48.72576" lon="1.73494">
        <ele>127.40000152588</ele>
        <time>2012-03-13T13:20:05.000Z</time>
      </trkpt>
      <trkpt lat="48.72566" lon="1.73484">
        <ele>127.80000305176</ele>
        <time>2012-03-13T13:20:13.000Z</time>
      </trkpt>
      <trkpt lat="48.72556" lon="1.73471">
        <ele>128.19999694824</ele>
        <time>2012-03-13T13:20:21.000Z</time>
      </trkpt>
      <trkpt lat="48.72547" lon="1.73463">
        <ele>128.39999389648</ele>
        <time>2012-03-13T13:20:27.000Z</time>
      </trkpt>
      <trkpt lat="48.7254" lon="1.73458">
        <ele>128.60000610352</ele>
        <time>2012-03-13T13:20:32.000Z</time>
      </trkpt>
      <trkpt lat="48.72532" lon="1.73456">
        <ele>128.60000610352</ele>
        <time>2012-03-13T13:20:38.000Z</time>
      </trkpt>
      <trkpt lat="48.72524" lon="1.73452">
        <ele>128.80000305176</ele>
        <time>2012-03-13T13:20:44.000Z</time>
      </trkpt>
      <trkpt lat="48.72514" lon="1.73449">
        <ele>128.80000305176</ele>
        <time>2012-03-13T13:20:51.000Z</time>
      </trkpt>
      <trkpt lat="48.72506" lon="1.73448">
        <ele>129</ele>
        <time>2012-03-13T13:20:56.000Z</time>
      </trkpt>
      <trkpt lat="48.72495" lon="1.73445">
        <ele>128.80000305176</ele>
        <time>2012-03-13T13:21:03.000Z</time>
      </trkpt>
      <trkpt lat="48.72482" lon="1.73444">
        <ele>128.39999389648</ele>
        <time>2012-03-13T13:21:11.000Z</time>
      </trkpt>
      <trkpt lat="48.7247" lon="1.73443">
        <ele>128</ele>
        <time>2012-03-13T13:21:19.000Z</time>
      </trkpt>
      <trkpt lat="48.72458" lon="1.73441">
        <ele>127.40000152588</ele>
        <time>2012-03-13T13:21:27.000Z</time>
      </trkpt>
      <trkpt lat="48.72453" lon="1.7344">
        <ele>127.40000152588</ele>
        <time>2012-03-13T13:21:31.000Z</time>
      </trkpt>
      <trkpt lat="48.72446" lon="1.73439">
        <ele>127</ele>
        <time>2012-03-13T13:21:36.000Z</time>
      </trkpt>
      <trkpt lat="48.72436" lon="1.73435">
        <ele>126.59999847412</ele>
        <time>2012-03-13T13:21:43.000Z</time>
      </trkpt>
      <trkpt lat="48.72423" lon="1.73432">
        <ele>126.19999694824</ele>
        <time>2012-03-13T13:21:51.000Z</time>
      </trkpt>
      <trkpt lat="48.72416" lon="1.73431">
        <ele>126</ele>
        <time>2012-03-13T13:21:56.000Z</time>
      </trkpt>
      <trkpt lat="48.72413" lon="1.7343">
        <ele>126</ele>
        <time>2012-03-13T13:21:58.000Z</time>
      </trkpt>
      <trkpt lat="48.72403" lon="1.73429">
        <ele>126.40000152588</ele>
        <time>2012-03-13T13:22:04.000Z</time>
      </trkpt>
      <trkpt lat="48.72393" lon="1.73433">
        <ele>126.59999847412</ele>
        <time>2012-03-13T13:22:09.000Z</time>
      </trkpt>
      <trkpt lat="48.72388" lon="1.7343">
        <ele>126.59999847412</ele>
        <time>2012-03-13T13:22:13.000Z</time>
      </trkpt>
      <trkpt lat="48.72383" lon="1.7343">
        <ele>126.80000305176</ele>
        <time>2012-03-13T13:22:16.000Z</time>
      </trkpt>
      <trkpt lat="48.72374" lon="1.73423">
        <ele>127</ele>
        <time>2012-03-13T13:22:23.000Z</time>
      </trkpt>
      <trkpt lat="48.72367" lon="1.73419">
        <ele>127.19999694824</ele>
        <time>2012-03-13T13:22:28.000Z</time>
      </trkpt>
      <trkpt lat="48.72357" lon="1.73414">
        <ele>127.40000152588</ele>
        <time>2012-03-13T13:22:35.000Z</time>
      </trkpt>
      <trkpt lat="48.7234" lon="1.73413">
        <ele>127.80000305176</ele>
        <time>2012-03-13T13:22:46.000Z</time>
      </trkpt>
      <trkpt lat="48.7233" lon="1.73414">
        <ele>128</ele>
        <time>2012-03-13T13:22:53.000Z</time>
      </trkpt>
      <trkpt lat="48.72323" lon="1.73415">
        <ele>128</ele>
        <time>2012-03-13T13:22:56.000Z</time>
      </trkpt>
      <trkpt lat="48.72319" lon="1.73412">
        <ele>128</ele>
        <time>2012-03-13T13:22:59.000Z</time>
      </trkpt>
      <trkpt lat="48.72318" lon="1.73409">
        <ele>128</ele>
        <time>2012-03-13T13:23:04.000Z</time>
      </trkpt>
      <trkpt lat="48.72313" lon="1.7341">
        <ele>128</ele>
        <time>2012-03-13T13:23:13.000Z</time>
      </trkpt>
      <trkpt lat="48.72302" lon="1.7341">
        <ele>128</ele>
        <time>2012-03-13T13:23:18.000Z</time>
      </trkpt>
      <trkpt lat="48.72298" lon="1.73406">
        <ele>128</ele>
        <time>2012-03-13T13:23:22.000Z</time>
      </trkpt>
      <trkpt lat="48.72287" lon="1.73402">
        <ele>128</ele>
        <time>2012-03-13T13:23:30.000Z</time>
      </trkpt>
      <trkpt lat="48.72281" lon="1.734">
        <ele>128</ele>
        <time>2012-03-13T13:23:35.000Z</time>
      </trkpt>
      <trkpt lat="48.7228" lon="1.734">
        <ele>128</ele>
        <time>2012-03-13T13:23:37.000Z</time>
      </trkpt>
      <trkpt lat="48.72279" lon="1.734">
        <ele>128</ele>
        <time>2012-03-13T13:23:41.000Z</time>
      </trkpt>
      <trkpt lat="48.72277" lon="1.73401">
        <ele>128</ele>
        <time>2012-03-13T13:23:42.000Z</time>
      </trkpt>
      <trkpt lat="48.72274" lon="1.734">
        <ele>128</ele>
        <time>2012-03-13T13:23:44.000Z</time>
      </trkpt>
      <trkpt lat="48.72264" lon="1.73402">
        <ele>128</ele>
        <time>2012-03-13T13:23:50.000Z</time>
      </trkpt>
      <trkpt lat="48.72262" lon="1.734">
        <ele>128</ele>
        <time>2012-03-13T13:23:52.000Z</time>
      </trkpt>
      <trkpt lat="48.7226" lon="1.73398">
        <ele>128</ele>
        <time>2012-03-13T13:23:54.000Z</time>
      </trkpt>
      <trkpt lat="48.72252" lon="1.73395">
        <ele>128</ele>
        <time>2012-03-13T13:24:00.000Z</time>
      </trkpt>
      <trkpt lat="48.72247" lon="1.73394">
        <ele>128</ele>
        <time>2012-03-13T13:24:03.000Z</time>
      </trkpt>
      <trkpt lat="48.72238" lon="1.73392">
        <ele>127.80000305176</ele>
        <time>2012-03-13T13:24:10.000Z</time>
      </trkpt>
      <trkpt lat="48.72231" lon="1.73396">
        <ele>127.59999847412</ele>
        <time>2012-03-13T13:24:16.000Z</time>
      </trkpt>
      <trkpt lat="48.72229" lon="1.73397">
        <ele>127.59999847412</ele>
        <time>2012-03-13T13:24:18.000Z</time>
      </trkpt>
      <trkpt lat="48.72222" lon="1.73396">
        <ele>127.59999847412</ele>
        <time>2012-03-13T13:24:24.000Z</time>
      </trkpt>
      <trkpt lat="48.72217" lon="1.73397">
        <ele>127.40000152588</ele>
        <time>2012-03-13T13:24:30.000Z</time>
      </trkpt>
      <trkpt lat="48.72211" lon="1.734">
        <ele>127.40000152588</ele>
        <time>2012-03-13T13:24:36.000Z</time>
      </trkpt>
      <trkpt lat="48.72203" lon="1.73394">
        <ele>127.19999694824</ele>
        <time>2012-03-13T13:24:42.000Z</time>
      </trkpt>
      <trkpt lat="48.72194" lon="1.73398">
        <ele>127</ele>
        <time>2012-03-13T13:24:49.000Z</time>
      </trkpt>
      <trkpt lat="48.72188" lon="1.734">
        <ele>127</ele>
        <time>2012-03-13T13:24:53.000Z</time>
      </trkpt>
      <trkpt lat="48.72179" lon="1.73403">
        <ele>126.80000305176</ele>
        <time>2012-03-13T13:24:59.000Z</time>
      </trkpt>
      <trkpt lat="48.72177" lon="1.73403">
        <ele>126.80000305176</ele>
        <time>2012-03-13T13:25:01.000Z</time>
      </trkpt>
      <trkpt lat="48.72175" lon="1.73404">
        <ele>126.80000305176</ele>
        <time>2012-03-13T13:25:03.000Z</time>
      </trkpt>
      <trkpt lat="48.72169" lon="1.73406">
        <ele>126.80000305176</ele>
        <time>2012-03-13T13:25:09.000Z</time>
      </trkpt>
      <trkpt lat="48.72165" lon="1.73404">
        <ele>126.80000305176</ele>
        <time>2012-03-13T13:25:13.000Z</time>
      </trkpt>
      <trkpt lat="48.72158" lon="1.73406">
        <ele>127</ele>
        <time>2012-03-13T13:25:18.000Z</time>
      </trkpt>
      <trkpt lat="48.7215" lon="1.73405">
        <ele>127.40000152588</ele>
        <time>2012-03-13T13:25:25.000Z</time>
      </trkpt>
      <trkpt lat="48.72145" lon="1.73402">
        <ele>127.40000152588</ele>
        <time>2012-03-13T13:25:29.000Z</time>
      </trkpt>
      <trkpt lat="48.72135" lon="1.73405">
        <ele>127.80000305176</ele>
        <time>2012-03-13T13:25:35.000Z</time>
      </trkpt>
      <trkpt lat="48.72129" lon="1.73405">
        <ele>128</ele>
        <time>2012-03-13T13:25:40.000Z</time>
      </trkpt>
      <trkpt lat="48.72125" lon="1.73402">
        <ele>128.19999694824</ele>
        <time>2012-03-13T13:25:45.000Z</time>
      </trkpt>
      <trkpt lat="48.72125" lon="1.73402">
        <ele>128.19999694824</ele>
        <time>2012-03-13T13:25:47.000Z</time>
      </trkpt>
      <trkpt lat="48.72116" lon="1.73404">
        <ele>128.60000610352</ele>
        <time>2012-03-13T13:26:01.000Z</time>
      </trkpt>
      <trkpt lat="48.72114" lon="1.73406">
        <ele>128.60000610352</ele>
        <time>2012-03-13T13:26:02.000Z</time>
      </trkpt>
      <trkpt lat="48.72105" lon="1.73409">
        <ele>129</ele>
        <time>2012-03-13T13:26:09.000Z</time>
      </trkpt>
      <trkpt lat="48.72097" lon="1.7341">
        <ele>129.39999389648</ele>
        <time>2012-03-13T13:26:18.000Z</time>
      </trkpt>
      <trkpt lat="48.72097" lon="1.7341">
        <ele>129.39999389648</ele>
        <time>2012-03-13T13:26:19.000Z</time>
      </trkpt>
      <trkpt lat="48.72095" lon="1.73411">
        <ele>129.39999389648</ele>
        <time>2012-03-13T13:26:31.000Z</time>
      </trkpt>
      <trkpt lat="48.72093" lon="1.73412">
        <ele>129.60000610352</ele>
        <time>2012-03-13T13:26:32.000Z</time>
      </trkpt>
      <trkpt lat="48.72087" lon="1.73413">
        <ele>129.80000305176</ele>
        <time>2012-03-13T13:26:35.000Z</time>
      </trkpt>
      <trkpt lat="48.72078" lon="1.73415">
        <ele>130</ele>
        <time>2012-03-13T13:26:42.000Z</time>
      </trkpt>
      <trkpt lat="48.72065" lon="1.73418">
        <ele>130</ele>
        <time>2012-03-13T13:26:50.000Z</time>
      </trkpt>
      <trkpt lat="48.72058" lon="1.73419">
        <ele>130</ele>
        <time>2012-03-13T13:26:54.000Z</time>
      </trkpt>
      <trkpt lat="48.72054" lon="1.73418">
        <ele>130</ele>
        <time>2012-03-13T13:26:58.000Z</time>
      </trkpt>
      <trkpt lat="48.72045" lon="1.73419">
        <ele>130</ele>
        <time>2012-03-13T13:27:04.000Z</time>
      </trkpt>
      <trkpt lat="48.72033" lon="1.73426">
        <ele>130</ele>
        <time>2012-03-13T13:27:12.000Z</time>
      </trkpt>
      <trkpt lat="48.72024" lon="1.73428">
        <ele>130.19999694824</ele>
        <time>2012-03-13T13:27:18.000Z</time>
      </trkpt>
      <trkpt lat="48.7202" lon="1.7343">
        <ele>130.19999694824</ele>
        <time>2012-03-13T13:27:20.000Z</time>
      </trkpt>
      <trkpt lat="48.72008" lon="1.73432">
        <ele>130.39999389648</ele>
        <time>2012-03-13T13:27:28.000Z</time>
      </trkpt>
      <trkpt lat="48.71995" lon="1.73434">
        <ele>130.39999389648</ele>
        <time>2012-03-13T13:27:37.000Z</time>
      </trkpt>
      <trkpt lat="48.71987" lon="1.73439">
        <ele>130.60000610352</ele>
        <time>2012-03-13T13:27:42.000Z</time>
      </trkpt>
      <trkpt lat="48.71984" lon="1.73441">
        <ele>130.60000610352</ele>
        <time>2012-03-13T13:27:44.000Z</time>
      </trkpt>
      <trkpt lat="48.71973" lon="1.73442">
        <ele>130.60000610352</ele>
        <time>2012-03-13T13:27:52.000Z</time>
      </trkpt>
      <trkpt lat="48.71966" lon="1.73443">
        <ele>130.60000610352</ele>
        <time>2012-03-13T13:27:57.000Z</time>
      </trkpt>
      <trkpt lat="48.71957" lon="1.73444">
        <ele>130.60000610352</ele>
        <time>2012-03-13T13:28:03.000Z</time>
      </trkpt>
      <trkpt lat="48.71947" lon="1.73446">
        <ele>130.80000305176</ele>
        <time>2012-03-13T13:28:10.000Z</time>
      </trkpt>
      <trkpt lat="48.71937" lon="1.73447">
        <ele>130.80000305176</ele>
        <time>2012-03-13T13:28:17.000Z</time>
      </trkpt>
      <trkpt lat="48.71928" lon="1.73449">
        <ele>130.80000305176</ele>
        <time>2012-03-13T13:28:23.000Z</time>
      </trkpt>
      <trkpt lat="48.71915" lon="1.7345">
        <ele>130.80000305176</ele>
        <time>2012-03-13T13:28:32.000Z</time>
      </trkpt>
      <trkpt lat="48.71905" lon="1.73453">
        <ele>131.19999694824</ele>
        <time>2012-03-13T13:28:39.000Z</time>
      </trkpt>
      <trkpt lat="48.71899" lon="1.73455">
        <ele>131.39999389648</ele>
        <time>2012-03-13T13:28:43.000Z</time>
      </trkpt>
      <trkpt lat="48.71889" lon="1.73458">
        <ele>131.60000610352</ele>
        <time>2012-03-13T13:28:50.000Z</time>
      </trkpt>
      <trkpt lat="48.71879" lon="1.73461">
        <ele>132</ele>
        <time>2012-03-13T13:28:55.000Z</time>
      </trkpt>
      <trkpt lat="48.71868" lon="1.73463">
        <ele>132.19999694824</ele>
        <time>2012-03-13T13:29:02.000Z</time>
      </trkpt>
      <trkpt lat="48.71856" lon="1.73463">
        <ele>132.60000610352</ele>
        <time>2012-03-13T13:29:10.000Z</time>
      </trkpt>
      <trkpt lat="48.71843" lon="1.73469">
        <ele>133</ele>
        <time>2012-03-13T13:29:16.000Z</time>
      </trkpt>
      <trkpt lat="48.71832" lon="1.73471">
        <ele>133.39999389648</ele>
        <time>2012-03-13T13:29:23.000Z</time>
      </trkpt>
      <trkpt lat="48.71822" lon="1.73474">
        <ele>133.80000305176</ele>
        <time>2012-03-13T13:29:29.000Z</time>
      </trkpt>
      <trkpt lat="48.71807" lon="1.73478">
        <ele>134.60000610352</ele>
        <time>2012-03-13T13:29:38.000Z</time>
      </trkpt>
      <trkpt lat="48.71793" lon="1.7348">
        <ele>135.19999694824</ele>
        <time>2012-03-13T13:29:47.000Z</time>
      </trkpt>
      <trkpt lat="48.71785" lon="1.73482">
        <ele>135.60000610352</ele>
        <time>2012-03-13T13:29:53.000Z</time>
      </trkpt>
      <trkpt lat="48.71783" lon="1.73483">
        <ele>135.60000610352</ele>
        <time>2012-03-13T13:29:55.000Z</time>
      </trkpt>
      <trkpt lat="48.71774" lon="1.73486">
        <ele>136</ele>
        <time>2012-03-13T13:30:01.000Z</time>
      </trkpt>
      <trkpt lat="48.71772" lon="1.73489">
        <ele>136.19999694824</ele>
        <time>2012-03-13T13:30:08.000Z</time>
      </trkpt>
      <trkpt lat="48.71766" lon="1.73508">
        <ele>136.80000305176</ele>
        <time>2012-03-13T13:30:28.000Z</time>
      </trkpt>
      <trkpt lat="48.71768" lon="1.73517">
        <ele>137</ele>
        <time>2012-03-13T13:30:32.000Z</time>
      </trkpt>
      <trkpt lat="48.71773" lon="1.73526">
        <ele>137</ele>
        <time>2012-03-13T13:30:39.000Z</time>
      </trkpt>
      <trkpt lat="48.71775" lon="1.73534">
        <ele>137.19999694824</ele>
        <time>2012-03-13T13:30:44.000Z</time>
      </trkpt>
      <trkpt lat="48.71775" lon="1.73535">
        <ele>137.19999694824</ele>
        <time>2012-03-13T13:30:45.000Z</time>
      </trkpt>
      <trkpt lat="48.71776" lon="1.73542">
        <ele>137.39999389648</ele>
        <time>2012-03-13T13:30:49.000Z</time>
      </trkpt>
      <trkpt lat="48.71779" lon="1.73554">
        <ele>137.60000610352</ele>
        <time>2012-03-13T13:30:55.000Z</time>
      </trkpt>
      <trkpt lat="48.71781" lon="1.73559">
        <ele>137.80000305176</ele>
        <time>2012-03-13T13:30:58.000Z</time>
      </trkpt>
      <trkpt lat="48.71779" lon="1.73571">
        <ele>138.19999694824</ele>
        <time>2012-03-13T13:31:04.000Z</time>
      </trkpt>
      <trkpt lat="48.7178" lon="1.73585">
        <ele>138.60000610352</ele>
        <time>2012-03-13T13:31:09.000Z</time>
      </trkpt>
      <trkpt lat="48.7178" lon="1.73607">
        <ele>138.80000305176</ele>
        <time>2012-03-13T13:31:17.000Z</time>
      </trkpt>
      <trkpt lat="48.7178" lon="1.73622">
        <ele>138.80000305176</ele>
        <time>2012-03-13T13:31:23.000Z</time>
      </trkpt>
      <trkpt lat="48.71781" lon="1.7363">
        <ele>139</ele>
        <time>2012-03-13T13:31:26.000Z</time>
      </trkpt>
      <trkpt lat="48.71781" lon="1.73651">
        <ele>139.19999694824</ele>
        <time>2012-03-13T13:31:35.000Z</time>
      </trkpt>
      <trkpt lat="48.71785" lon="1.73661">
        <ele>139.19999694824</ele>
        <time>2012-03-13T13:31:40.000Z</time>
      </trkpt>
      <trkpt lat="48.71787" lon="1.73675">
        <ele>138.80000305176</ele>
        <time>2012-03-13T13:31:46.000Z</time>
      </trkpt>
      <trkpt lat="48.7179" lon="1.73693">
        <ele>138.39999389648</ele>
        <time>2012-03-13T13:31:50.000Z</time>
      </trkpt>
      <trkpt lat="48.71791" lon="1.73697">
        <ele>138.19999694824</ele>
        <time>2012-03-13T13:31:51.000Z</time>
      </trkpt>
      <trkpt lat="48.71796" lon="1.73722">
        <ele>137.60000610352</ele>
        <time>2012-03-13T13:31:57.000Z</time>
      </trkpt>
      <trkpt lat="48.71796" lon="1.73736">
        <ele>137.39999389648</ele>
        <time>2012-03-13T13:32:02.000Z</time>
      </trkpt>
      <trkpt lat="48.718" lon="1.73752">
        <ele>137</ele>
        <time>2012-03-13T13:32:08.000Z</time>
      </trkpt>
      <trkpt lat="48.71801" lon="1.73762">
        <ele>137</ele>
        <time>2012-03-13T13:32:12.000Z</time>
      </trkpt>
      <trkpt lat="48.71806" lon="1.73777">
        <ele>136.80000305176</ele>
        <time>2012-03-13T13:32:18.000Z</time>
      </trkpt>
      <trkpt lat="48.71809" lon="1.73789">
        <ele>136.80000305176</ele>
        <time>2012-03-13T13:32:23.000Z</time>
      </trkpt>
      <trkpt lat="48.71814" lon="1.738">
        <ele>136.80000305176</ele>
        <time>2012-03-13T13:32:28.000Z</time>
      </trkpt>
      <trkpt lat="48.71819" lon="1.73807">
        <ele>136.80000305176</ele>
        <time>2012-03-13T13:32:32.000Z</time>
      </trkpt>
      <trkpt lat="48.71823" lon="1.73819">
        <ele>137</ele>
        <time>2012-03-13T13:32:37.000Z</time>
      </trkpt>
      <trkpt lat="48.71827" lon="1.73832">
        <ele>137</ele>
        <time>2012-03-13T13:32:43.000Z</time>
      </trkpt>
      <trkpt lat="48.71829" lon="1.73838">
        <ele>137</ele>
        <time>2012-03-13T13:32:46.000Z</time>
      </trkpt>
      <trkpt lat="48.71836" lon="1.73854">
        <ele>136.60000610352</ele>
        <time>2012-03-13T13:32:55.000Z</time>
      </trkpt>
      <trkpt lat="48.71838" lon="1.73862">
        <ele>136.60000610352</ele>
        <time>2012-03-13T13:32:59.000Z</time>
      </trkpt>
      <trkpt lat="48.7184" lon="1.7387">
        <ele>136.39999389648</ele>
        <time>2012-03-13T13:33:03.000Z</time>
      </trkpt>
      <trkpt lat="48.71843" lon="1.73885">
        <ele>136.19999694824</ele>
        <time>2012-03-13T13:33:10.000Z</time>
      </trkpt>
      <trkpt lat="48.71845" lon="1.73889">
        <ele>136</ele>
        <time>2012-03-13T13:33:12.000Z</time>
      </trkpt>
      <trkpt lat="48.71849" lon="1.73904">
        <ele>135.80000305176</ele>
        <time>2012-03-13T13:33:19.000Z</time>
      </trkpt>
      <trkpt lat="48.71854" lon="1.73922">
        <ele>135.60000610352</ele>
        <time>2012-03-13T13:33:27.000Z</time>
      </trkpt>
      <trkpt lat="48.7186" lon="1.73935">
        <ele>135.80000305176</ele>
        <time>2012-03-13T13:33:34.000Z</time>
      </trkpt>
      <trkpt lat="48.71865" lon="1.73953">
        <ele>136.19999694824</ele>
        <time>2012-03-13T13:33:42.000Z</time>
      </trkpt>
      <trkpt lat="48.7187" lon="1.7397">
        <ele>136.39999389648</ele>
        <time>2012-03-13T13:33:50.000Z</time>
      </trkpt>
      <trkpt lat="48.71875" lon="1.73986">
        <ele>136.60000610352</ele>
        <time>2012-03-13T13:33:57.000Z</time>
      </trkpt>
      <trkpt lat="48.71878" lon="1.73996">
        <ele>136.80000305176</ele>
        <time>2012-03-13T13:34:02.000Z</time>
      </trkpt>
      <trkpt lat="48.71881" lon="1.74004">
        <ele>136.80000305176</ele>
        <time>2012-03-13T13:34:06.000Z</time>
      </trkpt>
      <trkpt lat="48.71886" lon="1.74018">
        <ele>137.19999694824</ele>
        <time>2012-03-13T13:34:13.000Z</time>
      </trkpt>
      <trkpt lat="48.71892" lon="1.74031">
        <ele>137.19999694824</ele>
        <time>2012-03-13T13:34:20.000Z</time>
      </trkpt>
      <trkpt lat="48.71893" lon="1.74037">
        <ele>137.39999389648</ele>
        <time>2012-03-13T13:34:23.000Z</time>
      </trkpt>
      <trkpt lat="48.71898" lon="1.74047">
        <ele>137.39999389648</ele>
        <time>2012-03-13T13:34:29.000Z</time>
      </trkpt>
      <trkpt lat="48.71902" lon="1.74063">
        <ele>137.60000610352</ele>
        <time>2012-03-13T13:34:36.000Z</time>
      </trkpt>
      <trkpt lat="48.71905" lon="1.74079">
        <ele>137.80000305176</ele>
        <time>2012-03-13T13:34:43.000Z</time>
      </trkpt>
      <trkpt lat="48.7191" lon="1.74101">
        <ele>137.39999389648</ele>
        <time>2012-03-13T13:34:52.000Z</time>
      </trkpt>
      <trkpt lat="48.71916" lon="1.7412">
        <ele>136.60000610352</ele>
        <time>2012-03-13T13:35:00.000Z</time>
      </trkpt>
      <trkpt lat="48.71923" lon="1.74135">
        <ele>136</ele>
        <time>2012-03-13T13:35:07.000Z</time>
      </trkpt>
      <trkpt lat="48.71931" lon="1.74157">
        <ele>135.60000610352</ele>
        <time>2012-03-13T13:35:17.000Z</time>
      </trkpt>
      <trkpt lat="48.71936" lon="1.74183">
        <ele>136.19999694824</ele>
        <time>2012-03-13T13:35:28.000Z</time>
      </trkpt>
      <trkpt lat="48.71939" lon="1.74195">
        <ele>136.80000305176</ele>
        <time>2012-03-13T13:35:33.000Z</time>
      </trkpt>
      <trkpt lat="48.71946" lon="1.74213">
        <ele>137.80000305176</ele>
        <time>2012-03-13T13:35:42.000Z</time>
      </trkpt>
      <trkpt lat="48.71952" lon="1.74228">
        <ele>138.39999389648</ele>
        <time>2012-03-13T13:35:49.000Z</time>
      </trkpt>
      <trkpt lat="48.71959" lon="1.74245">
        <ele>139.19999694824</ele>
        <time>2012-03-13T13:35:57.000Z</time>
      </trkpt>
      <trkpt lat="48.71964" lon="1.74263">
        <ele>139.60000610352</ele>
        <time>2012-03-13T13:36:05.000Z</time>
      </trkpt>
      <trkpt lat="48.71966" lon="1.74273">
        <ele>139.80000305176</ele>
        <time>2012-03-13T13:36:10.000Z</time>
      </trkpt>
      <trkpt lat="48.71968" lon="1.74286">
        <ele>140</ele>
        <time>2012-03-13T13:36:16.000Z</time>
      </trkpt>
      <trkpt lat="48.71967" lon="1.74299">
        <ele>140.19999694824</ele>
        <time>2012-03-13T13:36:21.000Z</time>
      </trkpt>
      <trkpt lat="48.71967" lon="1.74317">
        <ele>140.60000610352</ele>
        <time>2012-03-13T13:36:28.000Z</time>
      </trkpt>
      <trkpt lat="48.71967" lon="1.74341">
        <ele>141</ele>
        <time>2012-03-13T13:36:37.000Z</time>
      </trkpt>
      <trkpt lat="48.71969" lon="1.74364">
        <ele>140.60000610352</ele>
        <time>2012-03-13T13:36:46.000Z</time>
      </trkpt>
      <trkpt lat="48.7197" lon="1.74382">
        <ele>140.39999389648</ele>
        <time>2012-03-13T13:36:53.000Z</time>
      </trkpt>
      <trkpt lat="48.71971" lon="1.74402">
        <ele>140.19999694824</ele>
        <time>2012-03-13T13:37:00.000Z</time>
      </trkpt>
      <trkpt lat="48.71973" lon="1.74423">
        <ele>139.80000305176</ele>
        <time>2012-03-13T13:37:08.000Z</time>
      </trkpt>
      <trkpt lat="48.71975" lon="1.74439">
        <ele>139.39999389648</ele>
        <time>2012-03-13T13:37:14.000Z</time>
      </trkpt>
      <trkpt lat="48.71976" lon="1.74454">
        <ele>139.19999694824</ele>
        <time>2012-03-13T13:37:20.000Z</time>
      </trkpt>
      <trkpt lat="48.71977" lon="1.74479">
        <ele>138.60000610352</ele>
        <time>2012-03-13T13:37:29.000Z</time>
      </trkpt>
      <trkpt lat="48.71978" lon="1.74502">
        <ele>138.39999389648</ele>
        <time>2012-03-13T13:37:38.000Z</time>
      </trkpt>
      <trkpt lat="48.71979" lon="1.74524">
        <ele>138.80000305176</ele>
        <time>2012-03-13T13:37:47.000Z</time>
      </trkpt>
      <trkpt lat="48.71981" lon="1.74543">
        <ele>139</ele>
        <time>2012-03-13T13:37:55.000Z</time>
      </trkpt>
      <trkpt lat="48.71979" lon="1.74556">
        <ele>139.39999389648</ele>
        <time>2012-03-13T13:38:02.000Z</time>
      </trkpt>
      <trkpt lat="48.7198" lon="1.74563">
        <ele>139.60000610352</ele>
        <time>2012-03-13T13:38:05.000Z</time>
      </trkpt>
      <trkpt lat="48.7198" lon="1.7459">
        <ele>140</ele>
        <time>2012-03-13T13:38:15.000Z</time>
      </trkpt>
      <trkpt lat="48.71982" lon="1.74608">
        <ele>140.19999694824</ele>
        <time>2012-03-13T13:38:22.000Z</time>
      </trkpt>
      <trkpt lat="48.71984" lon="1.7463">
        <ele>140.39999389648</ele>
        <time>2012-03-13T13:38:31.000Z</time>
      </trkpt>
      <trkpt lat="48.71985" lon="1.74651">
        <ele>140.60000610352</ele>
        <time>2012-03-13T13:38:40.000Z</time>
      </trkpt>
      <trkpt lat="48.71986" lon="1.74671">
        <ele>141</ele>
        <time>2012-03-13T13:38:48.000Z</time>
      </trkpt>
      <trkpt lat="48.71985" lon="1.747">
        <ele>141.39999389648</ele>
        <time>2012-03-13T13:39:00.000Z</time>
      </trkpt>
      <trkpt lat="48.71985" lon="1.74707">
        <ele>141.39999389648</ele>
        <time>2012-03-13T13:39:05.000Z</time>
      </trkpt>
      <trkpt lat="48.71985" lon="1.74712">
        <ele>141.39999389648</ele>
        <time>2012-03-13T13:39:08.000Z</time>
      </trkpt>
      <trkpt lat="48.71984" lon="1.74729">
        <ele>141.80000305176</ele>
        <time>2012-03-13T13:39:14.000Z</time>
      </trkpt>
      <trkpt lat="48.71983" lon="1.74742">
        <ele>141.80000305176</ele>
        <time>2012-03-13T13:39:19.000Z</time>
      </trkpt>
      <trkpt lat="48.71982" lon="1.74768">
        <ele>142.19999694824</ele>
        <time>2012-03-13T13:39:30.000Z</time>
      </trkpt>
      <trkpt lat="48.7198" lon="1.7478">
        <ele>142.19999694824</ele>
        <time>2012-03-13T13:39:36.000Z</time>
      </trkpt>
      <trkpt lat="48.71976" lon="1.74802">
        <ele>142.60000610352</ele>
        <time>2012-03-13T13:39:46.000Z</time>
      </trkpt>
      <trkpt lat="48.71974" lon="1.74815">
        <ele>142.60000610352</ele>
        <time>2012-03-13T13:39:52.000Z</time>
      </trkpt>
      <trkpt lat="48.71972" lon="1.74831">
        <ele>142.60000610352</ele>
        <time>2012-03-13T13:39:59.000Z</time>
      </trkpt>
      <trkpt lat="48.71969" lon="1.74851">
        <ele>142.60000610352</ele>
        <time>2012-03-13T13:40:09.000Z</time>
      </trkpt>
      <trkpt lat="48.71966" lon="1.74864">
        <ele>142.60000610352</ele>
        <time>2012-03-13T13:40:15.000Z</time>
      </trkpt>
      <trkpt lat="48.71963" lon="1.74874">
        <ele>142.60000610352</ele>
        <time>2012-03-13T13:40:20.000Z</time>
      </trkpt>
      <trkpt lat="48.71962" lon="1.74889">
        <ele>142.60000610352</ele>
        <time>2012-03-13T13:40:27.000Z</time>
      </trkpt>
      <trkpt lat="48.7196" lon="1.74904">
        <ele>142.60000610352</ele>
        <time>2012-03-13T13:40:34.000Z</time>
      </trkpt>
      <trkpt lat="48.71957" lon="1.74921">
        <ele>142.60000610352</ele>
        <time>2012-03-13T13:40:42.000Z</time>
      </trkpt>
      <trkpt lat="48.71956" lon="1.74925">
        <ele>142.60000610352</ele>
        <time>2012-03-13T13:40:44.000Z</time>
      </trkpt>
      <trkpt lat="48.71954" lon="1.74938">
        <ele>142.80000305176</ele>
        <time>2012-03-13T13:40:50.000Z</time>
      </trkpt>
      <trkpt lat="48.7195" lon="1.74957">
        <ele>143.19999694824</ele>
        <time>2012-03-13T13:40:59.000Z</time>
      </trkpt>
      <trkpt lat="48.71945" lon="1.74972">
        <ele>143.60000610352</ele>
        <time>2012-03-13T13:41:05.000Z</time>
      </trkpt>
      <trkpt lat="48.71939" lon="1.74984">
        <ele>144.19999694824</ele>
        <time>2012-03-13T13:41:11.000Z</time>
      </trkpt>
      <trkpt lat="48.71933" lon="1.74996">
        <ele>144.80000305176</ele>
        <time>2012-03-13T13:41:17.000Z</time>
      </trkpt>
      <trkpt lat="48.71928" lon="1.75">
        <ele>145.19999694824</ele>
        <time>2012-03-13T13:41:20.000Z</time>
      </trkpt>
      <trkpt lat="48.71923" lon="1.75011">
        <ele>145.19999694824</ele>
        <time>2012-03-13T13:41:26.000Z</time>
      </trkpt>
      <trkpt lat="48.71919" lon="1.7502">
        <ele>145.39999389648</ele>
        <time>2012-03-13T13:41:30.000Z</time>
      </trkpt>
      <trkpt lat="48.71912" lon="1.75035">
        <ele>145</ele>
        <time>2012-03-13T13:41:38.000Z</time>
      </trkpt>
      <trkpt lat="48.71905" lon="1.75049">
        <ele>144.80000305176</ele>
        <time>2012-03-13T13:41:45.000Z</time>
      </trkpt>
      <trkpt lat="48.71902" lon="1.75059">
        <ele>144.39999389648</ele>
        <time>2012-03-13T13:41:50.000Z</time>
      </trkpt>
      <trkpt lat="48.71899" lon="1.75068">
        <ele>144.19999694824</ele>
        <time>2012-03-13T13:41:54.000Z</time>
      </trkpt>
      <trkpt lat="48.71896" lon="1.75091">
        <ele>143.80000305176</ele>
        <time>2012-03-13T13:42:03.000Z</time>
      </trkpt>
      <trkpt lat="48.71895" lon="1.75106">
        <ele>143.39999389648</ele>
        <time>2012-03-13T13:42:09.000Z</time>
      </trkpt>
      <trkpt lat="48.71893" lon="1.75118">
        <ele>143.19999694824</ele>
        <time>2012-03-13T13:42:14.000Z</time>
      </trkpt>
      <trkpt lat="48.71891" lon="1.75136">
        <ele>142.80000305176</ele>
        <time>2012-03-13T13:42:22.000Z</time>
      </trkpt>
      <trkpt lat="48.71889" lon="1.75151">
        <ele>142.60000610352</ele>
        <time>2012-03-13T13:42:29.000Z</time>
      </trkpt>
      <trkpt lat="48.71886" lon="1.75168">
        <ele>142.39999389648</ele>
        <time>2012-03-13T13:42:36.000Z</time>
      </trkpt>
      <trkpt lat="48.71883" lon="1.75182">
        <ele>143</ele>
        <time>2012-03-13T13:42:42.000Z</time>
      </trkpt>
      <trkpt lat="48.71882" lon="1.75195">
        <ele>143.19999694824</ele>
        <time>2012-03-13T13:42:48.000Z</time>
      </trkpt>
      <trkpt lat="48.71878" lon="1.75212">
        <ele>143.80000305176</ele>
        <time>2012-03-13T13:42:55.000Z</time>
      </trkpt>
      <trkpt lat="48.71874" lon="1.75228">
        <ele>144.19999694824</ele>
        <time>2012-03-13T13:43:02.000Z</time>
      </trkpt>
      <trkpt lat="48.71872" lon="1.75243">
        <ele>144.39999389648</ele>
        <time>2012-03-13T13:43:08.000Z</time>
      </trkpt>
      <trkpt lat="48.71867" lon="1.7526">
        <ele>144.39999389648</ele>
        <time>2012-03-13T13:43:16.000Z</time>
      </trkpt>
      <trkpt lat="48.71861" lon="1.7528">
        <ele>144.39999389648</ele>
        <time>2012-03-13T13:43:25.000Z</time>
      </trkpt>
      <trkpt lat="48.71856" lon="1.75296">
        <ele>144.19999694824</ele>
        <time>2012-03-13T13:43:33.000Z</time>
      </trkpt>
      <trkpt lat="48.71855" lon="1.75306">
        <ele>144</ele>
        <time>2012-03-13T13:43:37.000Z</time>
      </trkpt>
      <trkpt lat="48.71853" lon="1.75319">
        <ele>144</ele>
        <time>2012-03-13T13:43:43.000Z</time>
      </trkpt>
      <trkpt lat="48.71852" lon="1.75322">
        <ele>144</ele>
        <time>2012-03-13T13:43:44.000Z</time>
      </trkpt>
      <trkpt lat="48.71847" lon="1.75332">
        <ele>143.80000305176</ele>
        <time>2012-03-13T13:43:50.000Z</time>
      </trkpt>
      <trkpt lat="48.71844" lon="1.75336">
        <ele>144</ele>
        <time>2012-03-13T13:43:54.000Z</time>
      </trkpt>
      <trkpt lat="48.71843" lon="1.75339">
        <ele>144</ele>
        <time>2012-03-13T13:43:58.000Z</time>
      </trkpt>
      <trkpt lat="48.71835" lon="1.75328">
        <ele>144</ele>
        <time>2012-03-13T13:44:05.000Z</time>
      </trkpt>
      <trkpt lat="48.71827" lon="1.75314">
        <ele>144.39999389648</ele>
        <time>2012-03-13T13:44:12.000Z</time>
      </trkpt>
      <trkpt lat="48.71821" lon="1.75303">
        <ele>144.80000305176</ele>
        <time>2012-03-13T13:44:18.000Z</time>
      </trkpt>
      <trkpt lat="48.71815" lon="1.75293">
        <ele>145</ele>
        <time>2012-03-13T13:44:24.000Z</time>
      </trkpt>
      <trkpt lat="48.71809" lon="1.75283">
        <ele>145.39999389648</ele>
        <time>2012-03-13T13:44:30.000Z</time>
      </trkpt>
      <trkpt lat="48.71804" lon="1.75274">
        <ele>145.60000610352</ele>
        <time>2012-03-13T13:44:36.000Z</time>
      </trkpt>
      <trkpt lat="48.71796" lon="1.75261">
        <ele>145.80000305176</ele>
        <time>2012-03-13T13:44:44.000Z</time>
      </trkpt>
      <trkpt lat="48.71791" lon="1.75253">
        <ele>146</ele>
        <time>2012-03-13T13:44:51.000Z</time>
      </trkpt>
      <trkpt lat="48.71789" lon="1.75248">
        <ele>146</ele>
        <time>2012-03-13T13:44:55.000Z</time>
      </trkpt>
      <trkpt lat="48.71779" lon="1.7523">
        <ele>146.19999694824</ele>
        <time>2012-03-13T13:45:04.000Z</time>
      </trkpt>
      <trkpt lat="48.71771" lon="1.75215">
        <ele>146.19999694824</ele>
        <time>2012-03-13T13:45:12.000Z</time>
      </trkpt>
      <trkpt lat="48.71759" lon="1.75193">
        <ele>146.19999694824</ele>
        <time>2012-03-13T13:45:24.000Z</time>
      </trkpt>
      <trkpt lat="48.71753" lon="1.75182">
        <ele>146.19999694824</ele>
        <time>2012-03-13T13:45:30.000Z</time>
      </trkpt>
      <trkpt lat="48.7175" lon="1.7517">
        <ele>146</ele>
        <time>2012-03-13T13:45:36.000Z</time>
      </trkpt>
      <trkpt lat="48.71744" lon="1.75154">
        <ele>146.19999694824</ele>
        <time>2012-03-13T13:45:45.000Z</time>
      </trkpt>
      <trkpt lat="48.71739" lon="1.75142">
        <ele>146.39999389648</ele>
        <time>2012-03-13T13:45:50.000Z</time>
      </trkpt>
      <trkpt lat="48.71737" lon="1.75134">
        <ele>146.39999389648</ele>
        <time>2012-03-13T13:45:54.000Z</time>
      </trkpt>
      <trkpt lat="48.71731" lon="1.75119">
        <ele>146.39999389648</ele>
        <time>2012-03-13T13:46:01.000Z</time>
      </trkpt>
      <trkpt lat="48.71727" lon="1.75104">
        <ele>146.19999694824</ele>
        <time>2012-03-13T13:46:08.000Z</time>
      </trkpt>
      <trkpt lat="48.71722" lon="1.75089">
        <ele>146</ele>
        <time>2012-03-13T13:46:15.000Z</time>
      </trkpt>
      <trkpt lat="48.71717" lon="1.75074">
        <ele>146</ele>
        <time>2012-03-13T13:46:23.000Z</time>
      </trkpt>
      <trkpt lat="48.71716" lon="1.75072">
        <ele>146</ele>
        <time>2012-03-13T13:46:27.000Z</time>
      </trkpt>
      <trkpt lat="48.71714" lon="1.75067">
        <ele>146</ele>
        <time>2012-03-13T13:46:42.000Z</time>
      </trkpt>
      <trkpt lat="48.71711" lon="1.75054">
        <ele>146</ele>
        <time>2012-03-13T13:46:47.000Z</time>
      </trkpt>
      <trkpt lat="48.71704" lon="1.75035">
        <ele>146.19999694824</ele>
        <time>2012-03-13T13:46:57.000Z</time>
      </trkpt>
      <trkpt lat="48.71698" lon="1.75015">
        <ele>146.39999389648</ele>
        <time>2012-03-13T13:47:06.000Z</time>
      </trkpt>
      <trkpt lat="48.71693" lon="1.75003">
        <ele>146.80000305176</ele>
        <time>2012-03-13T13:47:14.000Z</time>
      </trkpt>
      <trkpt lat="48.71695" lon="1.74997">
        <ele>146.60000610352</ele>
        <time>2012-03-13T13:47:19.000Z</time>
      </trkpt>
      <trkpt lat="48.71696" lon="1.74996">
        <ele>146.60000610352</ele>
        <time>2012-03-13T13:47:21.000Z</time>
      </trkpt>
      <trkpt lat="48.71692" lon="1.74988">
        <ele>147</ele>
        <time>2012-03-13T13:47:33.000Z</time>
      </trkpt>
      <trkpt lat="48.71688" lon="1.74977">
        <ele>147.19999694824</ele>
        <time>2012-03-13T13:47:39.000Z</time>
      </trkpt>
      <trkpt lat="48.71688" lon="1.74977">
        <ele>147.19999694824</ele>
        <time>2012-03-13T13:47:40.000Z</time>
      </trkpt>
      <trkpt lat="48.71679" lon="1.74954">
        <ele>148</ele>
        <time>2012-03-13T13:48:40.000Z</time>
      </trkpt>
      <trkpt lat="48.71673" lon="1.74942">
        <ele>148.39999389648</ele>
        <time>2012-03-13T13:48:46.000Z</time>
      </trkpt>
      <trkpt lat="48.71672" lon="1.74938">
        <ele>148.39999389648</ele>
        <time>2012-03-13T13:48:48.000Z</time>
      </trkpt>
      <trkpt lat="48.71667" lon="1.74926">
        <ele>148.80000305176</ele>
        <time>2012-03-13T13:48:56.000Z</time>
      </trkpt>
      <trkpt lat="48.71663" lon="1.74917">
        <ele>149.39999389648</ele>
        <time>2012-03-13T13:49:02.000Z</time>
      </trkpt>
      <trkpt lat="48.71661" lon="1.74911">
        <ele>149.39999389648</ele>
        <time>2012-03-13T13:49:08.000Z</time>
      </trkpt>
      <trkpt lat="48.71654" lon="1.74895">
        <ele>149.80000305176</ele>
        <time>2012-03-13T13:49:23.000Z</time>
      </trkpt>
      <trkpt lat="48.71647" lon="1.74879">
        <ele>149.80000305176</ele>
        <time>2012-03-13T13:49:29.000Z</time>
      </trkpt>
      <trkpt lat="48.71646" lon="1.74876">
        <ele>149.80000305176</ele>
        <time>2012-03-13T13:49:30.000Z</time>
      </trkpt>
      <trkpt lat="48.71642" lon="1.74869">
        <ele>150</ele>
        <time>2012-03-13T13:49:35.000Z</time>
      </trkpt>
      <trkpt lat="48.71641" lon="1.74865">
        <ele>150</ele>
        <time>2012-03-13T13:49:37.000Z</time>
      </trkpt>
      <trkpt lat="48.71636" lon="1.74853">
        <ele>150</ele>
        <time>2012-03-13T13:49:42.000Z</time>
      </trkpt>
      <trkpt lat="48.71631" lon="1.74838">
        <ele>149.80000305176</ele>
        <time>2012-03-13T13:49:49.000Z</time>
      </trkpt>
      <trkpt lat="48.71626" lon="1.74821">
        <ele>150.19999694824</ele>
        <time>2012-03-13T13:49:58.000Z</time>
      </trkpt>
      <trkpt lat="48.71621" lon="1.74814">
        <ele>150.39999389648</ele>
        <time>2012-03-13T13:50:03.000Z</time>
      </trkpt>
      <trkpt lat="48.71615" lon="1.74799">
        <ele>151</ele>
        <time>2012-03-13T13:50:11.000Z</time>
      </trkpt>
      <trkpt lat="48.7161" lon="1.74785">
        <ele>151.19999694824</ele>
        <time>2012-03-13T13:50:19.000Z</time>
      </trkpt>
      <trkpt lat="48.71603" lon="1.74767">
        <ele>151.80000305176</ele>
        <time>2012-03-13T13:50:29.000Z</time>
      </trkpt>
      <trkpt lat="48.71597" lon="1.74754">
        <ele>152.19999694824</ele>
        <time>2012-03-13T13:50:37.000Z</time>
      </trkpt>
      <trkpt lat="48.71591" lon="1.74743">
        <ele>152.80000305176</ele>
        <time>2012-03-13T13:50:45.000Z</time>
      </trkpt>
      <trkpt lat="48.71588" lon="1.74729">
        <ele>153</ele>
        <time>2012-03-13T13:50:52.000Z</time>
      </trkpt>
      <trkpt lat="48.71582" lon="1.74712">
        <ele>153.60000610352</ele>
        <time>2012-03-13T13:50:59.000Z</time>
      </trkpt>
      <trkpt lat="48.71576" lon="1.74694">
        <ele>154.39999389648</ele>
        <time>2012-03-13T13:51:08.000Z</time>
      </trkpt>
      <trkpt lat="48.71571" lon="1.74674">
        <ele>155</ele>
        <time>2012-03-13T13:51:18.000Z</time>
      </trkpt>
      <trkpt lat="48.71562" lon="1.74657">
        <ele>156</ele>
        <time>2012-03-13T13:51:24.000Z</time>
      </trkpt>
      <trkpt lat="48.71556" lon="1.74645">
        <ele>156.39999389648</ele>
        <time>2012-03-13T13:51:29.000Z</time>
      </trkpt>
      <trkpt lat="48.71549" lon="1.74628">
        <ele>157</ele>
        <time>2012-03-13T13:51:38.000Z</time>
      </trkpt>
      <trkpt lat="48.71544" lon="1.74615">
        <ele>157.19999694824</ele>
        <time>2012-03-13T13:51:45.000Z</time>
      </trkpt>
      <trkpt lat="48.71539" lon="1.74599">
        <ele>157.19999694824</ele>
        <time>2012-03-13T13:51:53.000Z</time>
      </trkpt>
      <trkpt lat="48.71529" lon="1.7458">
        <ele>157</ele>
        <time>2012-03-13T13:52:03.000Z</time>
      </trkpt>
      <trkpt lat="48.71521" lon="1.7456">
        <ele>157.39999389648</ele>
        <time>2012-03-13T13:52:14.000Z</time>
      </trkpt>
      <trkpt lat="48.71514" lon="1.7455">
        <ele>157.39999389648</ele>
        <time>2012-03-13T13:52:21.000Z</time>
      </trkpt>
      <trkpt lat="48.71506" lon="1.74538">
        <ele>157.19999694824</ele>
        <time>2012-03-13T13:52:28.000Z</time>
      </trkpt>
      <trkpt lat="48.71499" lon="1.74526">
        <ele>157.19999694824</ele>
        <time>2012-03-13T13:52:35.000Z</time>
      </trkpt>
      <trkpt lat="48.71491" lon="1.74512">
        <ele>157.80000305176</ele>
        <time>2012-03-13T13:52:43.000Z</time>
      </trkpt>
      <trkpt lat="48.7149" lon="1.7451">
        <ele>158</ele>
        <time>2012-03-13T13:52:44.000Z</time>
      </trkpt>
      <trkpt lat="48.71482" lon="1.74497">
        <ele>158.60000610352</ele>
        <time>2012-03-13T13:52:49.000Z</time>
      </trkpt>
      <trkpt lat="48.71478" lon="1.74486">
        <ele>159.39999389648</ele>
        <time>2012-03-13T13:52:53.000Z</time>
      </trkpt>
      <trkpt lat="48.71471" lon="1.74473">
        <ele>160.39999389648</ele>
        <time>2012-03-13T13:53:00.000Z</time>
      </trkpt>
      <trkpt lat="48.71466" lon="1.74459">
        <ele>161</ele>
        <time>2012-03-13T13:53:07.000Z</time>
      </trkpt>
      <trkpt lat="48.71459" lon="1.74449">
        <ele>161.39999389648</ele>
        <time>2012-03-13T13:53:12.000Z</time>
      </trkpt>
      <trkpt lat="48.71451" lon="1.74434">
        <ele>161.60000610352</ele>
        <time>2012-03-13T13:53:18.000Z</time>
      </trkpt>
      <trkpt lat="48.71446" lon="1.74424">
        <ele>161.60000610352</ele>
        <time>2012-03-13T13:53:25.000Z</time>
      </trkpt>
      <trkpt lat="48.71441" lon="1.7441">
        <ele>162</ele>
        <time>2012-03-13T13:53:33.000Z</time>
      </trkpt>
      <trkpt lat="48.71438" lon="1.74394">
        <ele>163</ele>
        <time>2012-03-13T13:53:41.000Z</time>
      </trkpt>
      <trkpt lat="48.7143" lon="1.74379">
        <ele>163.60000610352</ele>
        <time>2012-03-13T13:53:48.000Z</time>
      </trkpt>
      <trkpt lat="48.71425" lon="1.74364">
        <ele>164.39999389648</ele>
        <time>2012-03-13T13:53:53.000Z</time>
      </trkpt>
      <trkpt lat="48.71421" lon="1.74352">
        <ele>165</ele>
        <time>2012-03-13T13:53:59.000Z</time>
      </trkpt>
      <trkpt lat="48.71418" lon="1.74339">
        <ele>165.60000610352</ele>
        <time>2012-03-13T13:54:06.000Z</time>
      </trkpt>
      <trkpt lat="48.71418" lon="1.74327">
        <ele>166.60000610352</ele>
        <time>2012-03-13T13:54:12.000Z</time>
      </trkpt>
      <trkpt lat="48.71415" lon="1.74316">
        <ele>167.80000305176</ele>
        <time>2012-03-13T13:54:19.000Z</time>
      </trkpt>
      <trkpt lat="48.71413" lon="1.74306">
        <ele>169</ele>
        <time>2012-03-13T13:54:25.000Z</time>
      </trkpt>
      <trkpt lat="48.71413" lon="1.74303">
        <ele>169.19999694824</ele>
        <time>2012-03-13T13:54:26.000Z</time>
      </trkpt>
      <trkpt lat="48.71407" lon="1.7429">
        <ele>170.60000610352</ele>
        <time>2012-03-13T13:54:32.000Z</time>
      </trkpt>
      <trkpt lat="48.71403" lon="1.74278">
        <ele>171.60000610352</ele>
        <time>2012-03-13T13:54:38.000Z</time>
      </trkpt>
      <trkpt lat="48.71401" lon="1.74267">
        <ele>172.39999389648</ele>
        <time>2012-03-13T13:54:43.000Z</time>
      </trkpt>
      <trkpt lat="48.71397" lon="1.7425">
        <ele>173.60000610352</ele>
        <time>2012-03-13T13:54:48.000Z</time>
      </trkpt>
      <trkpt lat="48.71394" lon="1.74244">
        <ele>173.80000305176</ele>
        <time>2012-03-13T13:54:52.000Z</time>
      </trkpt>
      <trkpt lat="48.71392" lon="1.74241">
        <ele>174</ele>
        <time>2012-03-13T13:54:54.000Z</time>
      </trkpt>
      <trkpt lat="48.7139" lon="1.74226">
        <ele>174.80000305176</ele>
        <time>2012-03-13T13:55:02.000Z</time>
      </trkpt>
      <trkpt lat="48.7139" lon="1.74224">
        <ele>174.80000305176</ele>
        <time>2012-03-13T13:55:03.000Z</time>
      </trkpt>
      <trkpt lat="48.71387" lon="1.74208">
        <ele>175.60000610352</ele>
        <time>2012-03-13T13:55:10.000Z</time>
      </trkpt>
      <trkpt lat="48.71384" lon="1.74195">
        <ele>176.19999694824</ele>
        <time>2012-03-13T13:55:16.000Z</time>
      </trkpt>
      <trkpt lat="48.71381" lon="1.74184">
        <ele>176.60000610352</ele>
        <time>2012-03-13T13:55:21.000Z</time>
      </trkpt>
      <trkpt lat="48.71377" lon="1.74167">
        <ele>177.19999694824</ele>
        <time>2012-03-13T13:55:29.000Z</time>
      </trkpt>
      <trkpt lat="48.71375" lon="1.74151">
        <ele>177.39999389648</ele>
        <time>2012-03-13T13:55:33.000Z</time>
      </trkpt>
      <trkpt lat="48.71371" lon="1.74131">
        <ele>177.39999389648</ele>
        <time>2012-03-13T13:55:39.000Z</time>
      </trkpt>
      <trkpt lat="48.7137" lon="1.7412">
        <ele>177.60000610352</ele>
        <time>2012-03-13T13:55:45.000Z</time>
      </trkpt>
      <trkpt lat="48.71368" lon="1.74102">
        <ele>178</ele>
        <time>2012-03-13T13:55:54.000Z</time>
      </trkpt>
      <trkpt lat="48.71368" lon="1.74098">
        <ele>178</ele>
        <time>2012-03-13T13:55:56.000Z</time>
      </trkpt>
      <trkpt lat="48.71366" lon="1.74085">
        <ele>178.39999389648</ele>
        <time>2012-03-13T13:56:02.000Z</time>
      </trkpt>
      <trkpt lat="48.71361" lon="1.74069">
        <ele>178.19999694824</ele>
        <time>2012-03-13T13:56:10.000Z</time>
      </trkpt>
      <trkpt lat="48.71356" lon="1.74059">
        <ele>178</ele>
        <time>2012-03-13T13:56:16.000Z</time>
      </trkpt>
      <trkpt lat="48.71353" lon="1.74044">
        <ele>178.19999694824</ele>
        <time>2012-03-13T13:56:23.000Z</time>
      </trkpt>
      <trkpt lat="48.71345" lon="1.74028">
        <ele>178.19999694824</ele>
        <time>2012-03-13T13:56:30.000Z</time>
      </trkpt>
      <trkpt lat="48.71339" lon="1.74015">
        <ele>178.60000610352</ele>
        <time>2012-03-13T13:56:36.000Z</time>
      </trkpt>
      <trkpt lat="48.71332" lon="1.73999">
        <ele>179</ele>
        <time>2012-03-13T13:56:42.000Z</time>
      </trkpt>
      <trkpt lat="48.71329" lon="1.73983">
        <ele>179.39999389648</ele>
        <time>2012-03-13T13:56:49.000Z</time>
      </trkpt>
      <trkpt lat="48.71329" lon="1.73974">
        <ele>179.39999389648</ele>
        <time>2012-03-13T13:56:54.000Z</time>
      </trkpt>
      <trkpt lat="48.71327" lon="1.73959">
        <ele>179.80000305176</ele>
        <time>2012-03-13T13:57:02.000Z</time>
      </trkpt>
      <trkpt lat="48.71322" lon="1.73941">
        <ele>180.19999694824</ele>
        <time>2012-03-13T13:57:10.000Z</time>
      </trkpt>
      <trkpt lat="48.71318" lon="1.7393">
        <ele>180.60000610352</ele>
        <time>2012-03-13T13:57:17.000Z</time>
      </trkpt>
      <trkpt lat="48.71313" lon="1.73914">
        <ele>180.80000305176</ele>
        <time>2012-03-13T13:57:25.000Z</time>
      </trkpt>
      <trkpt lat="48.71308" lon="1.73899">
        <ele>180.80000305176</ele>
        <time>2012-03-13T13:57:32.000Z</time>
      </trkpt>
      <trkpt lat="48.71302" lon="1.73879">
        <ele>180.60000610352</ele>
        <time>2012-03-13T13:57:41.000Z</time>
      </trkpt>
      <trkpt lat="48.71297" lon="1.73867">
        <ele>180.80000305176</ele>
        <time>2012-03-13T13:57:47.000Z</time>
      </trkpt>
      <trkpt lat="48.71291" lon="1.73852">
        <ele>180.80000305176</ele>
        <time>2012-03-13T13:57:55.000Z</time>
      </trkpt>
      <trkpt lat="48.71285" lon="1.73837">
        <ele>181.19999694824</ele>
        <time>2012-03-13T13:58:02.000Z</time>
      </trkpt>
      <trkpt lat="48.71276" lon="1.73832">
        <ele>181.80000305176</ele>
        <time>2012-03-13T13:58:08.000Z</time>
      </trkpt>
      <trkpt lat="48.71265" lon="1.73832">
        <ele>182.60000610352</ele>
        <time>2012-03-13T13:58:14.000Z</time>
      </trkpt>
      <trkpt lat="48.71254" lon="1.73832">
        <ele>183.60000610352</ele>
        <time>2012-03-13T13:58:21.000Z</time>
      </trkpt>
      <trkpt lat="48.71246" lon="1.73832">
        <ele>184</ele>
        <time>2012-03-13T13:58:27.000Z</time>
      </trkpt>
      <trkpt lat="48.71233" lon="1.7383">
        <ele>183.80000305176</ele>
        <time>2012-03-13T13:58:36.000Z</time>
      </trkpt>
      <trkpt lat="48.71225" lon="1.73829">
        <ele>183.60000610352</ele>
        <time>2012-03-13T13:58:41.000Z</time>
      </trkpt>
      <trkpt lat="48.71216" lon="1.73828">
        <ele>183.60000610352</ele>
        <time>2012-03-13T13:58:46.000Z</time>
      </trkpt>
      <trkpt lat="48.71207" lon="1.73825">
        <ele>183.39999389648</ele>
        <time>2012-03-13T13:58:53.000Z</time>
      </trkpt>
      <trkpt lat="48.71197" lon="1.73825">
        <ele>183.39999389648</ele>
        <time>2012-03-13T13:59:01.000Z</time>
      </trkpt>
      <trkpt lat="48.71183" lon="1.73821">
        <ele>183.19999694824</ele>
        <time>2012-03-13T13:59:08.000Z</time>
      </trkpt>
      <trkpt lat="48.7117" lon="1.7382">
        <ele>183.19999694824</ele>
        <time>2012-03-13T13:59:16.000Z</time>
      </trkpt>
      <trkpt lat="48.71159" lon="1.73821">
        <ele>183</ele>
        <time>2012-03-13T13:59:23.000Z</time>
      </trkpt>
      <trkpt lat="48.7115" lon="1.73819">
        <ele>183</ele>
        <time>2012-03-13T13:59:29.000Z</time>
      </trkpt>
      <trkpt lat="48.71143" lon="1.73818">
        <ele>182.80000305176</ele>
        <time>2012-03-13T13:59:36.000Z</time>
      </trkpt>
      <trkpt lat="48.71131" lon="1.73817">
        <ele>182.80000305176</ele>
        <time>2012-03-13T13:59:44.000Z</time>
      </trkpt>
      <trkpt lat="48.71122" lon="1.73816">
        <ele>182.60000610352</ele>
        <time>2012-03-13T13:59:51.000Z</time>
      </trkpt>
      <trkpt lat="48.7111" lon="1.73816">
        <ele>182.60000610352</ele>
        <time>2012-03-13T13:59:59.000Z</time>
      </trkpt>
      <trkpt lat="48.71097" lon="1.73815">
        <ele>182.39999389648</ele>
        <time>2012-03-13T14:00:07.000Z</time>
      </trkpt>
      <trkpt lat="48.71089" lon="1.73814">
        <ele>182.19999694824</ele>
        <time>2012-03-13T14:00:14.000Z</time>
      </trkpt>
      <trkpt lat="48.71081" lon="1.73814">
        <ele>182.19999694824</ele>
        <time>2012-03-13T14:00:20.000Z</time>
      </trkpt>
      <trkpt lat="48.71068" lon="1.73812">
        <ele>182.39999389648</ele>
        <time>2012-03-13T14:00:28.000Z</time>
      </trkpt>
      <trkpt lat="48.71053" lon="1.73809">
        <ele>182.39999389648</ele>
        <time>2012-03-13T14:00:37.000Z</time>
      </trkpt>
      <trkpt lat="48.71046" lon="1.73808">
        <ele>182.39999389648</ele>
        <time>2012-03-13T14:00:43.000Z</time>
      </trkpt>
      <trkpt lat="48.71034" lon="1.73809">
        <ele>182.39999389648</ele>
        <time>2012-03-13T14:00:52.000Z</time>
      </trkpt>
      <trkpt lat="48.71023" lon="1.73806">
        <ele>182.39999389648</ele>
        <time>2012-03-13T14:01:00.000Z</time>
      </trkpt>
      <trkpt lat="48.71015" lon="1.73806">
        <ele>182.39999389648</ele>
        <time>2012-03-13T14:01:07.000Z</time>
      </trkpt>
      <trkpt lat="48.71008" lon="1.73813">
        <ele>182.39999389648</ele>
        <time>2012-03-13T14:01:12.000Z</time>
      </trkpt>
      <trkpt lat="48.71003" lon="1.73826">
        <ele>182.80000305176</ele>
        <time>2012-03-13T14:01:18.000Z</time>
      </trkpt>
      <trkpt lat="48.70999" lon="1.73843">
        <ele>183.19999694824</ele>
        <time>2012-03-13T14:01:24.000Z</time>
      </trkpt>
      <trkpt lat="48.70995" lon="1.73862">
        <ele>183.60000610352</ele>
        <time>2012-03-13T14:01:30.000Z</time>
      </trkpt>
      <trkpt lat="48.70991" lon="1.73873">
        <ele>183.60000610352</ele>
        <time>2012-03-13T14:01:35.000Z</time>
      </trkpt>
      <trkpt lat="48.70988" lon="1.73879">
        <ele>183.80000305176</ele>
        <time>2012-03-13T14:01:38.000Z</time>
      </trkpt>
      <trkpt lat="48.70984" lon="1.73894">
        <ele>184</ele>
        <time>2012-03-13T14:01:45.000Z</time>
      </trkpt>
      <trkpt lat="48.70982" lon="1.73909">
        <ele>184.39999389648</ele>
        <time>2012-03-13T14:01:52.000Z</time>
      </trkpt>
      <trkpt lat="48.70978" lon="1.73927">
        <ele>184.19999694824</ele>
        <time>2012-03-13T14:02:00.000Z</time>
      </trkpt>
      <trkpt lat="48.70973" lon="1.73948">
        <ele>183.60000610352</ele>
        <time>2012-03-13T14:02:09.000Z</time>
      </trkpt>
      <trkpt lat="48.70971" lon="1.73963">
        <ele>183.19999694824</ele>
        <time>2012-03-13T14:02:15.000Z</time>
      </trkpt>
      <trkpt lat="48.70969" lon="1.73976">
        <ele>183</ele>
        <time>2012-03-13T14:02:19.000Z</time>
      </trkpt>
      <trkpt lat="48.70966" lon="1.73989">
        <ele>182.60000610352</ele>
        <time>2012-03-13T14:02:25.000Z</time>
      </trkpt>
      <trkpt lat="48.70963" lon="1.74004">
        <ele>182.39999389648</ele>
        <time>2012-03-13T14:02:32.000Z</time>
      </trkpt>
      <trkpt lat="48.7096" lon="1.74017">
        <ele>182.39999389648</ele>
        <time>2012-03-13T14:02:38.000Z</time>
      </trkpt>
      <trkpt lat="48.70959" lon="1.74019">
        <ele>182.39999389648</ele>
        <time>2012-03-13T14:02:42.000Z</time>
      </trkpt>
      <trkpt lat="48.70956" lon="1.74027">
        <ele>182.60000610352</ele>
        <time>2012-03-13T14:02:50.000Z</time>
      </trkpt>
      <trkpt lat="48.70955" lon="1.74029">
        <ele>182.60000610352</ele>
        <time>2012-03-13T14:02:51.000Z</time>
      </trkpt>
      <trkpt lat="48.70952" lon="1.74047">
        <ele>182.60000610352</ele>
        <time>2012-03-13T14:02:59.000Z</time>
      </trkpt>
      <trkpt lat="48.70948" lon="1.74064">
        <ele>182.60000610352</ele>
        <time>2012-03-13T14:03:07.000Z</time>
      </trkpt>
      <trkpt lat="48.70944" lon="1.74079">
        <ele>182.60000610352</ele>
        <time>2012-03-13T14:03:14.000Z</time>
      </trkpt>
      <trkpt lat="48.70941" lon="1.74093">
        <ele>182.60000610352</ele>
        <time>2012-03-13T14:03:20.000Z</time>
      </trkpt>
      <trkpt lat="48.7094" lon="1.74098">
        <ele>182.60000610352</ele>
        <time>2012-03-13T14:03:24.000Z</time>
      </trkpt>
      <trkpt lat="48.70937" lon="1.74108">
        <ele>182.60000610352</ele>
        <time>2012-03-13T14:03:42.000Z</time>
      </trkpt>
      <trkpt lat="48.70934" lon="1.74121">
        <ele>182.60000610352</ele>
        <time>2012-03-13T14:03:47.000Z</time>
      </trkpt>
      <trkpt lat="48.70933" lon="1.74126">
        <ele>182.60000610352</ele>
        <time>2012-03-13T14:03:49.000Z</time>
      </trkpt>
      <trkpt lat="48.70933" lon="1.74134">
        <ele>182.60000610352</ele>
        <time>2012-03-13T14:03:53.000Z</time>
      </trkpt>
      <trkpt lat="48.70927" lon="1.74155">
        <ele>182.60000610352</ele>
        <time>2012-03-13T14:03:59.000Z</time>
      </trkpt>
      <trkpt lat="48.70926" lon="1.74168">
        <ele>182.60000610352</ele>
        <time>2012-03-13T14:04:04.000Z</time>
      </trkpt>
      <trkpt lat="48.70924" lon="1.74179">
        <ele>182.39999389648</ele>
        <time>2012-03-13T14:04:09.000Z</time>
      </trkpt>
      <trkpt lat="48.70921" lon="1.74195">
        <ele>182.19999694824</ele>
        <time>2012-03-13T14:04:16.000Z</time>
      </trkpt>
      <trkpt lat="48.70919" lon="1.74202">
        <ele>182</ele>
        <time>2012-03-13T14:04:19.000Z</time>
      </trkpt>
      <trkpt lat="48.70914" lon="1.74213">
        <ele>181.80000305176</ele>
        <time>2012-03-13T14:04:25.000Z</time>
      </trkpt>
      <trkpt lat="48.7091" lon="1.74229">
        <ele>181.39999389648</ele>
        <time>2012-03-13T14:04:33.000Z</time>
      </trkpt>
      <trkpt lat="48.70905" lon="1.74244">
        <ele>181</ele>
        <time>2012-03-13T14:04:41.000Z</time>
      </trkpt>
      <trkpt lat="48.70899" lon="1.74258">
        <ele>180.39999389648</ele>
        <time>2012-03-13T14:04:48.000Z</time>
      </trkpt>
      <trkpt lat="48.70892" lon="1.74274">
        <ele>179.39999389648</ele>
        <time>2012-03-13T14:04:56.000Z</time>
      </trkpt>
      <trkpt lat="48.70885" lon="1.74288">
        <ele>178.60000610352</ele>
        <time>2012-03-13T14:05:04.000Z</time>
      </trkpt>
      <trkpt lat="48.70876" lon="1.74304">
        <ele>177.80000305176</ele>
        <time>2012-03-13T14:05:11.000Z</time>
      </trkpt>
      <trkpt lat="48.70868" lon="1.74315">
        <ele>177.39999389648</ele>
        <time>2012-03-13T14:05:18.000Z</time>
      </trkpt>
      <trkpt lat="48.70863" lon="1.74328">
        <ele>176.80000305176</ele>
        <time>2012-03-13T14:05:25.000Z</time>
      </trkpt>
      <trkpt lat="48.70859" lon="1.74342">
        <ele>176.60000610352</ele>
        <time>2012-03-13T14:05:31.000Z</time>
      </trkpt>
      <trkpt lat="48.70847" lon="1.74365">
        <ele>176.39999389648</ele>
        <time>2012-03-13T14:05:42.000Z</time>
      </trkpt>
      <trkpt lat="48.70836" lon="1.74382">
        <ele>176.39999389648</ele>
        <time>2012-03-13T14:05:51.000Z</time>
      </trkpt>
      <trkpt lat="48.70826" lon="1.74393">
        <ele>176.39999389648</ele>
        <time>2012-03-13T14:05:59.000Z</time>
      </trkpt>
      <trkpt lat="48.70814" lon="1.74405">
        <ele>176.60000610352</ele>
        <time>2012-03-13T14:06:09.000Z</time>
      </trkpt>
      <trkpt lat="48.70805" lon="1.74411">
        <ele>176.80000305176</ele>
        <time>2012-03-13T14:06:16.000Z</time>
      </trkpt>
      <trkpt lat="48.70796" lon="1.74417">
        <ele>176.80000305176</ele>
        <time>2012-03-13T14:06:22.000Z</time>
      </trkpt>
      <trkpt lat="48.70787" lon="1.74422">
        <ele>177</ele>
        <time>2012-03-13T14:06:29.000Z</time>
      </trkpt>
      <trkpt lat="48.70779" lon="1.74427">
        <ele>177.19999694824</ele>
        <time>2012-03-13T14:06:35.000Z</time>
      </trkpt>
      <trkpt lat="48.70777" lon="1.7443">
        <ele>177.19999694824</ele>
        <time>2012-03-13T14:06:39.000Z</time>
      </trkpt>
      <trkpt lat="48.70777" lon="1.7443">
        <ele>177.19999694824</ele>
        <time>2012-03-13T14:06:40.000Z</time>
      </trkpt>
      <trkpt lat="48.70773" lon="1.74433">
        <ele>177.39999389648</ele>
        <time>2012-03-13T14:06:45.000Z</time>
      </trkpt>
      <trkpt lat="48.70767" lon="1.74433">
        <ele>177.39999389648</ele>
        <time>2012-03-13T14:06:48.000Z</time>
      </trkpt>
      <trkpt lat="48.70766" lon="1.74432">
        <ele>177.39999389648</ele>
        <time>2012-03-13T14:06:52.000Z</time>
      </trkpt>
      <trkpt lat="48.70755" lon="1.74442">
        <ele>177.60000610352</ele>
        <time>2012-03-13T14:07:14.000Z</time>
      </trkpt>
      <trkpt lat="48.70749" lon="1.74445">
        <ele>177.60000610352</ele>
        <time>2012-03-13T14:07:17.000Z</time>
      </trkpt>
      <trkpt lat="48.70734" lon="1.74456">
        <ele>178.19999694824</ele>
        <time>2012-03-13T14:07:29.000Z</time>
      </trkpt>
      <trkpt lat="48.70732" lon="1.74467">
        <ele>178</ele>
        <time>2012-03-13T14:07:35.000Z</time>
      </trkpt>
      <trkpt lat="48.70742" lon="1.74483">
        <ele>177.39999389648</ele>
        <time>2012-03-13T14:07:44.000Z</time>
      </trkpt>
      <trkpt lat="48.7075" lon="1.74493">
        <ele>177</ele>
        <time>2012-03-13T14:07:51.000Z</time>
      </trkpt>
      <trkpt lat="48.7076" lon="1.74504">
        <ele>176.80000305176</ele>
        <time>2012-03-13T14:07:59.000Z</time>
      </trkpt>
      <trkpt lat="48.70766" lon="1.74514">
        <ele>176.80000305176</ele>
        <time>2012-03-13T14:08:05.000Z</time>
      </trkpt>
      <trkpt lat="48.70776" lon="1.74526">
        <ele>176.60000610352</ele>
        <time>2012-03-13T14:08:14.000Z</time>
      </trkpt>
      <trkpt lat="48.70783" lon="1.74533">
        <ele>176.60000610352</ele>
        <time>2012-03-13T14:08:20.000Z</time>
      </trkpt>
      <trkpt lat="48.70784" lon="1.74533">
        <ele>176.60000610352</ele>
        <time>2012-03-13T14:08:24.000Z</time>
      </trkpt>
      <trkpt lat="48.7079" lon="1.74541">
        <ele>176.60000610352</ele>
        <time>2012-03-13T14:08:42.000Z</time>
      </trkpt>
      <trkpt lat="48.70792" lon="1.74544">
        <ele>176.39999389648</ele>
        <time>2012-03-13T14:08:46.000Z</time>
      </trkpt>
      <trkpt lat="48.70797" lon="1.7455">
        <ele>176.39999389648</ele>
        <time>2012-03-13T14:08:55.000Z</time>
      </trkpt>
      <trkpt lat="48.70801" lon="1.74554">
        <ele>176.39999389648</ele>
        <time>2012-03-13T14:09:00.000Z</time>
      </trkpt>
      <trkpt lat="48.70808" lon="1.74558">
        <ele>176.39999389648</ele>
        <time>2012-03-13T14:09:13.000Z</time>
      </trkpt>
      <trkpt lat="48.70809" lon="1.74559">
        <ele>176.19999694824</ele>
        <time>2012-03-13T14:09:15.000Z</time>
      </trkpt>
      <trkpt lat="48.70818" lon="1.74574">
        <ele>176.19999694824</ele>
        <time>2012-03-13T14:09:50.000Z</time>
      </trkpt>
      <trkpt lat="48.70823" lon="1.74584">
        <ele>176.19999694824</ele>
        <time>2012-03-13T14:09:54.000Z</time>
      </trkpt>
      <trkpt lat="48.70827" lon="1.74594">
        <ele>176</ele>
        <time>2012-03-13T14:09:59.000Z</time>
      </trkpt>
      <trkpt lat="48.70839" lon="1.74611">
        <ele>176</ele>
        <time>2012-03-13T14:10:06.000Z</time>
      </trkpt>
      <trkpt lat="48.70847" lon="1.74624">
        <ele>176</ele>
        <time>2012-03-13T14:10:12.000Z</time>
      </trkpt>
      <trkpt lat="48.70859" lon="1.74638">
        <ele>175.80000305176</ele>
        <time>2012-03-13T14:10:21.000Z</time>
      </trkpt>
      <trkpt lat="48.70869" lon="1.74653">
        <ele>176</ele>
        <time>2012-03-13T14:10:30.000Z</time>
      </trkpt>
      <trkpt lat="48.70877" lon="1.74663">
        <ele>176</ele>
        <time>2012-03-13T14:10:37.000Z</time>
      </trkpt>
      <trkpt lat="48.70885" lon="1.74671">
        <ele>176.19999694824</ele>
        <time>2012-03-13T14:10:44.000Z</time>
      </trkpt>
      <trkpt lat="48.70895" lon="1.74685">
        <ele>176.60000610352</ele>
        <time>2012-03-13T14:10:53.000Z</time>
      </trkpt>
      <trkpt lat="48.70897" lon="1.74687">
        <ele>176.60000610352</ele>
        <time>2012-03-13T14:10:55.000Z</time>
      </trkpt>
      <trkpt lat="48.70902" lon="1.74696">
        <ele>176.80000305176</ele>
        <time>2012-03-13T14:11:00.000Z</time>
      </trkpt>
      <trkpt lat="48.70914" lon="1.74711">
        <ele>177.19999694824</ele>
        <time>2012-03-13T14:11:10.000Z</time>
      </trkpt>
      <trkpt lat="48.70915" lon="1.74712">
        <ele>177.19999694824</ele>
        <time>2012-03-13T14:11:11.000Z</time>
      </trkpt>
      <trkpt lat="48.70925" lon="1.74725">
        <ele>177.39999389648</ele>
        <time>2012-03-13T14:11:19.000Z</time>
      </trkpt>
      <trkpt lat="48.70933" lon="1.74737">
        <ele>177.80000305176</ele>
        <time>2012-03-13T14:11:26.000Z</time>
      </trkpt>
      <trkpt lat="48.70943" lon="1.74749">
        <ele>178</ele>
        <time>2012-03-13T14:11:34.000Z</time>
      </trkpt>
      <trkpt lat="48.70955" lon="1.74766">
        <ele>178</ele>
        <time>2012-03-13T14:11:44.000Z</time>
      </trkpt>
      <trkpt lat="48.70964" lon="1.74777">
        <ele>178.19999694824</ele>
        <time>2012-03-13T14:11:51.000Z</time>
      </trkpt>
      <trkpt lat="48.70968" lon="1.74786">
        <ele>178.19999694824</ele>
        <time>2012-03-13T14:11:56.000Z</time>
      </trkpt>
      <trkpt lat="48.70977" lon="1.74796">
        <ele>178.39999389648</ele>
        <time>2012-03-13T14:12:03.000Z</time>
      </trkpt>
      <trkpt lat="48.70987" lon="1.74808">
        <ele>178.60000610352</ele>
        <time>2012-03-13T14:12:11.000Z</time>
      </trkpt>
      <trkpt lat="48.70994" lon="1.74819">
        <ele>178.80000305176</ele>
        <time>2012-03-13T14:12:18.000Z</time>
      </trkpt>
      <trkpt lat="48.71004" lon="1.74831">
        <ele>178.80000305176</ele>
        <time>2012-03-13T14:12:27.000Z</time>
      </trkpt>
      <trkpt lat="48.71007" lon="1.74834">
        <ele>178.60000610352</ele>
        <time>2012-03-13T14:12:29.000Z</time>
      </trkpt>
      <trkpt lat="48.71011" lon="1.74844">
        <ele>178.39999389648</ele>
        <time>2012-03-13T14:12:35.000Z</time>
      </trkpt>
      <trkpt lat="48.7101" lon="1.74856">
        <ele>178.39999389648</ele>
        <time>2012-03-13T14:12:40.000Z</time>
      </trkpt>
      <trkpt lat="48.71002" lon="1.74867">
        <ele>179</ele>
        <time>2012-03-13T14:12:47.000Z</time>
      </trkpt>
      <trkpt lat="48.7099" lon="1.7488">
        <ele>178.60000610352</ele>
        <time>2012-03-13T14:12:57.000Z</time>
      </trkpt>
      <trkpt lat="48.70979" lon="1.74891">
        <ele>178.19999694824</ele>
        <time>2012-03-13T14:13:05.000Z</time>
      </trkpt>
      <trkpt lat="48.70972" lon="1.749">
        <ele>177.80000305176</ele>
        <time>2012-03-13T14:13:11.000Z</time>
      </trkpt>
      <trkpt lat="48.70964" lon="1.74911">
        <ele>177.39999389648</ele>
        <time>2012-03-13T14:13:18.000Z</time>
      </trkpt>
      <trkpt lat="48.70955" lon="1.74923">
        <ele>176.80000305176</ele>
        <time>2012-03-13T14:13:26.000Z</time>
      </trkpt>
      <trkpt lat="48.70949" lon="1.74932">
        <ele>176.39999389648</ele>
        <time>2012-03-13T14:13:31.000Z</time>
      </trkpt>
      <trkpt lat="48.7094" lon="1.74944">
        <ele>176</ele>
        <time>2012-03-13T14:13:38.000Z</time>
      </trkpt>
      <trkpt lat="48.7093" lon="1.74961">
        <ele>175.60000610352</ele>
        <time>2012-03-13T14:13:47.000Z</time>
      </trkpt>
      <trkpt lat="48.70923" lon="1.74973">
        <ele>175.19999694824</ele>
        <time>2012-03-13T14:13:54.000Z</time>
      </trkpt>
      <trkpt lat="48.70917" lon="1.74985">
        <ele>175</ele>
        <time>2012-03-13T14:14:01.000Z</time>
      </trkpt>
      <trkpt lat="48.70916" lon="1.74986">
        <ele>175</ele>
        <time>2012-03-13T14:14:02.000Z</time>
      </trkpt>
      <trkpt lat="48.70915" lon="1.74987">
        <ele>175</ele>
        <time>2012-03-13T14:14:05.000Z</time>
      </trkpt>
      <trkpt lat="48.70841" lon="1.75157">
        <ele>174</ele>
        <time>2012-03-13T14:18:50.000Z</time>
      </trkpt>
      <trkpt lat="48.70837" lon="1.75167">
        <ele>174</ele>
        <time>2012-03-13T14:18:56.000Z</time>
      </trkpt>
      <trkpt lat="48.70836" lon="1.7517">
        <ele>174</ele>
        <time>2012-03-13T14:18:57.000Z</time>
      </trkpt>
      <trkpt lat="48.70834" lon="1.75175">
        <ele>174</ele>
        <time>2012-03-13T14:19:01.000Z</time>
      </trkpt>
      <trkpt lat="48.70828" lon="1.75186">
        <ele>174</ele>
        <time>2012-03-13T14:19:09.000Z</time>
      </trkpt>
      <trkpt lat="48.70823" lon="1.75198">
        <ele>173.80000305176</ele>
        <time>2012-03-13T14:19:17.000Z</time>
      </trkpt>
      <trkpt lat="48.7082" lon="1.75206">
        <ele>173.80000305176</ele>
        <time>2012-03-13T14:19:23.000Z</time>
      </trkpt>
      <trkpt lat="48.70814" lon="1.75222">
        <ele>173.80000305176</ele>
        <time>2012-03-13T14:19:31.000Z</time>
      </trkpt>
      <trkpt lat="48.70811" lon="1.75228">
        <ele>173.80000305176</ele>
        <time>2012-03-13T14:19:35.000Z</time>
      </trkpt>
      <trkpt lat="48.70805" lon="1.7524">
        <ele>173.60000610352</ele>
        <time>2012-03-13T14:19:41.000Z</time>
      </trkpt>
      <trkpt lat="48.70801" lon="1.7525">
        <ele>173.60000610352</ele>
        <time>2012-03-13T14:19:48.000Z</time>
      </trkpt>
      <trkpt lat="48.70798" lon="1.75257">
        <ele>173.60000610352</ele>
        <time>2012-03-13T14:19:53.000Z</time>
      </trkpt>
      <trkpt lat="48.70797" lon="1.7526">
        <ele>173.60000610352</ele>
        <time>2012-03-13T14:19:57.000Z</time>
      </trkpt>
      <trkpt lat="48.70794" lon="1.75267">
        <ele>173.60000610352</ele>
        <time>2012-03-13T14:20:02.000Z</time>
      </trkpt>
      <trkpt lat="48.70792" lon="1.75272">
        <ele>173.60000610352</ele>
        <time>2012-03-13T14:20:07.000Z</time>
      </trkpt>
      <trkpt lat="48.70789" lon="1.75281">
        <ele>173.39999389648</ele>
        <time>2012-03-13T14:20:14.000Z</time>
      </trkpt>
      <trkpt lat="48.70788" lon="1.75283">
        <ele>173.39999389648</ele>
        <time>2012-03-13T14:20:15.000Z</time>
      </trkpt>
      <trkpt lat="48.70785" lon="1.75293">
        <ele>173.39999389648</ele>
        <time>2012-03-13T14:20:21.000Z</time>
      </trkpt>
      <trkpt lat="48.70779" lon="1.753">
        <ele>173.39999389648</ele>
        <time>2012-03-13T14:20:27.000Z</time>
      </trkpt>
      <trkpt lat="48.70779" lon="1.75301">
        <ele>173.39999389648</ele>
        <time>2012-03-13T14:20:28.000Z</time>
      </trkpt>
      <trkpt lat="48.70776" lon="1.75308">
        <ele>173.39999389648</ele>
        <time>2012-03-13T14:20:33.000Z</time>
      </trkpt>
      <trkpt lat="48.70772" lon="1.75318">
        <ele>173.19999694824</ele>
        <time>2012-03-13T14:20:39.000Z</time>
      </trkpt>
      <trkpt lat="48.70767" lon="1.75329">
        <ele>173.19999694824</ele>
        <time>2012-03-13T14:20:46.000Z</time>
      </trkpt>
      <trkpt lat="48.7076" lon="1.75343">
        <ele>173</ele>
        <time>2012-03-13T14:20:55.000Z</time>
      </trkpt>
      <trkpt lat="48.70751" lon="1.75363">
        <ele>172.60000610352</ele>
        <time>2012-03-13T14:21:07.000Z</time>
      </trkpt>
      <trkpt lat="48.70748" lon="1.75369">
        <ele>172.60000610352</ele>
        <time>2012-03-13T14:21:11.000Z</time>
      </trkpt>
      <trkpt lat="48.70742" lon="1.75387">
        <ele>172.19999694824</ele>
        <time>2012-03-13T14:21:21.000Z</time>
      </trkpt>
      <trkpt lat="48.70737" lon="1.75404">
        <ele>172</ele>
        <time>2012-03-13T14:21:31.000Z</time>
      </trkpt>
      <trkpt lat="48.70731" lon="1.75416">
        <ele>171.80000305176</ele>
        <time>2012-03-13T14:21:39.000Z</time>
      </trkpt>
      <trkpt lat="48.70728" lon="1.75425">
        <ele>171.80000305176</ele>
        <time>2012-03-13T14:21:45.000Z</time>
      </trkpt>
      <trkpt lat="48.70725" lon="1.75431">
        <ele>171.60000610352</ele>
        <time>2012-03-13T14:21:49.000Z</time>
      </trkpt>
      <trkpt lat="48.70721" lon="1.75445">
        <ele>171.60000610352</ele>
        <time>2012-03-13T14:21:57.000Z</time>
      </trkpt>
      <trkpt lat="48.70717" lon="1.75452">
        <ele>171.60000610352</ele>
        <time>2012-03-13T14:22:02.000Z</time>
      </trkpt>
      <trkpt lat="48.70712" lon="1.75466">
        <ele>171.80000305176</ele>
        <time>2012-03-13T14:22:11.000Z</time>
      </trkpt>
      <trkpt lat="48.7071" lon="1.75471">
        <ele>171.80000305176</ele>
        <time>2012-03-13T14:22:17.000Z</time>
      </trkpt>
      <trkpt lat="48.70699" lon="1.75486">
        <ele>172</ele>
        <time>2012-03-13T14:24:22.000Z</time>
      </trkpt>
      <trkpt lat="48.70699" lon="1.75482">
        <ele>172</ele>
        <time>2012-03-13T14:24:25.000Z</time>
      </trkpt>
      <trkpt lat="48.70701" lon="1.75473">
        <ele>172</ele>
        <time>2012-03-13T14:24:34.000Z</time>
      </trkpt>
      <trkpt lat="48.70702" lon="1.75471">
        <ele>171.80000305176</ele>
        <time>2012-03-13T14:24:35.000Z</time>
      </trkpt>
    </trkseg>
  </trk>
</gpx>